GFSSGP_sfc_rhum_000.txt.gz
RH
66 34 31 21 18 21 24 19 18 29 71 74 64 62 84 96 78 74 76 74 93 96 95 95 92 91 91 88 86 89 90 86 87 85 83 80 77 76 80 80 77 71 68 68 71 71 73 78 81
61 25 16 22 23 26 24 20 54 57 78 74 67 73 86 96 92 94 82 78 88 94 95 95 92 92 92 92 92 90 88 86 87 86 84 81 77 78 80 79 76 70 68 70 70 66 70 76 81
35 15 14 23 28 26 31 25 76 74 72 58 82 80 84 96 91 89 76 78 92 95 95 96 93 92 92 91 91 92 93 93 92 89 85 84 80 79 82 81 73 73 70 69 70 71 72 80 81
20 13 14 20 25 22 28 28 64 66 58 65 80 83 78 80 84 80 76 88 95 96 94 95 94 93 92 88 87 89 92 94 93 90 87 84 81 80 84 83 80 77 76 74 74 74 82 88 88
15 15 17 18 20 22 29 40 40 52 58 63 66 88 84 83 83 79 87 86 93 97 95 96 94 93 91 86 86 90 92 94 95 92 89 87 85 84 76 78 82 78 81 78 79 82 81 85 86
13 14 18 20 20 14 16 28 40 51 54 61 72 82 83 85 86 85 84 90 91 96 96 94 89 89 90 90 90 92 92 93 93 92 92 87 88 88 86 84 84 81 83 84 84 86 84 84 84
13 16 20 18 16 15 14 13 19 26 38 50 66 84 85 84 87 84 91 91 93 95 95 95 93 88 89 90 90 92 94 94 93 91 94 94 93 91 86 83 80 78 78 79 82 83 86 86 87
15 15 20 18 14 14 12 15 18 18 39 51 62 86 84 76 80 92 94 94 94 95 93 93 92 91 92 93 92 93 93 95 94 90 90 91 92 88 84 82 81 78 81 82 81 82 83 81 81
16 20 21 22 14 24 17 33 18 20 36 31 50 64 59 70 84 93 95 95 96 93 93 92 92 90 89 87 89 90 90 94 96 92 90 92 95 92 91 83 81 82 82 80 81 82 83 83 83
17 21 29 17 15 44 20 21 16 22 44 63 67 67 78 78 85 91 94 95 95 95 94 94 93 92 89 73 90 94 93 97 99 98 97 96 94 94 88 87 82 80 80 82 84 82 81 81 91
42 22 20 21 18 18 25 22 21 19 41 47 42 64 80 84 79 85 89 91 92 93 96 95 94 94 93 90 95 98 98 98 98 98 98 97 98 97 98 98 98 97 90 97 95 96 98 94 96
21 21 20 22 22 22 24 35 24 21 16 23 44 60 80 84 79 75 80 82 79 89 93 94 95 96 95 97 97 96 97 98 98 97 96 98 99 97 98 99 98 99 98 97 98 99 98 97 95
23 24 22 23 20 22 25 24 21 21 18 20 40 64 80 83 80 75 74 80 76 81 83 85 91 93 89 93 96 96 97 97 97 97 95 97 97 97 97 98 98 99 98 99 98 96 93 90 89
29 28 27 26 24 26 25 25 41 21 23 21 48 57 77 80 78 72 70 66 73 68 68 83 89 91 86 81 81 86 92 94 96 96 96 92 97 97 98 98 98 98 98 97 94 89 86 87 88
28 26 24 23 26 27 25 22 20 22 19 20 26 53 62 70 70 56 50 62 66 56 61 79 86 88 85 79 78 79 80 79 82 87 86 86 93 97 96 98 99 98 97 88 91 85 86 80 78
26 28 28 21 27 22 20 26 18 20 23 21 21 37 51 56 47 41 41 56 59 51 59 78 70 84 84 84 84 83 81 80 76 80 85 87 91 89 88 94 96 96 92 92 93 67 66 71 72
33 36 33 26 31 36 28 27 20 23 29 26 24 27 37 38 35 30 35 40 41 47 56 69 69 78 74 78 84 84 80 82 75 77 84 85 86 84 81 82 84 86 79 80 83 68 71 68 65
38 33 53 41 32 38 45 35 34 34 32 30 29 31 30 30 34 39 38 41 41 51 56 53 62 70 66 64 63 62 61 61 72 70 72 80 82 82 82 81 81 80 77 76 75 70 75 71 66
34 38 46 43 36 42 48 47 36 30 31 30 31 31 37 39 43 45 46 48 50 52 44 40 46 48 52 54 54 56 55 53 57 60 62 68 76 80 80 76 79 84 76 66 72 73 71 73 76
35 43 39 38 39 49 46 42 29 31 33 39 40 42 39 40 40 39 42 49 44 44 43 39 37 39 42 48 50 53 52 53 54 56 57 60 64 70 75 73 68 74 75 77 74 74 76 74 79
39 40 42 42 43 53 46 39 37 28 32 32 34 39 40 39 36 40 40 41 40 39 41 40 39 40 44 48 52 52 55 55 54 49 54 51 58 58 70 68 68 66 72 68 67 70 72 65 82
47 34 42 46 56 53 49 47 42 41 33 35 35 35 39 41 43 40 40 40 40 40 43 44 45 46 46 52 54 57 57 58 54 57 54 50 57 63 61 69 73 68 65 68 72 66 73 74 78
42 48 54 54 60 64 51 50 40 40 36 37 41 37 43 38 36 36 37 39 46 52 53 64 58 55 56 57 61 65 62 68 68 66 69 66 67 70 67 66 66 74 74 76 73 76 77 64 68
43 55 50 60 60 69 60 56 50 46 42 40 42 42 39 47 38 40 46 52 59 60 60 59 56 54 56 59 61 64 66 64 64 57 71 75 80 80 78 78 80 78 75 70 68 64 60 65 64
52 59 69 68 78 77 58 57 45 40 40 41 41 41 41 44 49 47 55 60 59 60 61 59 60 58 60 65 56 55 58 61 60 56 63 76 83 80 82 78 78 80 82 81 77 79 77 79 83
58 63 81 66 90 84 63 62 48 40 42 37 39 53 58 60 62 64 62 62 60 60 62 67 65 64 68 64 53 57 60 63 61 64 71 84 80 83 90 91 88 87 88 89 87 89 90 93 95
59 72 63 82 97 92 78 63 47 50 50 46 54 54 56 55 56 58 55 58 59 60 62 69 70 69 72 70 61 68 69 64 61 64 78 82 82 84 91 89 87 86 86 90 88 90 90 92 92
53 53 72 88 92 91 80 76 68 60 55 58 59 57 58 56 56 56 57 59 61 65 70 72 72 72 77 64 65 62 67 65 66 76 80 78 82 88 89 86 80 80 77 78 83 90 91 92 88
65 76 72 72 88 95 97 78 63 60 61 61 62 63 65 62 56 59 64 68 70 71 72 76 74 77 84 65 71 72 66 70 72 77 78 81 84 78 69 68 71 73 76 78 82 82 78 75 75
67 69 68 86 77 93 95 81 54 54 60 57 62 63 65 63 61 62 69 72 73 72 73 79 80 85 69 70 72 71 73 70 71 74 72 70 63 62 63 62 63 64 67 70 71 71 68 69 69

GFSSGP_sfc_rhum_003.txt.gz
RH
42 23 20 15 13 15 17 16 13 45 56 55 52 44 62 75 60 58 68 61 69 75 75 74 91 89 88 83 85 86 88 86 85 84 82 79 78 80 82 82 76 70 67 70 72 68 73 78 81
32 16 15 16 16 18 25 23 25 59 60 57 57 63 66 77 76 68 61 65 66 75 75 74 92 92 92 90 89 90 88 86 86 84 81 79 78 80 84 83 75 71 69 69 70 72 70 75 78
21 10 12 18 20 20 34 32 60 64 57 54 60 60 66 72 73 60 58 64 70 72 74 76 93 92 91 92 93 93 93 92 90 88 86 86 82 82 87 82 76 75 74 73 73 74 82 85 91
13 10 12 22 25 20 32 44 60 56 46 56 56 60 60 60 65 62 53 61 67 66 72 85 94 94 91 89 89 91 94 95 94 91 89 87 85 85 84 84 84 79 78 78 78 80 79 85 90
11 12 18 25 25 24 26 34 54 46 46 51 51 66 64 62 64 56 62 65 61 66 72 69 96 94 92 88 88 89 92 95 94 92 90 88 88 86 82 81 84 83 81 82 84 84 82 82 82
10 12 19 24 19 11 20 29 36 40 48 56 60 62 63 70 63 62 63 64 58 61 68 69 88 93 92 91 91 92 94 94 93 92 92 91 92 90 88 87 82 80 79 81 82 86 89 90 90
12 14 14 13 12 10 10 9 21 34 39 33 47 58 69 74 62 64 62 59 63 65 66 70 66 74 91 91 90 92 93 93 92 92 92 93 94 91 86 84 80 78 81 82 81 84 85 85 85
12 11 12 11 10 9 8 10 12 16 28 41 46 48 68 62 65 68 65 64 65 68 68 71 70 62 67 67 93 93 93 94 92 89 88 90 90 86 84 79 78 80 82 82 82 82 82 82 83
12 12 12 11 9 10 11 10 11 17 33 26 29 48 44 54 70 71 75 68 71 72 71 69 69 63 63 63 70 84 90 93 94 86 87 83 66 67 67 80 80 80 80 81 80 79 79 76 78
12 15 14 11 10 12 13 10 10 14 24 29 36 42 61 66 69 71 71 67 69 68 69 66 69 67 65 55 67 71 71 69 75 74 76 68 75 71 72 78 85 84 84 84 84 84 81 65 52
16 16 15 14 11 12 14 14 12 15 20 22 22 42 63 67 69 68 65 57 59 58 62 64 71 73 67 58 62 62 62 68 72 83 80 78 76 76 73 72 69 73 81 67 70 71 72 76 73
17 16 16 15 16 15 14 14 14 14 12 14 25 44 61 64 68 68 65 62 62 65 62 67 70 76 77 66 64 64 63 66 68 72 81 80 75 78 77 70 71 78 74 77 77 79 78 73 72
19 17 17 16 16 15 17 16 16 15 14 13 26 53 61 60 58 61 59 59 62 63 64 68 74 78 78 78 71 72 72 68 70 72 76 75 72 75 71 71 71 74 75 74 76 69 56 53 52
21 19 19 18 18 18 18 18 17 14 14 14 27 41 55 60 59 56 56 55 59 57 61 66 68 72 70 65 72 68 69 70 71 71 74 80 75 75 70 70 69 70 71 71 73 59 50 50 53
22 18 18 19 20 17 17 17 15 14 14 14 15 32 51 59 60 58 52 52 50 53 54 61 64 67 71 64 59 56 54 59 61 64 73 74 74 71 74 71 72 69 71 78 65 57 54 50 50
19 21 20 18 22 20 16 20 15 15 18 17 20 15 38 53 56 52 47 41 47 49 51 54 55 59 66 64 58 55 53 57 54 54 56 64 66 67 70 67 69 66 74 72 64 56 48 41 42
25 17 22 21 26 27 24 24 19 22 24 23 22 17 24 38 34 24 26 34 44 44 45 49 58 56 58 58 54 58 62 56 52 54 50 57 62 66 67 62 62 68 64 69 63 55 52 39 41
25 22 25 26 23 29 31 28 26 22 25 26 22 21 24 29 25 28 28 28 35 41 44 47 49 52 57 50 49 42 42 42 45 44 45 51 50 62 64 60 65 63 57 59 59 58 48 42 40
24 26 30 27 28 33 37 31 22 23 24 25 24 24 22 24 30 32 35 35 37 43 44 42 41 44 43 36 37 35 37 36 36 34 41 46 44 53 59 56 59 62 60 58 58 56 58 48 49
26 29 26 29 31 34 33 26 26 24 28 32 30 30 29 29 29 34 36 37 40 39 40 36 35 37 36 34 37 40 41 38 38 41 44 44 46 45 47 56 54 55 56 63 64 63 53 49 50
32 28 31 33 33 34 32 26 29 25 24 26 28 29 28 28 29 30 31 36 39 40 41 35 36 39 43 44 37 38 40 39 36 32 33 35 45 45 48 51 53 56 57 59 61 63 62 51 49
37 30 38 38 40 35 36 31 31 31 24 26 26 27 28 28 28 28 30 32 37 41 46 44 43 40 41 44 41 45 39 38 39 41 37 40 46 49 48 52 55 57 57 60 60 54 62 60 52
39 42 43 40 42 40 39 31 33 33 30 28 29 30 29 31 32 35 40 44 45 48 50 48 44 44 47 42 45 44 48 46 44 43 45 46 47 51 53 54 58 60 56 59 62 63 64 56 58
40 42 40 46 45 51 46 39 40 35 34 32 29 31 37 38 36 38 46 43 44 47 52 51 46 44 48 45 45 52 56 55 50 48 46 44 46 52 56 54 58 58 58 60 58 60 62 60 56
43 41 49 62 64 56 46 42 38 36 34 33 35 42 48 50 49 47 44 44 46 48 50 48 47 46 50 54 47 52 56 56 51 49 47 51 50 51 57 58 60 58 60 61 61 66 69 68 69
50 49 64 56 64 60 51 47 42 40 37 38 44 45 44 44 47 48 47 48 48 50 50 51 49 48 50 56 50 53 55 50 50 50 52 54 55 57 64 59 55 60 62 64 65 67 71 73 78
46 60 52 70 89 80 54 48 40 38 38 42 42 43 44 42 43 45 46 49 52 52 56 61 55 50 53 60 55 58 57 55 55 57 57 58 62 60 65 67 64 62 60 62 61 64 64 73 77
44 46 56 68 78 71 51 56 42 44 42 45 42 48 48 44 40 41 41 48 54 54 59 63 58 54 57 60 54 53 55 54 55 56 61 62 65 67 62 55 53 52 54 55 59 61 62 64 66
52 55 61 60 71 81 89 52 47 43 42 43 42 47 49 47 44 43 44 48 54 59 54 57 58 57 58 53 57 59 58 54 54 58 61 61 63 55 52 52 55 60 65 68 66 64 57 51 52
50 52 53 65 62 74 82 59 40 42 38 42 42 46 48 48 46 45 47 51 56 55 53 57 62 63 58 58 58 60 53 48 56 60 62 66 63 59 54 54 63 66 60 59 55 53 48 45 44

GFSSGP_sfc_rhum_006.txt.gz
RH
28 12 11 10 10 12 19 21 24 35 35 36 33 29 34 42 38 43 38 40 35 42 47 52 88 86 86 87 87 85 84 83 82 81 78 75 80 82 82 79 74 70 68 67 70 70 71 76 78
12 10 9 9 11 13 19 20 24 30 35 33 34 36 32 42 42 44 40 39 36 42 48 50 92 90 87 87 86 87 85 85 84 82 80 80 80 83 83 78 75 73 72 72 71 72 78 81 82
13 9 8 9 10 15 19 19 32 34 35 34 34 34 38 39 36 34 34 36 37 41 44 56 91 91 91 92 90 88 86 86 86 86 84 84 83 83 83 81 78 77 76 75 77 78 77 82 87
9 7 9 10 14 21 19 24 26 32 36 33 25 34 40 40 37 34 35 34 32 34 39 72 91 91 88 86 87 88 89 90 88 86 84 83 83 81 77 80 80 78 78 78 80 80 80 80 80
6 7 12 13 16 21 22 24 28 28 29 31 31 36 40 45 45 37 38 35 32 31 36 39 91 89 85 83 82 84 88 90 89 87 86 86 84 84 82 83 82 82 82 80 81 84 87 88 86
6 9 12 15 20 22 23 27 24 22 26 30 29 30 38 47 42 40 39 34 29 33 40 40 80 87 87 85 85 88 89 88 87 88 88 87 87 85 84 82 80 78 78 78 79 81 83 84 85
8 9 11 13 17 17 17 17 18 18 20 22 24 26 45 47 37 39 34 31 33 32 35 38 39 60 88 89 88 90 90 88 86 87 87 90 90 86 83 81 77 78 79 79 78 80 81 81 80
6 7 10 10 10 9 7 8 11 13 18 27 23 22 35 37 42 40 35 33 33 37 34 41 45 40 44 45 86 88 88 90 86 84 83 86 85 81 79 72 76 78 77 78 78 79 78 79 80
7 7 8 8 7 8 7 7 8 14 19 22 21 20 26 36 44 45 43 38 37 38 44 45 41 44 44 40 53 78 84 87 88 78 82 76 44 49 50 78 77 78 77 78 77 76 72 70 76
6 7 8 6 7 7 7 6 8 11 12 14 18 28 34 42 46 46 42 38 40 42 44 43 50 48 47 36 46 46 45 42 49 50 57 46 56 54 57 68 80 78 78 75 77 79 80 68 33
9 8 8 8 8 6 7 7 7 8 9 9 11 20 36 42 43 40 36 30 36 37 38 43 53 55 51 40 37 34 34 40 43 57 59 55 57 53 50 48 45 49 66 42 47 46 39 49 45
11 11 8 9 9 8 8 8 9 8 7 9 12 16 29 35 34 32 30 28 30 34 37 42 48 56 58 39 35 37 38 39 41 44 61 57 50 52 53 46 43 45 42 51 45 44 53 47 41
10 12 12 11 10 11 12 11 12 10 8 9 13 22 26 27 27 28 26 25 27 34 40 45 49 54 49 54 42 45 47 40 46 45 47 53 49 51 46 45 41 41 41 42 46 44 40 35 32
15 13 13 14 14 14 14 13 12 10 10 10 13 18 22 24 24 26 28 30 33 35 38 46 49 51 43 44 49 44 42 39 39 38 40 52 53 49 43 40 36 35 34 38 41 41 38 32 31
15 15 14 15 14 15 13 12 11 10 10 11 10 13 19 23 21 24 25 30 30 30 34 45 47 42 44 42 39 35 31 36 33 33 41 45 47 44 46 38 37 35 36 45 46 47 42 36 28
12 12 13 16 15 16 14 13 11 14 14 11 14 12 18 23 24 23 25 30 31 32 37 40 39 36 39 37 35 32 30 35 32 33 36 44 46 47 47 39 38 37 41 38 40 40 38 36 31
12 10 12 16 16 17 16 14 13 13 15 15 13 13 12 20 26 30 34 33 28 28 35 39 38 28 30 36 33 36 40 32 25 30 28 34 38 42 45 39 38 43 40 40 39 40 40 39 32
14 13 13 14 15 16 17 17 14 15 16 17 16 15 13 18 27 26 23 21 24 31 36 35 30 32 36 33 35 27 28 27 27 26 26 31 30 38 40 38 44 44 43 42 39 45 40 38 37
16 16 16 14 20 26 24 16 15 16 15 17 16 15 17 21 21 20 23 24 29 38 36 30 33 35 28 25 26 24 26 25 26 26 33 36 34 35 40 36 39 41 41 44 50 48 49 46 40
18 18 18 20 22 26 20 18 16 17 20 20 18 18 18 19 19 22 25 28 30 32 32 30 27 29 28 24 28 31 34 29 30 28 32 30 33 32 32 37 37 38 38 44 46 51 50 47 44
21 21 26 26 23 24 22 21 18 18 18 18 19 19 18 19 20 22 25 29 32 34 33 29 30 32 34 31 26 26 27 27 27 28 27 29 33 32 34 37 39 42 41 38 43 45 49 46 44
25 25 30 29 27 22 24 20 24 18 19 19 20 22 22 21 21 22 24 30 33 38 36 33 33 31 33 36 33 38 32 33 34 34 30 30 31 32 32 36 41 44 41 44 42 35 44 47 47
31 33 32 31 28 28 26 20 26 21 22 22 22 24 24 25 27 30 31 32 33 37 39 38 34 33 34 33 38 35 39 36 34 34 35 32 29 32 33 39 45 46 43 45 52 54 54 50 51
30 32 33 32 31 40 33 27 28 24 28 24 25 28 30 30 28 31 32 31 33 37 41 39 34 34 37 37 38 45 48 44 38 35 33 30 31 31 36 40 46 48 48 49 49 55 59 58 58
26 29 39 51 49 44 33 29 34 29 27 28 31 31 33 35 34 32 31 31 34 38 40 36 35 33 36 40 39 40 40 41 40 38 35 39 35 36 41 48 48 44 48 48 49 53 57 64 68
35 35 51 49 49 38 31 30 30 28 28 29 29 32 31 32 33 32 31 32 36 39 40 39 36 34 33 37 36 35 40 41 38 39 40 41 42 44 50 50 48 48 49 50 54 63 66 61 64
35 43 39 55 79 64 30 33 31 28 28 27 29 31 32 31 31 31 31 33 37 40 41 45 41 34 34 39 42 46 47 45 46 46 45 42 47 44 51 53 49 44 47 49 52 59 67 66 67
33 35 44 44 76 45 23 26 25 35 32 31 29 31 32 30 30 30 30 33 37 38 44 45 43 40 41 43 44 45 45 44 46 46 48 49 50 52 48 46 45 47 51 60 64 66 68 68 65
38 41 41 38 48 54 53 28 31 30 30 31 31 29 32 34 32 32 33 33 35 40 41 42 42 44 44 42 44 45 46 45 45 46 49 50 52 47 44 45 49 54 68 79 82 73 61 48 45
37 40 38 50 45 53 62 44 28 29 29 32 30 31 33 35 33 32 34 37 40 43 42 42 44 44 48 43 43 45 46 44 46 50 51 54 56 54 54 62 71 70 69 60 54 55 45 41 39

GFSSGP_sfc_rhum_009.txt.gz
RH
35 13 8 10 11 10 16 19 16 21 23 23 20 21 22 26 35 53 27 26 32 37 42 50 89 84 86 84 82 82 81 81 81 79 76 78 81 82 80 76 74 71 70 69 70 71 76 78 78
9 7 8 8 11 12 15 14 17 19 20 18 17 17 20 29 30 32 27 26 32 35 37 52 93 92 84 86 84 84 82 81 80 80 80 79 81 82 80 76 75 74 74 74 74 75 77 80 83
17 8 8 8 9 11 16 14 19 20 19 19 20 17 21 27 24 24 24 27 31 34 40 64 92 92 93 92 88 83 84 84 85 84 82 82 82 81 78 77 77 76 76 76 76 76 76 76 78
9 6 7 9 14 13 14 18 18 19 21 19 15 24 28 21 24 24 24 23 26 28 40 78 91 90 87 85 85 87 89 88 84 83 81 81 81 77 76 80 80 79 79 77 78 82 85 86 83
7 6 9 10 14 14 15 15 16 18 18 18 16 20 32 32 25 23 22 20 23 22 30 48 88 87 82 79 80 83 86 87 85 84 84 83 82 81 81 82 81 78 76 76 78 81 83 85 87
7 7 10 13 15 16 17 17 16 14 15 15 17 21 31 29 26 25 22 21 20 25 28 33 75 80 80 80 80 84 85 84 85 87 86 84 84 82 81 79 78 78 77 77 76 78 80 81 81
8 10 10 13 15 15 15 13 13 12 14 14 13 21 30 26 26 25 22 19 20 24 27 30 33 59 82 83 84 86 85 84 84 84 86 87 85 82 80 76 75 76 76 76 75 75 76 78 78
6 7 10 10 12 11 9 9 10 11 13 11 12 17 28 28 27 24 22 20 21 24 27 32 32 30 36 50 84 84 84 85 82 80 80 83 84 80 74 72 75 74 74 75 73 72 73 72 75
5 7 8 7 7 7 5 6 6 8 12 12 13 18 18 28 29 27 25 22 25 26 32 32 31 32 33 30 52 79 83 84 85 77 80 74 46 43 49 77 74 74 73 73 73 72 70 69 73
6 7 7 5 5 5 5 5 6 9 11 9 13 14 21 28 30 30 25 25 28 33 30 35 38 37 35 25 35 36 32 35 40 42 46 38 48 46 47 64 77 76 74 74 75 73 74 77 32
6 7 6 6 5 4 4 5 5 6 8 8 11 15 22 26 27 28 26 24 26 28 27 32 46 43 37 32 30 27 28 32 35 42 46 45 45 44 41 41 39 42 61 36 46 43 37 44 41
8 6 6 6 6 5 5 5 6 6 6 7 8 14 21 26 27 26 25 22 24 26 25 32 42 43 42 32 28 30 29 33 33 38 44 46 41 44 45 38 37 38 33 40 39 38 43 43 36
7 7 6 6 6 6 8 7 9 6 6 7 9 14 20 23 22 22 21 21 22 24 25 30 40 38 34 38 35 37 38 34 40 35 38 40 42 46 40 40 35 34 32 33 36 36 36 36 34
8 8 9 9 10 10 11 9 10 8 7 7 9 12 15 18 18 20 21 22 23 22 26 30 35 36 31 33 38 38 36 32 31 30 34 40 42 45 39 37 34 32 30 31 35 38 40 37 32
10 11 11 11 11 11 10 10 10 8 8 8 8 9 13 15 15 18 21 23 23 22 23 30 34 33 32 34 33 29 26 29 28 28 34 36 38 42 44 38 37 34 35 42 37 37 36 36 33
10 11 12 11 11 12 12 13 8 9 10 9 10 9 11 14 15 16 18 20 20 21 23 26 29 30 31 31 29 26 26 29 28 28 30 34 36 38 43 37 38 38 42 37 37 35 36 35 34
11 11 10 14 11 12 12 12 10 10 10 11 10 10 10 12 15 17 18 19 20 20 23 27 34 25 27 32 27 30 31 28 22 25 24 32 32 35 39 37 40 47 42 44 42 40 42 39 38
11 9 9 10 12 10 10 11 11 11 12 12 10 10 10 11 16 19 24 21 20 22 24 26 30 23 27 27 31 24 24 25 24 24 26 31 30 37 38 36 42 42 38 40 41 50 43 46 44
11 11 11 11 14 16 16 12 13 14 12 14 13 13 12 12 18 22 22 22 25 31 29 27 29 33 26 24 25 24 25 25 26 25 30 33 32 32 35 31 33 37 36 42 48 47 50 47 46
14 14 14 14 15 18 15 14 14 14 16 14 14 16 18 19 19 21 24 25 28 31 32 29 27 27 24 24 27 31 33 28 28 27 30 28 33 32 31 36 34 35 35 46 49 52 48 46 47
17 18 22 20 16 15 17 16 15 15 15 15 16 15 16 18 20 22 25 30 32 32 30 28 29 30 31 29 26 27 26 27 26 28 29 29 33 29 30 32 36 42 42 40 48 47 50 47 46
21 20 22 21 20 19 15 18 18 16 17 18 19 19 19 18 19 20 24 28 34 35 33 31 30 29 30 35 32 37 33 34 34 33 31 30 30 28 27 30 36 44 43 47 45 36 52 53 50
26 25 24 23 21 20 17 15 22 16 18 20 21 22 22 22 24 25 27 28 30 35 37 34 31 30 32 32 36 37 40 38 35 35 37 39 31 32 29 32 39 45 42 46 52 52 52 49 48
23 25 24 25 23 33 23 20 22 20 22 22 23 25 25 24 26 26 27 27 31 34 36 35 31 29 33 36 37 41 48 47 37 37 36 32 34 31 34 33 42 46 46 47 47 49 54 62 60
20 24 38 46 42 41 24 20 29 23 21 22 26 25 27 29 28 27 26 27 31 33 34 34 30 30 30 35 37 36 36 40 40 38 37 39 35 36 42 45 48 44 45 46 55 68 69 71 83
26 28 48 43 42 32 22 22 25 22 23 23 23 25 26 28 28 28 28 29 29 32 32 36 35 33 29 33 36 37 39 39 38 40 41 42 41 42 44 47 47 47 55 57 56 56 60 63 66
28 34 28 46 57 55 21 21 23 23 24 23 24 25 26 25 25 26 26 27 30 32 34 38 38 34 34 37 39 42 42 43 44 45 45 42 45 40 44 46 46 53 53 62 63 67 71 68 70
28 25 41 38 65 40 19 18 24 30 26 25 23 24 24 24 24 26 26 28 30 30 34 36 38 35 35 38 40 39 42 43 43 43 45 45 45 46 46 52 54 59 67 66 70 65 62 66 65
30 32 33 27 38 48 43 26 24 22 24 25 26 23 25 25 26 27 28 31 32 31 34 35 38 40 39 37 39 43 42 42 41 41 42 50 59 51 56 60 62 63 64 69 75 67 62 64 63
29 30 30 48 39 43 52 41 22 23 22 24 24 24 26 28 28 28 28 33 36 38 36 36 41 41 38 37 37 37 37 37 38 42 51 57 52 55 56 58 60 62 66 69 67 67 59 50 49

GFSSGP_sfc_rhum_012.txt.gz
RH
41 15 14 12 18 16 15 18 17 21 22 18 19 19 28 35 45 60 29 33 46 53 58 68 88 88 87 86 86 86 85 84 83 82 84 82 82 80 78 77 76 75 74 73 74 75 76 78 82
15 14 11 15 21 19 17 16 20 21 18 14 16 16 26 36 32 31 33 34 42 49 58 73 92 89 89 89 88 86 84 82 84 82 80 81 82 82 79 76 78 76 74 73 73 74 74 75 77
29 13 12 16 15 15 19 18 24 18 15 16 19 24 24 29 27 29 31 34 45 56 68 82 94 94 93 93 91 90 90 89 87 85 82 82 81 76 76 78 80 78 75 74 75 78 82 84 84
15 11 10 14 14 14 15 19 18 18 18 16 19 29 25 22 27 26 27 30 35 54 68 88 92 90 89 90 90 91 90 89 87 86 82 81 78 77 80 82 81 76 74 74 76 78 82 85 88
15 13 14 14 16 15 16 15 15 21 18 16 16 33 35 27 22 22 24 25 31 47 60 70 89 88 86 84 86 89 90 89 88 85 84 81 80 80 81 80 78 76 74 74 74 77 79 81 84
14 12 15 15 17 16 16 14 16 23 16 14 18 30 35 24 23 22 21 23 24 40 53 56 83 86 86 86 88 89 89 89 89 87 84 82 81 81 79 78 77 76 76 75 74 74 75 78 79
16 15 15 15 17 18 18 13 12 12 14 14 14 29 31 26 25 21 21 22 28 28 35 45 58 76 83 86 88 89 88 88 87 86 86 85 84 83 78 76 74 73 72 72 70 71 72 71 75
10 10 12 13 14 14 11 11 10 11 14 10 12 22 31 30 25 23 22 23 26 33 33 43 53 54 65 76 85 88 88 87 86 84 84 86 85 84 78 78 74 71 70 69 68 69 69 68 69
6 10 12 10 10 8 6 7 7 8 12 12 16 16 26 27 25 26 26 25 29 32 42 45 40 48 58 61 70 84 86 86 85 83 83 83 72 74 72 74 76 71 71 70 71 71 72 74 76
7 10 8 5 6 6 5 5 6 9 11 12 18 21 29 29 29 29 28 29 33 41 39 46 51 52 47 29 65 66 58 70 70 64 66 65 64 62 56 68 79 79 78 79 80 80 81 81 65
7 8 6 5 6 4 5 5 5 8 9 10 15 18 29 31 32 30 26 26 32 35 37 48 59 55 51 50 48 51 52 56 61 69 62 66 63 70 69 76 77 86 85 76 80 72 77 61 63
8 6 6 5 5 4 4 5 5 6 8 8 11 16 26 27 28 29 28 26 29 33 34 48 54 57 56 52 52 54 54 55 60 60 64 69 70 72 68 67 61 63 59 60 62 63 63 62 52
7 6 6 5 5 6 7 7 8 7 7 8 11 17 24 26 27 27 26 32 28 34 36 45 53 55 59 53 63 63 62 62 61 58 64 65 66 72 68 66 63 62 59 59 61 59 59 60 54
7 6 6 6 8 8 8 8 10 8 6 7 10 16 20 24 24 25 27 29 32 30 36 48 50 54 48 53 55 61 58 59 58 61 57 58 66 69 68 66 64 62 60 62 61 59 62 62 57
8 10 9 10 10 10 9 12 10 9 8 8 8 11 16 19 18 23 26 29 29 27 30 45 54 52 50 50 54 55 49 45 50 54 55 52 56 62 65 67 66 64 66 64 63 62 59 61 54
9 11 13 11 10 11 11 14 9 8 9 10 10 10 11 16 17 20 24 24 26 32 56 74 38 48 50 52 48 46 51 53 50 54 53 55 52 53 64 66 68 68 70 68 68 67 65 64 62
12 13 13 14 10 11 12 14 9 9 10 11 11 11 11 12 17 20 22 25 25 29 34 38 48 49 46 49 45 48 49 50 48 48 54 54 51 59 64 65 69 70 68 70 67 62 69 69 66
15 11 9 10 11 10 10 11 10 11 11 13 11 11 12 13 15 20 22 26 28 32 34 39 51 53 46 49 48 44 45 46 47 51 50 50 52 54 60 59 65 67 63 64 67 72 65 67 64
10 10 10 12 13 14 12 12 12 13 12 16 18 16 16 23 26 27 32 35 37 40 41 46 61 50 44 44 48 50 54 48 50 46 46 47 52 52 57 58 58 60 61 66 65 66 66 64 66
12 13 13 12 13 13 14 13 14 14 16 15 16 18 23 24 25 28 36 46 46 43 48 40 38 44 43 40 48 50 50 49 47 49 53 50 54 51 45 56 57 58 64 66 69 73 69 66 66
15 16 23 20 16 14 15 16 17 16 16 17 18 19 20 24 28 30 35 42 48 47 47 38 40 42 48 50 41 45 48 49 48 47 48 50 52 47 49 54 59 63 65 67 68 70 71 71 67
20 21 21 19 19 20 14 21 19 18 20 20 21 23 23 22 23 27 34 42 47 50 50 42 41 39 42 48 49 52 50 52 54 58 52 49 49 53 47 50 60 65 69 69 72 56 74 75 73
24 22 21 21 22 21 17 21 22 18 21 23 25 25 27 28 29 31 34 36 40 49 52 47 41 38 42 45 50 56 61 61 58 61 60 56 56 54 49 53 62 69 65 68 73 73 77 79 83
21 23 22 23 26 48 20 22 36 25 25 24 25 27 28 28 30 30 31 34 39 48 50 48 42 38 40 46 53 54 56 58 59 61 59 55 54 54 57 54 66 68 70 70 76 79 82 85 84
20 26 52 67 60 58 26 22 33 24 21 23 27 28 31 33 34 32 31 32 38 43 46 45 44 41 42 44 47 55 60 62 60 60 60 59 57 60 58 62 67 67 68 66 67 76 76 76 82
24 26 67 58 65 48 20 22 31 25 24 24 24 26 28 30 33 33 34 35 36 40 43 45 44 42 42 49 51 57 59 58 58 62 60 63 63 64 63 64 64 68 74 74 73 75 76 76 79
29 36 24 48 68 68 25 28 26 24 25 23 24 24 26 27 29 31 33 35 37 40 45 50 46 44 47 53 58 59 59 62 63 61 63 64 65 53 62 67 68 73 77 75 74 77 76 76 83
25 22 42 54 72 51 25 23 39 31 28 28 23 25 25 25 26 31 31 37 39 42 49 56 52 49 48 50 58 54 56 57 58 60 62 66 65 61 63 68 71 72 75 77 77 86 83 80 79
28 30 32 28 46 60 56 33 22 24 25 26 27 25 29 30 30 32 33 36 39 43 46 54 50 47 48 49 51 55 54 54 56 58 64 64 67 64 59 61 58 59 65 80 86 84 82 74 72
24 28 29 70 50 65 66 43 23 24 24 28 27 26 30 34 35 35 38 42 41 43 44 45 48 48 48 49 49 49 51 50 54 58 59 61 62 63 58 56 55 56 58 63 70 72 66 66 66

GFSSGP_sfc_rhum_015.txt.gz
RH
46 23 26 22 26 26 24 22 27 29 25 28 33 43 50 48 53 76 64 64 74 81 80 82 91 89 90 90 89 89 87 85 83 84 86 84 82 80 78 78 79 76 73 73 74 73 73 74 76
36 19 21 20 28 29 27 27 29 23 23 28 29 36 43 50 41 54 68 63 68 76 84 85 92 91 92 91 89 87 85 84 86 85 84 84 82 78 78 80 83 77 73 73 74 75 78 81 84
32 19 20 23 25 26 35 28 25 22 21 27 34 33 38 45 41 51 62 68 78 89 90 90 95 95 94 92 92 92 92 91 89 87 83 80 77 77 80 83 84 76 73 73 73 75 78 83 86
22 20 14 18 18 18 30 26 23 24 22 27 31 45 34 33 40 49 60 71 84 96 95 95 94 94 93 93 93 91 90 91 91 89 82 79 78 80 83 80 78 73 71 71 71 73 77 82 85
28 22 21 21 21 28 22 21 26 28 28 38 38 42 40 35 35 40 60 66 85 94 92 89 92 91 90 90 89 91 92 92 90 88 85 81 80 80 80 79 77 75 73 72 71 71 73 77 82
21 17 22 23 26 25 22 22 23 28 24 36 42 40 40 32 32 34 47 61 68 80 88 82 87 89 90 90 90 91 91 92 92 90 87 82 82 83 79 78 76 73 72 70 69 70 70 74 78
22 23 23 18 20 25 18 14 17 25 20 38 37 44 42 34 32 32 37 52 59 66 75 86 83 82 88 90 91 90 90 89 88 87 88 86 87 86 82 78 74 71 69 68 67 70 75 76 77
17 18 16 16 20 20 14 12 14 16 18 19 33 47 50 36 32 31 37 42 44 52 59 72 79 80 89 90 90 89 88 86 84 84 87 86 85 84 82 80 78 74 71 68 68 73 76 77 75
11 14 15 13 16 15 11 10 8 15 17 28 30 36 38 34 30 33 38 41 47 46 53 64 67 75 80 85 82 87 86 86 84 84 85 88 88 85 80 83 80 76 76 76 76 77 78 79 79
11 16 13 9 10 10 8 8 9 15 16 34 42 35 34 34 34 36 37 42 49 51 56 53 55 72 71 50 80 88 81 87 87 85 87 87 87 89 73 79 79 76 78 79 80 82 82 82 84
12 12 9 7 7 7 8 8 9 16 18 26 48 42 39 40 39 37 35 41 44 45 55 59 58 56 55 59 78 84 84 90 86 78 69 67 76 79 78 90 87 93 86 89 82 82 87 80 74
11 9 8 8 7 7 7 7 9 12 12 17 32 39 40 42 42 37 36 38 45 49 58 60 58 56 60 64 68 67 62 72 76 73 69 74 82 73 75 69 64 69 72 78 72 71 64 65 60
10 9 7 7 8 11 9 9 12 12 12 16 26 34 38 38 40 37 35 34 39 48 60 61 60 61 57 63 71 66 70 65 72 69 64 69 77 71 72 73 70 67 68 66 64 62 61 65 61
11 9 8 7 11 11 13 14 12 12 10 18 24 34 34 34 34 36 38 32 42 39 56 62 66 68 56 65 67 66 65 63 70 66 66 64 71 72 74 71 72 69 71 73 71 68 70 72 70
12 12 11 12 13 14 14 16 14 13 10 12 17 29 33 33 34 35 35 37 37 41 74 81 86 77 70 58 56 63 48 52 63 61 59 60 63 64 72 77 77 75 79 73 74 73 73 70 64
13 18 20 15 15 14 14 20 15 12 12 13 14 14 20 31 30 32 32 34 44 68 72 79 77 84 85 75 60 56 57 56 59 64 70 61 64 65 69 70 74 78 77 75 77 79 78 78 78
22 22 23 18 14 18 19 20 15 13 13 14 15 15 15 22 29 32 32 34 40 55 72 80 87 82 74 68 57 59 49 48 52 62 61 60 60 62 65 64 67 74 72 73 74 76 81 77 75
23 20 24 22 20 15 16 19 20 18 16 19 20 20 19 32 38 39 44 46 52 57 66 78 83 79 64 56 55 57 57 58 60 58 56 59 58 57 59 59 64 62 66 72 72 73 70 76 74
17 18 23 23 17 22 21 20 22 23 21 24 30 35 37 40 47 48 48 54 60 61 53 62 72 59 54 55 55 56 57 55 56 55 57 54 52 50 55 61 63 66 68 70 70 76 79 77 76
18 22 29 22 17 19 22 25 24 23 27 28 32 37 40 43 45 45 53 60 65 59 61 54 48 58 51 58 59 58 59 57 56 55 56 58 56 53 46 61 66 66 73 72 74 74 79 80 78
26 32 31 29 22 23 25 29 27 25 25 24 29 33 36 42 46 48 51 60 57 58 52 48 47 48 52 53 52 53 54 56 59 63 55 56 58 55 56 60 68 71 77 77 76 81 80 85 82
35 30 29 27 31 35 24 42 32 29 31 31 34 39 40 41 45 47 52 58 58 60 53 49 49 47 46 51 59 59 69 70 70 69 69 60 60 58 58 61 69 74 77 76 82 72 87 89 92
36 34 32 33 36 39 31 41 36 30 36 36 38 38 42 45 46 50 54 54 57 55 55 52 49 47 50 52 57 66 62 65 65 70 67 63 64 60 58 61 68 74 80 86 88 89 90 93 92
25 34 36 37 42 66 39 40 54 46 36 38 39 39 41 43 45 45 50 51 55 56 54 52 49 50 50 51 52 57 65 66 69 69 71 68 68 69 64 65 73 78 81 82 86 87 84 81 82
32 46 76 78 81 78 48 42 58 42 32 35 42 46 45 44 46 45 48 53 56 58 57 55 54 48 52 57 64 65 65 66 71 70 71 68 72 70 75 76 81 84 85 85 85 86 79 79 82
39 43 80 76 87 71 29 47 49 35 33 34 36 40 42 42 41 41 40 41 47 43 53 55 50 52 58 62 64 66 65 68 70 64 66 69 77 79 74 75 77 82 83 85 84 81 87 81 88
40 48 36 66 78 84 50 44 36 32 32 31 32 34 38 41 41 38 46 48 51 55 64 63 60 58 60 59 63 61 65 64 63 60 70 81 78 58 71 77 79 79 80 82 84 93 93 92 93
33 30 59 70 71 66 46 55 64 47 50 41 32 37 38 41 46 49 50 54 56 57 66 64 60 57 56 59 59 56 58 59 61 74 73 72 71 71 74 75 74 74 75 79 88 93 93 93 91
42 47 45 44 68 79 84 56 40 47 48 47 41 41 49 51 49 52 55 54 54 55 59 63 61 57 58 56 58 56 57 63 67 70 70 66 70 67 69 68 70 68 72 76 84 87 87 89 85
34 42 45 79 65 84 86 63 34 46 40 42 40 45 48 46 51 55 55 55 56 57 60 57 58 60 55 54 54 54 58 57 62 64 63 65 62 67 67 60 56 58 58 62 62 64 69 69 70

GFSSGP_sfc_rhum_018.txt.gz
RH
41 23 25 21 22 26 30 29 31 40 47 44 41 49 58 57 60 87 80 79 85 90 86 85 92 92 92 91 91 91 88 84 84 84 84 83 81 78 78 79 78 75 74 72 72 72 74 77 80
31 18 22 22 28 33 32 30 40 38 37 37 38 44 56 81 77 89 88 78 82 86 86 87 94 92 92 91 90 88 84 84 84 84 84 80 77 77 80 82 80 75 71 69 69 69 73 77 81
28 19 19 23 29 29 40 29 29 31 32 34 44 40 44 71 73 76 77 79 85 92 89 91 95 94 92 92 93 92 91 91 90 86 79 77 77 80 82 80 77 72 68 67 66 67 72 77 80
24 19 16 19 23 18 34 29 32 35 36 35 40 51 41 48 60 76 81 86 95 98 97 97 96 96 95 94 92 91 92 92 90 86 79 78 79 79 78 78 74 71 68 65 64 65 70 75 79
28 20 22 24 28 30 26 25 26 37 44 41 37 47 50 72 72 79 84 86 98 99 97 96 96 95 94 90 88 92 93 92 90 87 84 80 78 78 78 77 75 72 69 66 66 66 68 72 77
21 17 21 36 41 24 23 25 27 42 40 39 43 45 47 65 70 74 78 90 90 96 96 90 91 92 92 91 91 92 92 91 90 89 86 80 81 80 77 76 74 69 66 66 65 69 70 73 76
21 23 23 21 25 25 18 19 29 44 47 46 36 46 42 49 61 66 75 85 84 92 95 96 93 90 91 91 90 90 90 90 90 89 87 86 87 85 82 77 73 69 66 64 67 72 74 76 76
19 18 19 18 32 29 12 14 18 26 35 35 33 48 44 40 47 60 66 70 84 84 88 94 94 93 95 94 90 90 88 87 88 86 85 86 85 85 84 81 78 75 71 70 73 74 76 76 79
15 18 18 15 17 16 11 16 17 26 36 42 38 36 32 37 43 52 60 64 67 68 75 85 85 88 92 92 86 88 87 85 86 84 85 90 91 88 85 85 79 78 77 77 78 80 82 81 81
17 18 15 11 11 12 9 11 12 33 49 51 47 38 35 34 39 46 49 56 60 65 72 71 78 79 83 61 88 90 84 89 89 88 90 92 93 93 81 85 83 82 79 80 82 84 85 86 89
17 12 9 8 10 8 9 10 13 32 52 45 43 41 36 36 38 40 44 48 53 57 60 66 73 75 72 67 88 91 93 95 91 90 92 91 87 94 90 93 92 93 82 91 83 84 80 82 83
12 11 8 10 9 8 9 9 10 18 25 39 35 35 40 39 38 37 40 48 56 56 57 59 67 72 68 70 81 86 86 89 92 85 78 81 82 79 79 75 73 75 75 75 76 76 67 66 67
11 9 8 11 11 12 9 9 10 16 30 38 37 37 38 37 37 35 34 41 53 59 57 64 64 65 68 70 74 75 76 81 81 74 71 79 76 74 78 75 78 76 78 76 75 74 70 72 70
12 8 8 9 12 13 11 16 13 15 30 45 41 43 41 40 38 36 41 38 49 57 70 77 77 73 61 67 64 69 68 76 74 71 70 70 79 76 76 78 77 79 83 82 80 79 80 79 76
11 12 12 15 15 16 14 18 17 12 27 46 44 43 43 41 39 38 38 37 45 58 65 71 77 76 71 61 63 63 56 71 68 68 71 69 73 75 74 74 69 75 79 77 78 79 78 76 69
14 18 21 18 16 18 13 18 16 14 22 38 42 40 39 40 38 37 48 46 47 74 63 80 74 82 77 70 65 58 55 66 67 73 73 69 68 66 67 62 65 74 71 73 74 76 74 74 76
23 22 24 22 17 18 21 21 18 14 15 21 27 33 42 49 53 56 57 68 74 71 75 91 92 82 78 75 66 67 61 62 67 69 71 64 62 61 63 62 68 69 70 74 74 72 80 78 76
24 24 48 23 22 23 21 25 23 19 17 23 33 52 61 60 61 58 60 69 80 85 92 94 93 92 78 65 65 73 69 68 66 65 62 58 60 60 63 68 69 72 70 73 75 74 74 79 80
19 27 26 26 21 20 23 30 30 34 44 48 56 60 58 57 53 56 59 57 60 64 71 79 79 70 65 60 65 69 69 62 64 65 62 62 59 58 59 65 70 74 77 78 75 79 78 80 83
27 28 30 24 19 20 26 32 36 36 41 48 52 55 56 56 53 57 64 75 78 73 77 65 56 58 58 63 79 76 69 70 70 62 56 58 60 57 53 70 73 77 77 74 76 79 88 89 83
38 34 36 31 28 24 28 32 38 35 38 39 46 51 53 57 59 58 60 72 66 63 57 51 52 52 57 59 58 60 60 66 70 68 66 62 58 60 65 68 73 76 78 84 87 90 90 94 90
45 35 32 32 35 28 28 48 39 44 45 44 47 55 58 55 58 55 59 63 66 65 59 55 51 50 51 56 59 63 71 67 74 75 69 65 66 65 63 69 74 80 88 88 90 82 93 92 95
38 36 37 37 41 45 38 45 43 42 47 49 53 54 59 60 56 60 55 57 58 57 57 57 53 53 56 58 62 70 66 75 75 73 68 64 68 67 68 73 80 85 88 89 94 93 92 95 94
30 40 44 46 50 66 45 49 52 50 45 45 47 51 54 58 60 59 58 58 60 63 58 59 56 56 57 64 65 66 71 72 73 69 69 66 69 78 76 74 83 85 87 88 91 91 89 92 92
34 54 75 77 80 74 50 56 60 44 38 44 52 52 50 52 57 61 58 61 64 67 63 61 60 65 68 71 70 70 71 71 64 61 62 69 74 80 77 80 86 88 87 85 86 87 81 82 80
42 49 77 71 77 68 44 60 54 46 42 43 44 47 48 50 52 57 56 60 61 64 66 65 61 62 64 69 66 68 69 66 61 59 65 76 80 76 74 79 81 83 82 85 88 92 93 91 95
44 48 42 66 81 81 62 51 42 38 41 38 38 40 47 53 59 57 59 64 66 66 68 63 62 63 62 63 65 66 70 62 62 67 79 81 76 65 72 79 80 81 80 84 88 93 92 93 94
29 34 58 72 66 67 53 62 61 55 50 40 44 52 56 57 59 58 58 59 64 71 71 67 62 59 62 63 62 59 63 67 69 79 78 74 72 72 74 70 73 73 73 76 82 89 88 93 92
43 49 50 52 73 77 83 59 44 54 52 50 55 56 58 59 62 62 58 58 61 63 60 62 62 62 64 59 61 61 61 67 76 74 73 72 74 71 64 69 63 59 59 63 69 71 75 72 73
37 47 52 77 58 86 85 64 45 50 48 50 53 52 58 58 58 59 60 61 60 58 53 53 56 58 61 61 62 60 63 63 67 70 71 75 66 64 67 60 53 57 58 61 63 69 70 71 72

GFSSGP_sfc_rhum_021.txt.gz
RH
38 23 25 21 23 27 31 24 38 44 56 55 52 55 71 85 73 86 84 84 89 93 90 91 93 92 92 91 90 90 85 81 84 84 84 81 78 78 80 80 76 69 66 65 65 65 68 71 76
27 22 21 25 28 30 37 35 48 45 46 40 44 55 65 90 87 93 94 88 88 90 90 93 94 93 92 92 91 89 83 83 84 82 81 77 77 80 79 77 73 68 64 61 61 62 66 69 73
31 21 18 25 35 31 38 39 44 44 39 38 44 41 58 91 85 85 86 86 88 92 91 94 95 94 93 92 91 90 90 90 86 82 77 78 79 77 75 75 72 67 62 59 58 61 66 70 72
25 18 17 20 24 22 34 35 38 42 39 40 45 56 46 68 83 85 83 88 95 99 97 97 96 96 94 94 92 92 93 93 89 84 78 78 76 73 73 74 70 65 62 59 60 62 66 70 73
25 20 22 24 24 27 31 38 37 42 44 41 41 52 67 86 84 92 94 88 87 92 97 98 98 96 94 89 89 92 93 92 90 85 82 78 75 74 73 73 70 67 64 62 64 67 69 71 76
21 19 22 48 44 33 34 32 45 45 43 48 55 52 65 87 90 93 92 88 87 93 98 96 96 96 94 92 92 93 92 92 90 88 85 79 79 78 73 71 69 66 65 65 66 71 72 75 78
22 21 23 31 49 30 32 25 45 42 44 44 42 58 74 84 89 89 96 97 97 97 98 98 97 94 93 92 92 92 90 90 89 89 88 86 86 83 80 76 70 67 66 68 71 74 76 78 80
22 19 23 22 47 44 22 19 38 44 50 36 37 62 83 61 81 86 92 96 96 96 96 96 96 96 95 95 91 90 89 88 88 88 86 85 84 84 83 81 78 74 70 72 75 79 81 82 83
20 22 22 36 40 49 33 22 26 38 42 47 45 46 58 62 73 79 86 89 89 86 94 95 96 95 95 93 88 88 86 86 88 86 84 89 91 90 87 85 82 78 77 77 80 82 84 85 84
20 23 18 15 28 40 20 32 36 46 56 52 46 43 51 62 66 63 66 74 79 82 82 94 93 91 92 72 90 93 87 92 91 90 91 94 93 93 85 86 85 84 84 84 84 82 84 83 90
19 16 11 9 12 11 13 22 29 51 60 43 44 48 51 59 54 51 55 57 61 64 71 77 81 83 85 76 95 95 96 95 93 91 93 94 92 95 96 97 94 90 73 85 78 77 74 73 80
16 11 9 9 11 10 12 13 32 31 46 41 36 41 46 49 51 51 54 57 62 65 66 69 78 78 80 84 89 92 93 94 95 93 87 93 87 86 81 81 82 81 84 79 79 81 77 77 75
12 11 12 11 10 9 9 10 12 18 45 38 35 38 41 42 45 45 46 50 56 62 63 67 78 79 73 79 88 90 89 88 90 86 82 84 79 80 82 82 80 80 83 84 81 80 79 77 74
12 12 11 12 13 11 12 17 17 27 51 42 37 36 36 37 38 41 46 51 56 56 61 75 76 75 74 79 80 83 83 83 84 80 79 79 80 83 80 76 72 73 80 79 79 80 77 74 74
11 12 13 16 16 16 17 20 18 26 49 45 40 38 40 37 39 37 43 48 55 57 63 80 86 82 76 71 74 75 74 80 78 74 75 78 79 77 73 68 67 76 74 74 74 72 72 72 68
17 20 19 17 18 19 14 15 20 34 52 52 48 49 53 52 53 53 48 45 56 73 83 93 86 85 78 77 76 63 69 76 78 80 78 72 68 66 67 67 74 76 74 76 74 76 73 74 76
25 24 26 23 18 20 19 22 22 25 52 56 49 63 64 70 71 74 76 65 80 84 91 96 94 92 89 80 77 69 71 72 74 74 70 66 65 66 71 75 78 75 76 80 77 75 80 75 74
25 26 47 23 22 23 26 24 30 22 37 38 78 73 71 73 76 80 92 93 95 92 93 92 93 90 77 74 69 74 63 66 69 69 65 62 63 65 63 69 76 78 76 74 74 76 76 78 83
23 30 29 29 23 24 34 44 47 58 67 76 73 70 70 70 68 70 73 79 79 87 87 89 88 78 61 74 67 71 78 80 83 64 56 57 58 60 69 73 74 78 76 79 78 84 84 87 89
28 29 32 29 24 30 42 46 51 55 67 69 67 67 67 69 67 69 72 78 87 84 80 65 61 60 60 66 82 85 83 75 68 59 58 58 62 61 62 72 75 78 81 84 87 92 94 95 93
41 38 37 31 28 32 37 46 47 44 53 57 63 65 62 65 70 75 74 78 73 63 58 56 56 57 63 73 71 66 65 73 74 71 66 66 66 66 72 75 79 85 89 92 94 94 92 96 94
43 39 35 33 31 46 35 64 46 54 57 61 65 74 70 71 72 68 66 64 62 62 60 54 54 55 58 61 60 62 64 70 78 76 71 72 71 73 71 76 79 89 91 93 95 88 95 95 96
41 40 37 39 43 45 42 55 53 54 65 65 70 68 69 67 61 64 63 61 62 64 64 63 59 58 60 63 67 74 70 80 80 74 70 67 69 73 68 72 77 83 86 89 90 93 93 95 96
34 42 49 57 54 66 52 52 61 60 57 59 58 60 59 65 68 66 63 60 64 70 71 71 68 73 69 71 71 73 76 74 71 64 62 65 74 78 74 78 84 85 86 86 89 90 88 91 93
40 53 74 77 80 75 51 60 59 46 47 53 58 58 62 71 73 74 63 61 62 70 72 69 67 68 69 70 70 70 71 67 63 64 68 79 83 83 75 83 86 87 86 86 89 90 91 92 95
46 50 78 65 77 69 51 69 58 52 50 49 52 57 58 62 60 64 62 66 69 71 70 68 63 64 69 67 67 69 68 70 69 68 75 80 83 78 76 80 86 86 86 88 90 93 94 93 95
48 52 48 74 82 82 69 58 49 54 54 51 53 54 60 64 67 67 70 72 72 72 72 70 66 65 65 67 69 72 74 74 74 74 78 85 80 70 73 79 81 77 82 79 84 93 91 93 94
36 39 59 72 65 67 61 68 68 56 55 52 58 65 67 66 67 67 68 72 70 66 68 66 66 63 64 68 68 65 71 75 77 78 82 83 79 74 72 70 75 73 66 67 73 77 79 86 81
45 51 56 59 75 76 82 69 49 54 54 58 67 66 69 71 69 65 61 63 64 58 55 60 62 62 67 67 69 71 69 69 76 83 81 80 75 72 70 71 74 61 63 63 67 68 75 71 74
44 52 52 72 60 88 84 64 47 59 55 58 60 62 70 70 65 62 57 56 56 56 56 56 57 53 60 67 66 64 67 69 72 78 77 80 80 75 73 69 65 61 61 62 65 68 70 72 73

GFSSGP_sfc_rhum_024.txt.gz
RH
66 33 31 25 22 25 29 23 41 47 59 60 61 64 81 92 72 81 86 91 92 97 96 94 94 93 92 90 90 88 80 82 82 82 80 77 78 79 76 71 70 65 61 60 61 62 63 66 70
30 25 25 27 27 26 40 28 51 59 60 59 61 66 69 93 83 94 94 89 88 95 97 96 95 93 92 92 90 84 80 82 82 80 77 78 78 74 72 71 72 64 59 57 57 58 60 64 69
36 24 21 29 33 27 33 46 50 51 44 42 45 48 71 92 86 87 91 90 90 96 97 97 96 94 93 92 90 89 89 88 84 79 77 77 73 70 70 71 73 63 57 58 59 59 62 67 72
28 21 20 24 29 25 30 48 46 44 44 52 52 58 64 78 85 89 87 93 96 99 98 97 96 95 93 92 92 92 92 91 87 82 78 74 70 68 70 71 68 62 61 62 64 65 68 72 78
24 22 24 38 36 31 27 41 43 44 45 48 46 60 76 91 89 91 92 91 84 94 98 97 97 95 93 90 90 93 93 91 88 85 81 75 70 70 70 71 68 66 64 65 66 69 72 77 81
23 20 26 64 51 38 43 45 44 46 44 45 60 63 82 89 88 84 83 83 83 88 90 97 96 95 94 92 94 94 92 91 90 88 84 77 77 76 72 70 70 68 68 69 71 74 76 80 82
24 22 25 48 48 38 33 39 48 54 49 52 49 85 94 91 88 87 82 85 88 90 97 97 99 96 95 94 93 93 91 90 89 88 86 86 84 81 77 75 73 71 73 76 77 81 83 82 83
24 21 26 39 48 59 36 31 44 46 51 40 55 95 93 83 92 96 93 95 96 99 99 99 98 97 96 95 92 91 90 88 87 87 86 85 83 81 80 79 77 78 77 78 79 84 85 86 87
20 23 26 45 49 49 34 24 31 42 43 49 48 73 77 89 94 94 96 93 97 94 96 97 97 96 95 93 91 89 87 87 86 86 84 88 90 89 86 84 84 84 83 84 83 83 85 83 81
25 26 21 29 39 41 30 29 42 46 53 49 60 70 82 89 96 98 98 98 94 94 93 95 95 95 94 79 93 94 90 93 93 92 92 93 93 93 87 89 86 81 73 76 74 73 71 72 81
25 22 16 15 32 32 32 35 40 50 58 49 64 77 84 89 85 83 80 79 75 80 82 91 93 94 94 84 97 97 98 97 95 92 93 94 93 96 97 93 83 83 75 78 74 74 76 77 80
21 15 10 10 21 22 21 22 52 44 43 42 56 67 75 78 67 63 63 64 67 73 71 82 86 86 90 89 96 95 97 97 97 95 92 96 92 88 84 85 84 85 85 79 81 83 79 74 70
18 13 12 11 11 15 13 18 42 32 50 42 52 56 62 62 55 49 48 54 60 69 72 77 83 84 82 86 92 94 95 95 93 94 87 88 85 86 85 84 80 82 80 82 80 76 71 71 69
15 11 13 14 11 11 11 15 16 33 49 46 50 53 56 55 52 57 60 63 64 66 72 81 86 85 77 81 88 90 92 91 93 87 84 83 84 86 79 73 74 78 78 80 79 75 73 71 70
12 12 13 15 17 18 16 19 21 49 46 46 47 50 53 51 53 52 54 60 65 68 78 89 90 86 84 78 83 89 76 83 81 80 83 81 80 73 70 74 78 79 78 74 73 71 70 68 65
17 20 18 17 19 20 14 18 18 60 49 55 51 51 56 67 66 66 52 54 69 86 93 93 91 90 91 89 89 74 88 81 82 80 77 71 70 70 75 76 79 78 76 76 75 75 74 73 74
24 24 26 24 21 21 17 24 32 44 59 61 65 64 70 76 82 92 90 61 91 95 92 96 96 92 92 94 84 78 79 77 71 72 71 71 69 70 72 71 76 71 75 78 75 74 78 75 79
23 26 48 27 34 24 28 54 56 58 54 73 84 82 84 84 85 89 95 97 97 95 94 97 95 95 95 85 83 83 71 73 76 69 73 61 61 65 65 66 75 77 75 80 82 81 82 82 88
23 27 29 32 26 46 62 69 71 78 80 84 87 86 86 86 83 87 93 95 94 94 92 93 96 95 70 84 79 82 78 85 91 69 60 60 62 65 72 76 78 82 83 86 87 90 91 90 94
29 30 33 35 30 46 61 60 63 68 83 83 82 86 86 87 86 82 90 94 94 93 92 88 83 75 70 81 88 87 90 75 64 64 70 68 69 70 69 77 81 85 83 84 91 92 93 93 95
42 34 40 35 39 42 49 57 61 58 70 70 72 74 76 83 88 88 89 92 82 70 64 60 62 63 71 78 80 77 78 78 74 72 71 72 71 71 72 76 82 86 87 88 94 94 94 97 94
42 42 36 34 42 48 43 64 62 68 74 74 76 78 77 79 80 73 69 63 66 67 64 63 62 64 64 65 65 68 75 81 86 77 75 74 71 72 70 76 78 83 87 90 93 89 95 94 97
44 39 39 42 46 46 48 64 62 67 78 76 79 76 83 83 71 65 63 63 70 70 72 68 64 65 68 71 75 80 86 84 78 74 68 66 68 69 72 76 79 82 86 88 88 91 91 95 95
38 46 51 59 57 64 58 54 61 72 67 70 71 74 76 81 77 65 65 65 72 69 67 73 68 73 72 73 73 77 76 75 73 72 67 72 80 86 77 78 84 85 86 86 89 89 89 92 94
47 54 76 77 80 76 57 59 52 53 58 62 67 70 73 75 78 76 68 68 67 70 75 73 73 73 71 69 70 72 72 71 68 69 73 76 84 89 79 85 87 88 86 86 89 91 91 92 94
49 53 78 65 84 73 57 69 59 55 50 55 62 66 67 71 76 75 67 69 75 73 72 68 64 69 69 69 70 72 70 74 74 73 77 81 85 85 77 81 87 86 85 87 89 92 93 90 93
52 56 52 75 84 83 73 61 59 62 63 62 62 62 66 71 71 72 74 76 76 74 73 71 68 67 67 68 72 74 79 80 82 81 83 86 87 75 75 74 76 76 78 87 84 93 88 85 89
43 45 58 73 63 62 68 70 73 70 66 63 64 68 75 74 74 76 77 75 73 71 70 66 65 64 68 75 76 72 73 72 75 82 84 86 85 78 72 73 77 80 82 75 75 76 76 84 88
48 54 61 63 75 75 82 72 59 60 57 61 68 73 73 73 74 74 74 71 63 60 55 58 60 58 64 74 74 72 70 71 75 83 86 83 80 76 80 80 82 81 68 69 71 71 72 81 76
48 53 51 68 56 88 84 64 54 58 59 61 71 69 76 74 71 68 65 61 58 56 56 55 54 53 70 68 60 62 70 78 78 77 79 81 82 83 84 76 75 75 77 70 66 72 70 74 72

GFSSGP_sfc_rhum_027.txt.gz
RH
38 22 21 20 16 18 18 17 33 49 59 58 55 51 63 72 73 76 78 75 78 78 72 69 90 92 90 89 89 88 83 81 80 80 77 78 77 72 69 70 70 65 58 57 56 56 59 62 65
20 20 19 20 18 17 21 27 48 57 60 47 47 54 60 75 80 92 82 78 78 78 73 66 92 92 91 91 86 85 81 81 80 77 78 76 71 69 68 68 70 65 58 56 55 57 63 66 70
27 17 16 19 22 17 30 46 49 49 46 42 51 53 80 82 84 86 85 81 76 78 73 74 94 94 92 90 86 87 86 86 82 80 76 70 67 67 68 70 70 68 62 61 59 62 66 70 74
20 16 14 16 18 18 27 44 51 69 58 46 39 59 74 79 80 81 82 76 74 77 72 88 96 94 92 91 91 90 90 88 85 82 75 67 64 65 67 73 72 66 63 64 64 67 71 78 80
17 16 18 26 33 27 18 40 40 43 58 51 41 52 82 84 84 84 83 72 75 76 75 77 96 95 93 90 90 92 91 89 86 84 79 73 66 67 69 75 74 71 67 68 69 72 76 81 83
18 16 21 38 38 35 40 41 42 49 48 41 51 64 84 86 85 82 75 70 71 79 80 77 92 95 94 93 94 93 92 90 89 87 82 76 75 76 72 73 75 73 72 74 76 78 80 82 81
19 17 30 38 37 34 37 43 44 44 44 48 51 76 93 92 81 78 73 70 79 81 80 81 75 83 95 95 94 92 90 90 90 88 86 84 82 80 79 78 75 74 78 78 79 81 84 81 82
17 17 22 41 46 41 32 40 37 36 43 43 54 74 90 85 84 80 79 80 80 85 85 86 82 76 78 76 94 90 90 88 88 87 86 83 81 81 83 79 81 81 80 80 80 82 78 76 79
16 18 18 40 53 38 32 32 35 36 41 42 43 66 68 84 88 91 94 93 92 91 90 88 83 82 79 74 74 84 87 86 87 82 84 82 62 64 64 83 86 78 77 79 77 73 75 75 72
18 20 17 26 33 44 49 30 38 42 44 42 71 84 84 92 90 91 92 90 89 90 84 80 82 77 75 61 68 71 67 64 67 67 71 64 72 70 68 76 78 74 74 73 72 72 70 56 40
20 19 16 24 28 22 29 33 39 44 45 38 63 89 90 88 87 86 84 83 79 74 71 72 77 76 71 64 66 63 64 66 68 73 72 73 73 73 65 56 54 58 63 48 49 45 42 49 44
16 15 12 19 26 29 27 30 45 36 34 35 57 74 82 86 85 85 80 69 62 61 59 64 70 74 74 64 65 67 65 68 68 70 77 74 68 66 62 56 54 56 50 54 50 46 51 47 43
17 13 11 10 24 26 21 30 39 34 38 43 64 72 74 73 70 64 55 50 52 54 57 63 68 70 70 71 72 71 73 71 73 72 72 65 61 66 58 56 50 50 48 47 46 44 42 42 40
16 10 11 11 14 15 18 16 26 26 41 53 63 64 63 62 57 48 44 45 50 52 56 68 69 68 64 68 73 83 87 86 76 78 68 68 64 65 54 54 50 48 46 46 44 44 41 40 40
11 12 12 14 12 13 13 14 16 37 41 53 58 54 54 50 44 42 40 46 48 48 60 73 78 72 69 71 80 84 72 80 89 84 78 68 58 59 58 52 50 50 51 52 46 44 41 38 36
14 17 14 13 14 15 11 16 28 45 41 48 49 47 47 46 43 47 46 44 50 59 69 77 78 80 88 86 93 88 83 90 85 84 66 60 58 56 59 66 56 55 58 55 45 44 41 42 44
22 16 19 16 18 15 14 21 39 40 44 48 47 49 51 58 65 80 73 49 65 69 77 82 82 86 88 94 95 84 78 78 64 58 50 56 68 61 60 67 54 54 51 52 49 47 52 46 45
20 19 19 18 20 26 34 48 52 48 48 58 59 62 62 65 75 85 86 81 80 76 80 83 85 95 94 86 83 76 75 63 56 58 73 67 53 54 50 51 56 50 49 52 52 54 46 50 53
19 20 20 22 26 45 58 58 59 61 58 63 64 64 66 71 81 84 88 86 83 82 82 84 95 97 88 77 74 70 65 71 76 54 50 51 50 51 53 48 51 53 52 57 57 51 54 44 55
24 25 27 31 33 42 50 56 60 60 66 63 63 65 68 80 82 87 84 81 78 81 82 80 76 67 66 52 54 58 62 57 48 49 53 51 53 49 48 54 54 56 47 56 60 63 53 51 60
32 30 30 30 36 37 40 44 58 60 64 67 68 68 75 82 84 83 82 79 78 75 74 71 65 53 51 58 57 57 55 51 47 47 47 49 51 50 54 56 55 56 53 53 60 63 65 54 55
38 30 30 30 30 31 34 26 48 64 70 71 70 73 76 78 75 74 73 61 55 56 56 57 59 52 56 56 51 56 50 52 57 52 48 46 55 54 52 54 57 59 55 56 54 54 61 58 52
38 34 32 32 33 33 34 30 46 64 71 69 66 65 67 68 60 58 49 48 50 54 55 54 52 51 54 56 58 56 59 55 51 51 54 54 55 55 55 56 59 58 53 58 57 59 58 54 55
40 39 42 45 42 40 41 35 38 61 59 61 58 59 62 58 54 50 50 50 49 53 57 61 56 56 56 55 58 59 59 56 50 51 50 50 52 56 60 57 60 60 59 60 57 62 65 60 59
36 40 52 56 60 52 47 47 36 40 48 52 56 55 57 55 53 52 50 49 54 59 60 58 52 53 53 55 54 55 55 54 52 52 52 56 53 55 61 62 65 60 62 61 59 63 64 62 54
40 40 61 54 64 54 45 51 37 45 39 47 48 51 56 56 55 55 54 54 56 57 54 53 50 50 50 51 51 56 58 54 54 57 56 57 58 59 62 61 61 62 62 61 63 62 61 64 57
40 41 43 62 69 61 45 44 39 50 49 52 52 55 55 53 56 56 57 58 58 55 57 56 50 49 51 54 56 58 57 58 56 58 61 61 65 59 64 61 59 59 62 62 64 60 60 57 55
35 39 47 52 58 46 41 50 41 56 52 53 55 55 53 53 57 59 57 60 56 54 57 56 51 48 51 55 57 55 54 51 53 58 60 62 62 62 62 60 60 60 64 62 58 53 50 56 53
41 45 53 48 55 49 53 34 45 46 49 53 51 51 54 57 58 59 57 55 49 47 46 47 45 44 51 53 55 49 47 51 52 54 56 57 60 52 58 61 62 62 60 56 62 57 52 54 54
36 41 44 53 47 66 60 41 38 47 48 49 50 54 57 58 58 56 55 49 45 44 44 44 41 46 51 43 40 43 48 50 49 51 52 55 55 58 62 63 60 61 63 61 62 53 52 54 55

GFSSGP_sfc_rhum_033.txt.gz
RH
38 16 7 8 14 13 14 12 10 28 34 33 30 31 35 45 54 56 41 53 47 45 46 58 92 90 89 86 85 85 81 80 79 79 75 71 68 67 68 70 68 63 57 61 60 61 63 65 66
9 5 6 9 13 13 10 9 32 49 59 32 37 37 40 48 50 54 56 50 50 46 49 55 93 91 90 90 88 85 79 77 77 74 69 68 65 64 64 67 72 66 61 60 58 58 60 63 65
10 5 9 10 11 11 11 21 34 31 30 33 37 34 39 53 56 58 48 55 55 55 50 63 92 92 92 90 88 86 84 82 80 74 66 64 63 64 67 72 72 69 63 62 62 62 62 64 71
8 5 8 12 13 9 11 27 26 25 26 29 38 43 49 52 49 55 57 57 55 52 55 89 94 91 90 90 88 85 86 86 80 74 68 62 63 67 70 76 74 68 65 65 66 69 71 75 77
7 7 9 12 12 9 10 28 25 42 32 30 31 74 63 50 59 57 54 54 60 63 69 68 92 89 90 88 86 87 88 87 81 76 72 67 66 68 72 74 73 71 70 69 71 73 74 76 76
7 6 11 12 11 14 13 29 28 29 26 24 25 36 55 51 46 53 63 72 69 86 78 65 88 88 92 92 91 90 90 89 84 80 75 70 71 74 72 73 74 74 74 74 70 73 74 75 75
9 8 10 10 23 26 16 21 34 30 25 23 22 32 51 52 51 84 85 91 91 84 79 66 66 85 94 92 91 90 90 89 87 85 82 81 82 82 78 77 76 75 76 71 70 73 74 73 73
6 8 11 12 25 36 20 22 25 23 34 33 26 59 43 56 67 60 81 87 87 77 72 72 68 54 65 66 91 90 89 88 87 83 82 81 78 76 78 80 75 77 73 71 69 70 69 71 70
8 11 11 22 40 33 24 28 23 20 25 28 32 28 41 57 61 68 79 80 74 72 69 58 43 46 49 54 71 83 88 87 84 77 79 76 40 46 49 77 79 75 73 69 65 63 60 63 68
8 9 9 18 41 62 22 20 24 28 31 32 38 35 52 63 66 69 72 73 72 75 49 39 46 47 42 33 47 45 48 45 47 46 49 45 46 52 45 60 78 72 68 67 60 60 52 46 28
9 11 12 10 15 17 22 23 20 24 32 26 30 52 70 68 62 61 60 62 68 58 40 41 50 50 39 40 36 37 45 44 46 51 54 58 47 51 48 41 40 42 57 36 37 33 30 37 34
11 9 10 12 18 23 18 18 19 30 53 24 34 59 67 66 57 55 56 55 49 40 42 43 48 48 45 36 35 38 42 47 52 57 57 54 56 53 46 35 36 41 33 39 34 32 38 37 35
12 10 9 16 18 19 20 22 25 31 25 21 43 52 52 46 43 42 36 34 34 36 37 39 43 47 46 45 44 47 51 56 60 63 58 48 51 63 46 43 36 38 35 34 37 36 38 40 35
10 9 12 14 16 15 19 18 32 21 19 28 38 39 35 34 30 30 28 31 31 31 35 39 40 45 46 49 58 68 65 56 55 61 66 74 74 72 47 46 38 36 41 40 39 42 37 35 34
10 11 12 13 13 17 16 17 18 21 20 27 27 25 23 23 22 24 25 28 29 31 37 41 48 48 52 58 53 53 52 56 67 67 74 70 68 69 63 58 63 51 50 46 40 40 37 36 31
10 10 14 11 10 14 16 18 21 20 21 25 25 24 22 21 20 20 22 24 27 32 39 45 44 50 58 57 51 58 83 77 72 77 69 63 70 75 72 74 60 47 44 42 44 39 36 34 33
11 15 13 12 9 12 19 28 20 21 22 25 26 28 26 25 22 21 21 22 27 34 42 50 53 62 70 84 90 87 81 77 68 64 65 66 58 57 53 46 45 45 40 42 40 39 39 36 32
16 15 12 11 11 12 12 12 16 20 18 23 25 27 29 29 27 31 29 23 25 35 48 52 57 65 74 78 85 70 68 62 59 51 47 50 43 45 42 43 48 43 38 39 42 45 36 33 30
13 12 10 10 12 11 12 10 14 19 20 21 24 28 30 32 32 39 34 30 33 43 50 54 67 68 63 56 54 54 55 46 48 43 45 45 41 41 43 38 41 42 37 43 44 40 40 35 34
11 11 14 12 13 15 10 11 16 18 19 19 22 26 28 30 36 42 43 42 43 48 58 62 63 62 54 45 45 43 42 42 38 38 43 40 41 39 38 44 39 39 38 39 39 45 42 37 36
12 13 15 14 14 14 15 15 20 22 22 23 22 22 25 29 37 44 45 46 51 54 59 65 60 58 48 42 39 39 41 42 39 40 39 38 40 37 38 39 40 39 36 34 41 42 44 42 39
17 16 14 16 18 19 16 19 18 21 26 30 30 29 27 29 34 41 45 54 56 62 62 53 49 43 40 39 38 41 35 36 36 36 36 38 40 38 35 34 38 41 40 43 41 34 44 44 43
22 17 17 16 15 21 16 14 42 22 23 27 28 31 32 36 38 42 47 50 47 49 48 42 41 36 38 39 37 40 38 40 39 39 43 42 40 39 34 35 40 43 40 42 45 47 46 41 42
18 19 20 18 17 27 15 17 16 21 19 23 28 32 36 38 40 40 39 38 38 44 46 44 37 35 38 39 41 42 46 40 37 36 35 28 28 28 31 31 37 41 41 43 43 45 47 46 50
17 20 33 37 32 32 19 18 15 12 19 19 32 36 38 39 38 34 32 30 35 42 45 43 35 36 39 42 43 44 41 37 34 31 30 33 31 30 32 36 41 38 40 40 41 52 54 50 54
20 18 34 34 30 23 20 19 16 17 19 21 28 32 37 37 34 29 28 29 33 38 39 37 36 37 40 40 37 34 30 30 30 32 33 30 31 32 36 36 36 38 38 38 41 48 53 54 58
20 24 20 28 48 40 16 13 20 22 22 23 29 31 36 33 30 28 28 30 34 37 40 40 37 35 37 35 32 35 34 36 33 31 32 31 34 27 30 34 34 34 35 37 40 45 54 54 57
23 18 27 26 41 34 15 14 17 24 22 25 29 32 33 30 28 29 28 33 34 37 41 41 37 34 33 32 34 35 41 33 28 31 32 32 32 32 34 35 34 37 38 38 40 42 49 55 63
25 24 22 22 28 34 26 17 14 17 20 24 26 29 30 31 28 30 31 33 36 37 41 40 33 30 30 31 36 41 33 29 30 30 30 30 34 34 33 34 37 38 37 37 46 49 54 52 51
21 22 22 36 28 33 43 22 14 17 17 22 24 26 28 28 26 28 32 35 37 39 38 35 31 28 30 32 34 36 29 26 28 29 29 32 35 35 34 36 37 37 40 48 53 51 46 50 51

GFSSGP_sfc_rhum_036.txt.gz
RH
42 27 18 11 14 16 18 14 25 46 44 38 30 38 52 54 64 84 53 51 52 54 68 74 90 89 88 89 88 86 84 79 78 76 77 75 73 71 74 72 70 69 60 58 58 59 60 61 62
13 12 8 8 15 17 14 37 37 46 51 55 45 34 42 66 50 63 62 53 50 53 57 72 92 90 90 89 86 84 79 78 77 75 73 72 68 68 70 73 73 70 61 59 58 58 59 61 64
21 9 8 11 13 16 13 31 33 31 35 54 49 36 46 68 62 62 60 52 48 51 59 80 92 92 90 88 87 85 84 81 77 74 68 65 68 69 70 76 75 71 63 62 62 63 65 69 76
9 9 7 14 15 12 22 33 27 27 30 31 34 45 41 50 54 57 68 52 55 52 68 91 94 92 90 90 88 88 85 80 77 73 71 67 70 72 74 78 76 69 66 66 66 68 72 80 79
8 9 9 11 12 10 9 26 28 40 42 31 32 55 47 53 57 62 64 64 66 82 84 81 94 91 90 88 87 89 85 81 78 75 75 74 71 72 75 80 79 75 70 68 69 71 74 79 79
9 8 13 13 11 19 14 32 43 54 55 23 34 38 44 54 67 61 79 81 79 88 86 83 89 92 91 91 90 91 88 84 80 78 77 76 77 79 79 80 80 78 75 72 72 74 75 76 71
10 10 10 10 11 14 19 30 41 37 33 25 21 50 56 47 64 85 86 96 98 94 90 88 84 93 92 91 92 92 89 87 85 84 84 84 84 83 82 82 79 76 74 72 71 73 73 73 69
7 9 11 10 10 27 27 46 59 64 41 32 43 30 49 63 81 76 86 94 96 94 96 90 84 79 82 80 91 90 89 87 84 82 81 81 78 80 81 78 80 78 72 70 65 63 62 65 65
7 11 13 11 19 50 44 43 33 22 26 31 42 48 48 59 68 79 93 92 97 94 92 83 67 70 74 79 83 88 88 85 82 80 80 82 62 70 64 80 81 77 73 66 59 61 56 69 64
9 13 11 13 51 63 68 90 22 23 23 28 42 76 60 57 59 84 93 96 96 94 92 69 68 65 65 49 73 73 70 68 66 64 74 81 76 70 58 73 77 74 68 63 58 56 61 54 47
9 12 9 11 38 50 61 39 21 24 27 27 38 67 70 65 71 71 78 73 80 92 76 58 69 66 52 53 56 58 62 65 70 73 75 71 71 73 82 76 66 76 72 65 58 53 51 52 56
10 8 8 12 38 41 44 25 30 30 36 31 45 62 65 60 61 67 74 74 61 48 52 56 60 64 63 53 53 63 68 81 82 73 69 78 82 75 68 68 64 62 62 56 60 60 61 57 53
10 10 9 19 19 20 18 29 48 37 24 40 56 64 57 46 52 51 56 54 44 48 54 55 60 63 64 66 68 72 82 75 82 76 74 80 80 84 73 68 65 63 62 62 60 60 55 57 51
10 11 17 18 14 16 29 41 54 50 42 45 52 51 44 37 40 41 38 40 43 43 50 56 56 65 60 73 78 84 87 85 79 81 85 82 84 83 77 70 69 66 64 63 59 61 63 58 54
11 12 14 14 15 21 45 39 29 22 30 37 38 37 34 31 33 32 34 39 37 38 44 52 60 61 72 71 69 69 70 72 84 84 86 80 79 79 78 76 76 69 65 65 63 61 58 55 47
13 14 18 15 12 18 32 48 22 19 24 28 28 28 28 28 27 28 32 31 34 38 44 53 52 69 68 69 66 69 83 83 83 86 81 82 76 76 80 76 74 68 69 64 66 63 60 58 56
15 18 14 16 10 16 29 39 20 17 22 25 26 24 23 23 24 27 29 30 34 40 48 55 65 74 78 88 92 92 88 80 76 78 76 73 70 70 71 70 72 69 66 65 61 65 65 58 53
23 18 17 14 10 11 23 23 18 17 21 26 25 26 26 25 22 24 26 29 33 43 54 57 70 82 87 86 84 76 76 73 74 71 66 62 60 63 65 68 69 66 62 65 67 68 62 61 59
17 17 14 11 9 12 23 17 14 15 18 26 28 30 31 29 31 33 36 37 40 56 59 64 77 81 78 72 74 70 73 65 66 60 61 61 59 55 58 64 62 60 64 63 60 62 64 65 62
16 16 19 11 10 11 12 11 12 14 16 20 26 30 32 34 33 42 41 40 48 60 64 73 72 77 67 59 63 65 63 62 59 59 61 57 57 54 56 60 60 61 61 60 63 65 69 65 65
15 15 19 16 11 10 14 11 15 15 14 15 22 24 28 33 40 45 44 50 56 64 67 74 73 71 66 64 54 56 58 63 59 60 61 58 54 51 51 54 56 60 61 64 67 66 65 68 65
17 19 17 15 17 20 20 27 19 18 19 18 20 24 27 29 34 42 48 50 54 71 73 71 71 62 61 56 54 59 54 56 56 57 57 56 55 52 47 48 53 60 64 66 68 53 69 67 70
21 22 20 14 17 29 21 28 30 22 26 24 28 26 26 27 32 39 46 49 59 74 81 73 66 59 55 51 54 59 58 62 60 62 64 59 64 58 52 52 57 61 65 67 69 70 71 69 72
19 20 18 19 21 57 39 34 30 29 27 28 25 28 29 31 38 38 44 52 57 63 66 72 66 48 50 52 53 58 61 58 61 60 61 56 52 51 52 51 62 63 64 66 68 67 67 71 74
16 19 42 77 74 51 16 19 29 25 25 62 29 28 31 38 40 42 48 52 53 56 58 56 46 45 50 55 56 60 60 54 50 49 50 51 50 53 58 58 59 60 59 61 64 67 71 73 75
40 17 48 67 93 46 19 22 18 18 17 19 25 31 36 40 44 44 43 43 46 53 54 51 43 44 48 56 56 55 50 50 46 54 52 50 51 55 52 51 54 54 55 58 61 68 70 71 77
19 23 19 35 56 66 22 12 22 19 19 19 30 33 39 39 40 38 36 39 44 48 55 55 44 42 49 54 52 53 50 51 56 52 47 51 50 39 52 54 54 54 56 60 62 65 68 71 78
20 17 34 31 52 47 20 16 34 25 21 22 30 36 37 38 36 34 32 39 41 45 52 56 51 45 49 47 53 49 53 50 51 44 47 46 47 46 50 53 52 54 57 58 62 68 67 75 82
24 25 21 18 34 58 55 26 17 17 18 23 27 33 36 38 35 33 32 34 39 44 48 52 48 43 44 43 49 55 51 51 45 46 46 44 46 47 48 48 51 52 54 60 66 69 67 67 69
19 24 22 62 37 44 65 40 15 18 16 21 23 26 32 34 33 31 32 36 39 44 46 50 49 43 42 43 50 52 48 47 46 44 43 46 47 49 48 49 49 51 53 58 60 68 63 64 66

GFSSGP_sfc_rhum_039.txt.gz
RH
68 53 46 30 25 33 35 27 50 64 64 60 46 63 78 73 78 94 77 72 83 88 86 85 90 90 90 89 88 86 84 79 77 77 76 76 74 74 75 74 71 68 59 57 56 55 57 59 63
29 22 32 22 23 35 28 31 66 64 63 62 53 55 68 84 72 79 77 75 77 86 85 86 91 90 89 88 86 83 79 77 77 75 73 76 73 72 75 76 73 69 62 59 58 59 61 63 69
38 23 20 18 23 25 28 47 49 53 54 54 52 49 63 79 71 74 67 68 80 79 85 89 92 90 88 87 86 84 81 79 76 74 72 71 71 71 73 77 74 70 62 60 61 62 62 69 70
22 18 15 18 22 18 17 45 42 44 42 42 48 66 58 67 69 74 70 67 68 80 88 92 91 90 89 88 86 83 81 78 76 76 76 72 73 74 75 80 76 69 65 64 63 63 65 72 71
18 20 16 20 17 19 36 46 45 48 46 42 50 63 73 67 76 80 84 82 88 91 89 85 90 90 89 89 85 83 82 80 80 80 79 77 73 74 76 82 79 73 67 66 66 67 72 73 73
26 19 25 22 14 13 48 52 55 55 49 48 55 57 71 75 90 94 94 96 94 92 86 79 83 91 90 90 87 86 84 83 82 81 80 79 80 81 80 82 81 76 71 70 70 74 74 72 70
20 21 22 16 14 43 64 57 59 64 48 41 41 67 74 76 97 98 96 98 96 91 84 87 92 91 93 92 89 88 86 85 84 85 84 83 84 84 83 83 81 76 75 70 68 67 67 66 65
15 16 18 15 14 71 61 64 59 44 51 40 57 77 84 98 88 92 92 96 98 97 94 97 94 86 88 87 89 87 86 86 85 83 82 82 82 82 79 82 82 78 72 63 58 56 61 63 58
16 21 19 15 38 58 59 58 64 52 45 46 64 73 92 80 84 93 94 93 96 96 95 95 89 82 91 90 85 85 83 82 82 80 80 82 79 79 73 80 80 75 69 60 58 53 66 69 67
17 23 18 19 48 59 64 56 59 54 46 72 69 85 83 78 78 91 95 94 94 98 98 94 86 82 80 70 86 85 73 76 76 75 79 82 82 78 64 79 78 74 68 60 61 56 61 62 55
16 17 13 23 46 54 63 61 52 57 60 49 70 97 81 80 82 87 89 87 90 90 90 86 77 73 66 71 77 76 77 79 79 80 82 85 79 81 84 84 78 81 72 64 60 60 61 53 60
18 13 12 43 46 45 47 38 39 43 41 55 60 74 69 87 86 86 90 87 91 88 80 68 70 64 60 67 70 72 82 87 89 85 79 82 92 94 84 78 72 76 75 69 67 66 59 62 57
15 12 26 38 43 46 38 44 35 40 59 68 66 68 76 79 81 76 83 84 79 82 61 61 64 53 58 70 79 79 92 90 90 89 84 85 83 87 79 80 76 71 67 64 63 64 65 62 55
12 13 22 36 36 39 42 48 37 34 46 62 59 76 75 70 69 67 70 73 65 60 60 65 64 65 74 86 88 94 94 93 94 96 92 87 89 84 80 77 73 68 65 68 68 67 63 60 55
18 19 24 32 37 41 34 43 56 38 47 62 65 64 59 63 63 62 53 52 57 58 59 66 69 78 81 81 75 78 81 84 92 96 90 83 84 85 82 81 72 70 70 68 68 64 63 63 54
19 21 26 18 34 40 31 52 40 36 52 58 58 51 47 53 52 45 46 46 50 54 57 63 62 78 78 79 86 90 93 95 97 97 88 79 79 79 80 79 74 72 76 74 71 70 66 62 60
27 27 25 21 28 32 32 42 33 41 46 49 48 44 43 42 42 41 40 42 48 51 56 69 80 83 88 95 93 93 93 96 96 93 86 79 76 74 74 78 77 74 74 74 66 70 67 64 64
34 26 24 22 29 31 32 35 32 27 34 37 40 37 37 38 40 38 40 41 52 65 59 81 82 91 95 95 97 97 96 96 91 89 82 71 70 70 77 77 70 70 72 72 70 68 68 66 69
28 30 24 20 15 31 28 26 28 26 36 42 41 41 39 34 34 35 39 49 57 68 70 82 89 96 94 97 98 94 95 90 84 77 68 69 68 64 75 78 74 69 69 66 67 69 66 69 73
32 32 25 20 15 23 26 27 24 22 27 38 42 44 40 48 46 46 45 57 59 68 81 86 85 90 85 87 87 81 79 78 74 71 73 68 65 66 62 66 67 64 64 68 68 69 74 72 70
28 28 22 25 18 17 20 28 22 21 23 28 36 36 37 45 51 51 49 68 69 69 84 86 89 86 80 80 75 78 75 80 77 77 73 65 64 59 60 61 62 62 66 66 69 69 71 72 71
26 22 25 26 26 29 27 42 33 25 23 22 33 38 41 42 51 51 55 70 75 87 83 80 83 81 76 80 64 68 76 72 73 75 73 68 59 56 53 57 61 66 70 68 73 64 74 75 75
29 26 28 30 28 36 33 39 38 25 30 26 29 34 42 42 53 54 59 64 81 86 88 85 83 74 79 76 57 66 76 74 80 77 72 68 64 60 57 64 69 68 73 74 75 76 81 80 79
26 30 31 42 44 54 28 36 46 30 23 29 27 38 37 44 50 54 58 77 84 83 84 84 87 85 77 58 66 71 71 71 67 69 71 70 73 67 62 59 64 66 65 66 70 71 74 76 79
31 34 62 71 82 74 36 41 37 29 25 29 30 34 42 55 55 64 72 72 80 88 89 90 87 73 60 58 68 70 68 67 66 67 64 61 56 61 60 53 59 62 63 64 66 70 74 80 83
32 39 66 76 91 74 42 43 32 26 30 37 34 38 50 56 58 63 64 70 77 80 83 79 65 54 64 67 69 63 52 56 63 61 59 58 59 56 51 56 56 57 58 62 64 70 72 76 88
35 38 34 66 77 87 52 26 30 26 34 43 54 48 58 62 63 64 64 66 70 65 72 61 57 59 65 69 62 54 60 61 61 57 54 58 53 46 54 54 52 54 58 60 62 76 78 81 84
28 27 46 55 58 62 40 35 49 37 33 46 50 57 58 58 57 56 55 63 65 65 69 66 63 64 67 62 60 58 58 56 59 53 49 50 49 49 52 51 53 55 58 63 71 75 75 79 84
34 37 34 35 56 66 77 45 30 29 32 34 52 50 56 56 55 52 51 55 58 62 64 63 64 65 60 54 57 65 61 67 48 48 50 49 51 48 51 49 52 53 58 62 66 70 69 74 75
25 38 46 71 46 60 79 55 23 23 27 30 30 44 52 49 50 46 46 52 55 59 63 64 64 56 46 51 58 59 57 49 48 49 48 50 49 51 48 51 52 56 60 58 63 68 68 68 71

GFSSGP_sfc_rhum_042.txt.gz
RH
78 63 47 32 26 35 39 30 44 71 71 64 62 75 85 88 82 83 81 80 86 85 88 89 91 90 90 89 88 84 80 74 74 76 77 76 76 73 74 72 69 66 59 57 57 56 58 60 66
38 34 34 28 24 32 28 26 60 67 61 63 54 63 83 88 79 91 93 87 78 85 85 88 91 90 90 88 85 81 75 74 76 75 76 77 75 71 72 74 71 68 61 57 54 54 57 63 69
38 26 27 21 28 24 27 46 62 62 61 58 58 61 74 84 76 80 86 85 80 86 84 88 91 90 88 86 83 80 79 78 79 78 75 73 70 69 70 75 72 69 60 56 53 56 61 68 68
25 21 21 19 21 21 18 43 59 60 51 48 61 76 71 69 79 73 82 83 84 86 86 93 91 90 88 86 83 81 79 79 80 79 77 72 70 71 73 78 74 68 60 57 57 58 67 69 70
24 24 25 21 18 17 55 56 61 53 51 53 55 73 82 79 83 77 85 82 90 91 90 90 94 90 87 83 82 81 81 82 82 81 80 76 71 71 74 79 76 72 64 61 61 66 66 70 71
30 24 27 25 22 63 63 67 63 60 51 56 59 68 85 94 93 94 90 91 89 88 85 86 83 89 86 83 83 83 84 84 84 82 80 79 79 79 79 78 77 75 73 72 71 72 68 68 70
30 28 24 22 18 58 61 67 70 66 51 56 54 84 90 92 97 97 97 96 94 96 98 96 87 90 90 88 87 86 85 85 84 83 82 83 84 83 82 79 76 74 70 70 69 68 66 68 71
24 20 24 21 16 50 60 64 59 51 46 48 65 89 94 92 94 91 93 97 96 96 95 95 92 91 93 88 89 88 88 86 84 82 83 85 84 84 84 82 78 73 67 64 66 69 70 69 70
18 22 23 22 35 60 60 63 58 52 50 79 86 87 88 88 88 92 96 97 97 96 95 97 94 94 96 91 84 86 86 84 84 82 83 86 84 80 80 81 77 72 64 59 63 71 72 70 72
19 22 21 16 50 59 65 67 53 52 65 88 91 88 90 87 87 92 94 97 96 97 97 96 94 93 88 71 85 84 74 79 80 80 82 85 88 83 74 81 77 72 65 63 70 71 67 64 60
20 19 16 27 47 58 64 64 59 56 56 68 91 91 90 91 84 88 92 89 92 90 91 93 89 86 83 78 93 93 90 87 84 82 84 83 84 83 87 90 85 83 75 64 61 60 62 61 63
18 14 14 36 55 62 65 54 50 56 49 50 76 84 82 93 89 77 81 86 89 93 92 90 79 80 80 80 86 86 85 89 86 84 82 92 93 91 75 80 80 83 73 69 68 72 66 60 54
16 15 28 47 49 48 40 45 42 71 69 68 75 72 79 86 84 74 70 75 79 82 81 86 75 72 74 80 84 85 93 92 96 90 85 89 92 90 87 84 76 72 69 69 71 65 61 61 53
22 22 39 43 43 42 42 49 34 52 73 80 76 76 77 80 84 84 79 84 81 76 81 76 72 66 71 84 89 93 97 98 97 94 89 87 92 88 76 75 71 70 73 73 68 65 64 63 56
24 32 43 44 54 38 34 38 43 54 69 70 74 78 79 78 80 86 82 78 72 76 68 70 69 75 88 89 87 94 89 94 98 97 92 87 83 84 80 77 74 76 74 69 68 67 63 60 51
24 29 47 41 39 33 31 37 38 41 64 72 69 72 74 75 75 77 78 70 69 62 60 65 70 85 84 86 89 89 95 98 98 94 88 84 81 80 80 77 76 80 80 75 73 69 64 63 62
31 29 30 40 32 31 37 38 33 39 59 74 73 70 71 72 68 66 66 65 62 59 61 82 84 84 92 95 95 96 95 98 98 92 86 83 80 77 77 78 81 79 76 76 68 73 66 66 66
33 30 29 27 37 37 36 37 35 49 50 67 72 61 58 65 66 59 56 58 60 68 60 85 81 92 96 95 97 98 98 97 96 92 84 78 76 75 81 78 78 78 77 75 76 69 71 70 70
33 33 35 31 27 36 34 30 33 38 55 64 61 52 52 57 53 51 51 55 61 67 79 84 89 95 90 92 97 98 98 96 94 90 78 73 75 77 80 81 76 73 69 71 71 70 67 72 74
34 34 37 27 23 33 35 30 31 33 43 47 50 45 46 51 48 49 50 56 62 72 83 84 84 91 88 89 96 93 95 91 87 83 76 76 74 73 69 73 69 67 70 69 69 69 76 77 75
33 40 36 31 26 22 32 30 29 27 29 43 40 37 37 42 46 49 57 62 63 80 88 86 87 87 87 89 90 87 82 84 84 85 84 76 73 67 67 68 70 68 69 70 71 72 74 74 76
35 29 28 27 34 34 28 37 36 27 26 39 46 45 43 41 46 48 60 64 69 87 86 86 87 88 85 88 86 78 72 76 82 83 79 76 70 65 62 64 68 72 76 74 79 73 80 82 82
33 34 32 33 38 41 38 37 35 32 29 28 41 47 44 46 47 53 68 62 67 90 93 92 90 84 75 83 76 73 78 79 83 83 78 75 68 67 66 70 74 75 77 74 66 66 76 85 83
30 35 41 52 47 50 41 40 40 34 24 24 31 40 49 49 52 51 72 72 81 92 93 94 87 80 79 83 72 75 74 80 81 84 78 79 80 71 67 62 66 66 66 66 71 74 73 80 86
32 40 60 65 75 60 45 46 39 32 30 29 34 40 47 51 65 77 90 86 93 93 94 92 84 85 86 84 73 77 75 75 74 74 82 76 70 67 61 60 61 61 60 63 64 66 70 76 87
47 41 65 55 78 63 48 55 41 29 28 27 35 37 52 60 64 74 82 89 88 91 92 89 86 87 78 74 75 73 68 72 74 64 61 64 64 62 58 59 56 56 60 62 68 72 80 86 88
41 45 40 68 82 84 60 37 32 33 40 46 53 48 67 76 74 73 78 85 89 90 93 92 88 73 78 83 71 59 65 58 60 61 65 62 60 54 59 55 56 56 57 64 72 78 80 83 86
33 30 45 58 62 72 47 40 48 42 43 52 55 55 68 71 75 79 80 86 87 84 84 80 75 71 75 65 63 64 64 64 66 68 64 58 58 57 55 52 52 52 57 70 71 74 73 76 85
40 39 40 43 62 64 73 44 30 38 42 50 54 56 67 70 69 70 73 76 75 77 73 72 64 67 62 55 69 71 76 75 62 64 62 61 58 55 56 58 52 52 60 66 67 71 72 74 75
40 41 43 68 45 67 79 50 33 32 36 49 55 56 65 62 62 60 65 68 70 69 68 67 66 71 64 56 59 63 60 51 56 57 54 58 54 58 60 56 54 56 62 63 64 70 70 70 72

GFSSGP_sfc_rhum_045.txt.gz
RH
77 62 48 31 27 36 42 32 29 68 78 69 72 81 88 98 79 81 93 87 87 88 88 91 91 90 90 87 85 81 77 70 69 73 77 78 76 74 72 70 69 66 62 58 57 58 68 73 77
48 43 29 24 26 32 27 28 28 57 62 64 60 70 89 92 78 92 91 91 84 88 87 90 91 90 89 86 83 78 72 71 74 77 75 75 71 73 74 72 70 66 63 59 56 56 61 72 80
40 26 31 27 30 27 26 28 60 66 72 70 67 73 82 93 85 84 92 87 88 87 86 90 91 90 88 84 80 77 78 79 78 79 74 73 69 70 71 74 70 65 63 58 57 58 62 73 78
27 24 23 22 25 21 22 34 58 69 61 62 71 76 79 82 86 85 84 84 90 90 88 94 92 89 86 83 81 80 82 81 80 78 76 72 68 68 73 75 71 67 63 58 59 62 69 69 75
27 26 30 31 19 23 63 69 67 58 61 69 64 90 84 93 86 88 89 86 92 94 93 91 91 88 85 83 81 82 83 82 81 79 77 75 73 71 76 77 74 71 66 63 64 70 72 71 70
31 26 31 32 22 55 68 74 66 63 65 63 69 78 94 95 90 91 94 94 90 96 92 88 88 87 84 82 83 85 86 85 83 81 78 77 77 77 77 76 75 74 72 71 69 69 69 70 71
30 33 32 26 21 25 63 69 65 56 51 57 63 94 90 93 98 97 97 97 98 97 98 95 90 85 90 88 89 90 89 87 85 83 82 82 82 79 78 75 72 73 71 70 71 71 69 68 69
28 25 27 23 19 20 62 65 67 59 54 58 66 94 94 97 96 92 92 93 96 97 96 97 90 88 92 87 90 90 89 88 87 86 86 87 87 84 80 78 73 70 69 71 70 74 71 73 76
21 28 30 22 24 34 66 64 69 68 91 88 90 88 92 93 89 93 96 96 94 95 96 94 94 95 94 89 86 88 88 88 86 86 86 88 91 88 80 77 74 70 71 73 75 74 72 70 73
22 28 22 18 30 55 67 67 60 68 90 91 92 90 92 89 93 96 96 97 94 94 96 96 92 90 94 75 89 89 82 86 86 86 86 90 89 80 82 80 78 74 72 77 74 72 70 59 58
23 23 17 17 38 58 68 70 65 64 77 85 94 88 92 88 83 90 92 92 92 90 94 96 88 96 90 79 93 90 88 86 84 86 87 87 85 84 90 88 82 82 68 64 63 61 60 56 57
25 17 16 30 56 61 63 58 54 64 59 68 84 80 83 85 88 88 94 93 91 89 88 93 90 93 90 89 92 89 85 88 87 82 82 90 93 90 84 84 84 75 74 73 72 70 63 58 54
19 17 39 44 53 53 47 51 65 85 73 81 86 88 86 85 88 80 82 84 85 89 86 95 90 89 85 87 90 89 92 91 95 92 88 90 91 86 86 85 80 73 73 72 68 65 61 57 51
26 43 53 53 49 46 46 53 58 77 81 86 87 91 88 85 79 77 79 85 80 84 90 89 84 82 81 83 89 94 97 97 94 93 94 91 94 95 83 77 74 76 75 72 64 63 60 59 53
29 45 48 51 46 36 41 51 63 67 78 84 87 83 88 84 73 75 78 81 80 73 75 86 84 78 81 83 89 97 98 96 95 94 92 88 84 81 76 78 80 82 75 70 68 64 61 59 53
25 44 57 46 45 34 28 43 50 74 72 82 81 77 80 85 77 74 75 76 77 75 82 81 75 76 87 94 97 98 98 98 98 96 93 86 82 80 79 79 82 83 76 74 71 66 65 66 62
33 39 44 46 39 37 40 39 38 64 70 80 89 85 85 84 83 78 76 74 68 76 75 78 81 88 94 96 97 97 96 98 98 92 91 86 82 80 79 82 87 81 78 77 68 73 67 67 65
43 38 54 48 38 41 45 36 38 52 70 69 89 90 86 88 85 78 78 76 66 79 72 78 88 95 96 97 97 98 98 98 97 91 87 83 80 77 82 82 82 79 78 79 74 71 75 72 69
37 37 35 31 25 38 40 36 35 53 69 82 83 81 84 81 74 72 77 72 75 80 87 88 94 97 93 94 96 98 98 98 97 93 82 80 77 80 81 82 82 76 72 75 68 72 69 77 77
40 39 37 30 27 40 45 38 35 50 60 66 75 72 68 74 75 72 71 71 73 74 88 93 90 95 90 87 97 95 97 96 93 89 83 78 82 81 79 78 75 71 75 71 71 72 80 78 77
40 42 35 35 29 36 36 39 29 32 38 59 61 58 56 64 69 70 66 70 72 76 88 89 90 91 88 88 93 96 92 92 91 90 85 84 79 78 74 73 73 71 73 74 74 76 75 76 80
45 33 35 37 38 38 32 47 36 33 33 52 55 55 52 57 59 62 61 66 70 72 77 80 87 89 88 88 88 90 88 95 92 87 86 83 79 72 69 69 73 75 79 78 82 77 83 83 81
38 36 37 39 39 44 43 38 33 36 36 42 48 49 46 49 54 57 59 60 64 75 88 88 93 90 85 85 90 95 93 90 87 87 83 83 79 73 71 74 77 78 78 74 71 70 78 86 84
33 38 42 52 49 54 41 43 43 38 29 27 38 46 43 49 51 53 57 65 68 94 95 96 95 92 85 85 90 93 94 89 90 89 88 85 82 79 74 69 72 69 69 68 69 66 65 74 83
36 45 61 63 72 60 46 51 41 32 30 30 33 41 47 51 64 72 81 72 83 96 96 96 95 92 87 80 85 90 90 86 87 84 84 84 76 74 69 66 68 63 63 67 65 65 68 77 82
47 42 64 54 73 56 53 57 39 34 36 35 32 42 54 61 65 79 76 81 90 93 94 94 94 91 86 87 87 90 88 81 78 77 78 72 64 64 63 65 69 67 59 62 64 72 82 80 85
47 50 42 69 82 84 58 47 34 34 47 52 53 50 58 64 65 74 84 89 93 91 93 94 94 89 93 90 91 92 92 85 81 74 74 72 64 60 71 77 66 62 59 60 69 82 78 83 86
38 35 48 62 55 65 55 48 48 38 34 52 59 58 75 84 87 86 87 91 93 92 93 95 95 94 92 87 84 81 82 69 70 73 71 63 66 75 71 64 66 64 63 69 77 77 76 79 86
42 43 44 47 62 64 73 51 32 39 38 45 55 56 77 84 89 85 84 87 92 94 96 95 94 87 84 70 76 78 75 70 66 65 65 65 66 63 65 74 64 62 63 74 74 74 75 76 78
40 43 44 68 50 72 81 54 33 34 40 50 48 56 71 76 76 81 82 89 92 90 88 88 86 82 76 71 77 80 72 65 64 62 63 61 66 67 73 69 62 59 64 71 70 71 70 75 77

GFSSGP_sfc_rhum_048.txt.gz
RH
78 54 47 27 29 36 44 31 31 42 79 83 75 79 88 90 80 86 92 90 91 89 91 90 91 89 86 83 81 78 76 74 74 76 78 77 74 72 71 70 69 68 66 70 72 71 70 73 78
56 44 29 25 28 33 26 29 27 43 75 72 69 77 92 93 84 92 90 94 85 88 89 91 91 88 85 82 79 75 72 73 76 76 74 75 74 73 72 70 69 67 65 63 69 75 78 80 83
38 27 31 26 32 28 27 24 60 82 74 68 76 81 91 95 86 89 90 88 88 88 87 89 91 88 84 80 77 76 77 79 78 76 72 71 73 72 72 70 69 68 65 60 62 70 76 79 82
29 27 23 24 29 22 22 40 69 73 65 65 76 88 82 88 92 89 89 91 92 92 89 91 91 88 83 80 80 80 80 82 79 76 74 72 72 70 74 71 69 69 66 58 58 65 72 75 77
27 28 31 34 23 20 51 71 71 68 73 80 76 92 91 93 90 90 92 93 95 95 92 92 92 88 83 82 83 84 83 83 80 77 76 75 74 73 76 74 70 70 69 67 64 68 71 78 77
31 27 33 38 26 28 68 71 69 68 76 68 75 86 92 91 94 98 96 97 98 98 96 93 91 89 83 83 86 87 86 84 82 79 78 78 78 77 76 74 72 71 71 71 71 72 71 71 78
31 33 33 31 25 20 56 70 67 65 64 66 69 91 91 97 97 96 94 94 97 98 98 98 90 85 89 91 91 91 88 88 85 84 83 82 82 78 75 74 73 73 73 70 69 71 73 75 73
31 31 38 29 22 20 53 65 69 65 71 72 77 96 97 94 96 92 94 95 94 95 96 92 91 95 90 90 92 92 91 90 89 88 87 85 84 81 77 76 74 74 73 73 73 76 76 77 76
26 31 32 28 25 26 70 66 73 85 91 89 87 88 96 95 87 88 96 97 95 96 95 96 96 94 91 91 90 91 90 89 89 87 87 90 91 85 75 77 76 76 76 75 73 70 70 72 72
28 33 26 21 20 35 74 63 62 81 94 92 90 96 96 91 90 90 94 97 95 93 94 92 91 92 92 77 92 92 86 90 89 89 86 90 89 84 82 80 75 79 78 77 72 65 60 56 57
26 25 20 17 21 56 72 76 64 80 86 87 88 92 95 94 91 88 88 85 90 88 86 88 82 84 93 83 93 91 90 90 88 89 90 90 84 88 92 85 80 78 67 62 61 59 57 58 55
29 20 19 18 56 65 68 62 59 68 65 78 82 88 88 88 91 90 90 93 91 84 86 85 84 80 92 88 91 89 88 90 90 87 87 91 89 92 84 82 78 74 75 71 71 68 61 57 56
25 19 35 44 56 58 53 57 70 93 86 82 76 81 84 84 86 87 86 86 88 88 88 89 84 92 93 90 91 90 93 89 90 87 86 91 84 82 84 86 76 77 75 70 69 64 56 56 57
38 54 55 50 52 51 48 61 74 94 91 86 82 86 82 81 87 89 84 86 90 80 86 89 93 95 91 90 91 94 95 93 96 94 91 91 93 90 86 83 78 78 73 71 66 54 58 58 57
33 53 50 51 49 45 44 52 79 92 85 90 88 85 81 82 83 88 83 85 80 82 81 94 96 89 89 90 90 96 96 96 97 96 96 95 94 91 82 82 83 82 74 69 64 57 62 60 54
35 46 57 49 49 42 38 45 60 87 87 94 92 87 87 85 77 75 77 77 76 80 85 90 84 85 89 92 94 97 98 98 97 97 96 93 91 89 81 83 81 79 75 72 68 67 67 66 60
36 45 49 46 42 44 43 42 54 83 81 94 92 90 91 89 77 73 78 84 85 87 87 93 92 88 91 95 97 97 98 98 98 97 95 89 83 79 77 74 79 78 78 77 69 72 68 67 64
44 40 34 49 42 42 54 45 56 83 81 92 91 88 89 92 86 75 80 80 80 88 88 87 92 94 95 98 98 99 99 99 98 96 92 86 83 78 82 87 85 80 80 78 73 72 76 72 68
40 39 35 39 30 45 47 44 47 68 82 90 96 95 95 94 82 84 84 89 82 90 86 89 96 96 97 99 99 99 99 99 98 95 87 85 82 80 83 86 82 81 79 78 71 74 73 77 77
43 42 40 32 31 40 48 49 37 57 73 76 91 94 93 92 92 87 90 92 86 84 85 94 94 96 95 94 97 96 98 98 98 95 89 84 83 82 80 82 81 76 77 77 74 74 81 81 79
42 42 40 39 36 43 41 41 36 37 56 65 71 76 77 83 87 85 86 88 85 86 85 91 92 94 93 93 93 98 97 96 97 95 90 83 85 82 79 79 78 77 77 77 77 77 75 78 81
47 36 37 37 40 46 38 44 36 37 48 55 63 78 72 72 75 77 80 84 83 80 80 87 91 94 92 93 86 92 94 96 97 93 89 80 85 82 79 76 76 78 82 82 82 79 83 79 77
38 39 42 43 46 49 45 41 33 40 37 40 53 64 65 62 66 75 76 71 74 82 91 92 94 95 93 92 88 93 95 97 96 93 85 87 86 79 75 78 82 84 82 75 72 73 79 81 83
36 41 45 55 52 56 45 43 45 38 32 34 37 55 59 58 61 64 70 72 75 90 95 95 96 95 92 91 94 92 95 96 95 95 89 91 87 85 82 79 76 74 71 71 68 73 70 71 77
43 46 62 64 72 61 49 56 49 37 32 32 37 45 50 53 60 67 73 71 78 90 94 95 96 96 93 93 91 88 91 95 91 87 88 87 84 84 78 70 70 69 69 83 79 66 66 69 78
47 45 66 55 71 53 53 58 37 37 44 46 37 35 56 57 56 65 63 68 75 88 93 92 95 92 93 92 89 90 93 95 94 90 81 79 76 72 67 78 73 85 78 68 72 71 78 83 84
50 51 45 71 82 84 58 46 30 39 46 51 50 54 63 63 61 60 73 74 85 93 93 92 91 90 93 92 91 96 97 97 94 94 87 78 73 69 74 91 86 70 67 75 68 74 77 83 86
42 40 51 63 60 62 54 52 45 38 40 57 60 67 69 72 78 75 87 92 92 92 93 93 92 93 91 92 96 97 96 95 94 91 85 78 74 75 87 84 70 71 77 68 71 76 77 82 86
47 50 50 50 62 62 72 53 37 34 41 42 52 56 64 83 84 88 92 95 94 93 95 94 95 94 98 97 97 96 96 92 90 87 85 80 74 84 82 68 75 76 68 68 76 80 75 81 82
42 45 48 68 52 73 81 56 36 32 35 42 45 54 73 82 87 90 91 94 96 95 96 96 96 97 96 93 93 93 91 88 89 90 82 81 79 70 73 85 74 65 61 71 78 73 72 80 81

GFSSGP_sfc_rhum_051.txt.gz
RH
58 34 29 17 17 21 20 18 20 20 35 67 65 60 60 71 68 68 80 81 78 79 72 71 88 87 86 83 82 80 80 77 77 79 79 76 74 74 73 72 75 78 74 73 69 73 75 73 74
36 30 21 18 17 17 13 18 19 36 55 56 63 75 77 84 72 81 86 81 81 75 68 69 89 85 84 82 80 80 76 76 78 78 76 75 74 73 73 72 74 78 76 72 71 75 77 75 78
26 19 21 18 19 14 16 16 27 62 60 56 65 70 77 83 79 76 75 82 80 78 69 72 87 84 81 79 78 78 80 79 78 77 76 75 73 73 73 72 71 73 76 75 76 78 76 77 81
22 18 16 17 16 16 15 15 52 58 54 53 58 74 76 82 90 82 78 79 81 86 78 85 88 85 81 78 80 81 81 79 76 75 76 75 74 73 73 72 69 70 72 73 75 69 71 80 81
18 19 21 20 17 14 15 45 58 54 55 60 57 81 79 76 91 90 91 83 93 89 87 87 91 88 82 80 83 84 82 80 77 76 76 75 75 74 74 73 71 70 70 70 69 71 75 76 76
19 19 21 19 18 15 31 53 53 58 57 58 63 70 79 81 94 96 95 97 96 98 94 91 90 87 83 83 85 85 84 81 80 79 78 78 77 76 75 75 74 73 72 71 73 77 79 76 74
22 20 21 20 18 16 32 56 52 51 54 57 58 69 87 94 95 92 94 96 98 97 98 95 92 87 90 92 89 88 86 85 84 84 82 82 81 76 75 74 74 74 73 74 72 74 76 77 73
21 21 22 19 17 16 37 54 57 52 73 70 67 77 86 97 94 88 89 92 96 96 95 95 92 85 83 86 92 91 90 90 89 86 84 84 80 80 78 78 76 73 74 74 76 78 75 71 68
18 21 22 20 18 18 52 51 58 70 70 76 79 74 85 94 91 93 94 92 90 96 92 92 88 78 81 91 90 89 89 89 87 81 84 77 52 51 52 71 79 77 76 76 73 70 71 72 66
19 24 22 17 16 19 50 50 59 62 76 79 85 94 94 86 91 96 96 96 91 92 94 93 88 84 81 85 83 88 82 74 72 73 76 75 68 58 52 68 81 80 77 74 68 62 58 45 31
20 20 17 15 14 34 45 54 52 62 65 68 83 96 95 87 86 91 93 91 92 88 88 89 83 78 79 79 95 93 74 69 73 77 74 76 65 66 58 61 57 58 63 44 42 40 36 44 35
20 18 16 16 37 47 54 51 51 54 56 61 77 86 88 84 83 84 88 92 88 82 87 87 84 89 92 91 89 78 72 75 77 67 75 75 68 72 62 55 58 55 48 53 49 43 48 43 42
19 17 25 29 46 48 48 47 54 70 79 70 75 81 85 80 76 76 78 83 85 83 83 85 81 73 71 84 80 80 87 72 70 67 71 63 64 74 69 64 60 57 51 47 44 42 38 41 40
22 44 44 46 46 45 47 59 55 86 75 81 82 81 77 78 82 78 78 74 72 73 69 69 69 65 72 77 78 77 77 74 73 74 74 76 74 74 66 63 60 53 49 44 41 39 37 36 36
25 38 40 42 41 38 39 40 48 80 77 78 77 78 73 76 83 80 69 69 67 66 62 64 64 69 80 79 72 69 68 70 75 83 86 85 80 78 73 61 57 52 52 51 46 46 42 37 34
29 35 39 38 38 34 28 32 65 80 78 76 76 77 81 78 79 72 70 68 70 64 65 68 66 76 80 80 72 70 81 80 89 90 89 84 82 78 76 62 59 62 66 56 56 44 42 40 37
29 29 36 38 36 34 36 32 57 77 74 74 82 80 79 79 74 73 69 66 67 62 67 70 76 82 83 81 79 79 78 81 81 87 90 84 82 78 72 64 64 70 63 59 48 48 45 43 40
33 28 27 32 34 38 37 34 57 77 74 71 73 80 83 81 73 65 68 65 59 64 68 72 76 82 82 80 81 80 84 84 86 86 78 73 67 71 65 64 66 62 54 54 51 52 50 45 43
30 32 28 27 30 29 35 37 36 73 74 77 74 74 77 75 68 62 62 66 64 66 70 71 78 82 78 75 82 80 88 90 91 88 80 74 62 62 65 61 62 59 55 55 58 54 55 50 51
34 33 33 28 27 32 31 29 32 61 68 67 71 70 69 69 70 69 67 66 67 66 69 68 70 76 75 69 75 72 82 88 86 87 78 76 67 62 64 65 61 60 56 60 58 56 53 52 53
32 33 32 30 28 31 30 28 32 36 55 64 63 64 63 66 70 72 74 74 70 68 70 67 66 72 75 71 70 76 81 85 87 86 82 74 68 66 63 66 62 62 57 55 58 57 56 53 56
36 30 31 31 30 31 28 32 30 30 39 52 60 62 66 65 69 66 70 75 75 72 67 66 70 74 74 76 71 75 76 80 83 85 78 68 69 74 69 61 62 61 56 59 58 56 59 61 50
34 31 32 32 34 35 33 30 27 30 30 34 45 55 56 56 60 64 67 65 67 72 79 75 75 75 76 77 74 80 80 78 85 86 79 73 76 77 65 62 62 62 57 63 63 64 61 57 52
32 34 38 42 40 46 35 31 30 25 25 25 25 36 50 53 56 57 58 62 64 75 79 80 76 75 75 78 79 82 81 83 83 82 80 74 71 68 66 59 61 63 62 60 68 83 75 67 72
32 36 46 50 52 50 43 43 34 28 27 27 31 28 38 52 52 55 59 63 62 74 79 79 74 74 79 81 83 82 82 81 85 81 80 80 74 67 67 64 66 65 67 72 86 64 65 69 54
38 36 53 47 51 41 42 41 23 28 27 37 39 36 33 50 53 52 54 58 61 68 73 74 73 72 76 80 83 84 80 82 81 85 83 77 76 70 68 64 69 71 71 72 71 68 65 71 66
39 42 37 57 67 62 40 34 24 27 29 38 39 36 35 42 47 49 51 58 61 65 73 76 73 72 78 81 82 83 83 85 85 86 88 87 82 68 71 68 65 78 71 68 81 77 63 68 72
36 35 46 51 54 53 39 40 26 27 30 32 38 39 38 44 50 49 54 59 61 63 70 76 72 71 74 77 79 79 82 83 85 89 90 85 77 75 72 66 74 69 73 81 76 69 67 69 64
41 41 45 40 47 47 51 37 34 26 29 32 36 40 42 48 52 56 56 59 62 66 70 73 71 68 72 74 80 87 89 88 89 92 89 85 80 74 74 77 66 76 92 80 67 70 70 62 60
36 41 42 57 47 58 58 43 27 30 27 31 34 37 42 53 56 60 62 68 71 70 70 69 70 73 76 81 88 91 91 92 94 93 89 82 76 73 78 76 75 84 71 68 74 70 54 57 59

GFSSGP_sfc_rhum_054.txt.gz
RH
48 19 11 13 12 10 12 11 10 13 20 35 42 39 36 54 51 60 60 54 63 58 58 62 90 88 86 85 83 82 81 80 80 80 78 78 76 76 77 79 78 76 76 73 72 66 67 70 72
15 17 14 10 12 12 10 10 11 20 30 39 45 52 44 55 54 59 71 70 60 59 56 51 91 86 84 83 82 81 79 79 80 78 77 76 76 76 82 82 81 78 76 73 71 67 69 73 76
16 15 13 11 11 11 10 11 12 33 43 37 43 44 51 60 59 60 56 59 67 67 56 59 89 86 83 83 82 80 81 80 78 77 76 76 75 75 79 82 79 77 78 73 71 69 72 77 82
11 12 11 11 11 10 10 10 22 39 37 37 37 48 52 60 73 71 57 62 76 67 68 86 88 87 83 82 81 82 81 79 78 77 76 76 75 74 76 79 82 80 78 74 67 69 73 80 80
10 9 12 12 11 10 8 12 30 35 35 36 37 49 52 67 84 83 69 72 78 70 81 83 91 88 84 82 82 82 80 79 78 77 76 76 75 75 75 77 80 81 78 70 68 68 72 77 76
11 10 12 11 11 8 10 18 33 39 34 38 37 38 55 76 78 95 95 92 81 90 86 85 89 90 85 84 83 82 80 79 79 78 78 77 78 77 77 76 76 76 78 77 76 75 74 72 69
14 12 11 12 11 11 17 31 33 34 32 34 35 37 69 86 92 95 95 96 98 98 97 88 82 86 90 90 89 87 84 83 81 80 80 80 81 80 77 76 74 74 76 79 77 76 76 70 65
11 12 14 11 10 13 18 29 38 36 42 43 44 38 66 93 90 87 94 95 97 98 98 98 96 84 82 86 91 91 91 90 87 86 84 84 82 81 79 77 76 76 74 74 72 76 74 64 64
12 13 12 12 12 13 24 21 35 46 47 47 55 55 87 92 77 78 93 95 96 98 96 92 88 84 81 80 85 86 90 87 84 78 81 71 42 42 46 69 79 78 78 76 71 69 68 68 61
12 14 12 11 10 12 15 23 30 44 48 50 58 89 90 87 80 83 93 96 96 95 95 89 85 76 72 79 78 79 72 54 58 56 52 39 44 39 46 70 81 79 76 73 67 63 62 50 24
13 13 11 11 10 11 14 22 32 40 43 40 59 93 91 88 88 86 85 87 91 90 90 87 83 84 88 90 90 89 83 67 60 64 54 49 45 50 47 55 46 47 54 34 36 37 30 35 28
16 13 13 12 16 17 20 30 34 33 42 42 54 84 75 77 83 85 84 89 89 84 79 90 94 90 95 86 86 83 56 59 57 55 57 57 50 47 47 41 43 44 36 41 39 37 42 38 34
17 14 20 18 24 26 34 34 34 44 48 54 72 72 72 60 65 70 79 87 87 88 87 85 84 79 87 86 84 73 66 58 48 52 52 47 44 49 44 47 41 40 41 40 41 41 35 36 34
16 22 30 28 30 32 33 38 37 53 52 60 63 59 61 58 56 66 74 71 75 84 89 85 80 78 74 70 59 58 67 57 53 47 50 56 49 58 50 48 44 44 41 38 37 36 34 31 30
18 27 29 30 31 31 31 34 30 48 52 56 59 59 62 70 58 56 58 57 51 57 50 57 56 63 66 66 58 54 46 43 44 46 61 57 56 55 54 52 53 46 43 44 41 39 36 32 27
19 26 20 29 29 27 29 24 32 46 48 50 50 57 65 69 68 57 52 49 46 43 47 50 48 56 56 60 56 50 43 45 43 54 71 75 61 58 60 51 50 46 46 43 50 40 36 33 30
20 20 21 25 23 24 26 23 29 45 45 44 50 56 61 65 65 63 54 46 43 42 46 49 49 50 55 61 60 53 56 49 46 53 63 67 67 68 58 50 51 58 53 51 49 42 40 38 32
19 19 17 24 21 25 25 23 22 40 40 41 48 54 55 66 60 58 54 48 45 45 44 44 48 54 60 60 64 53 49 48 51 59 74 73 62 70 64 54 56 51 44 51 50 49 40 36 32
20 20 17 18 21 22 21 19 18 35 46 41 44 53 64 52 50 47 50 49 48 48 51 51 56 58 58 56 53 51 51 51 55 56 64 70 61 68 65 54 56 51 50 56 63 49 49 40 39
24 21 19 20 21 23 18 17 20 28 40 42 38 42 45 49 50 48 48 46 48 49 52 50 48 54 54 49 48 45 43 46 52 64 78 75 68 60 59 57 55 52 50 61 62 50 44 40 42
26 23 21 20 19 18 20 17 20 24 33 36 38 34 35 40 47 49 45 49 51 49 53 52 51 51 54 52 48 46 48 53 63 74 75 81 75 61 56 56 54 54 58 64 56 50 48 43 44
24 20 22 22 22 22 19 24 17 19 26 33 36 40 37 34 38 45 48 47 48 48 46 44 44 46 51 55 49 50 46 49 54 68 82 79 72 67 53 54 57 61 58 55 51 45 47 46 47
23 24 24 23 23 25 22 21 16 19 18 20 27 32 36 36 35 39 45 46 46 47 48 47 45 45 49 53 58 54 52 43 47 76 77 76 75 64 57 60 66 68 51 52 52 53 54 61 75
24 26 27 28 25 34 22 22 18 15 16 16 16 21 29 32 35 33 36 42 44 48 52 53 50 48 50 56 62 63 60 56 57 67 71 70 66 66 63 61 68 62 52 53 54 64 76 78 72
25 28 37 42 40 40 27 26 19 15 16 18 19 19 18 27 34 36 35 38 43 48 56 59 56 51 52 57 60 64 66 68 66 65 70 72 70 75 75 70 61 55 53 66 77 60 62 61 71
26 26 37 45 44 33 29 28 16 18 18 18 22 24 23 21 27 31 34 36 40 46 55 59 56 54 53 58 62 65 70 69 66 66 70 72 77 90 74 73 62 73 66 63 55 66 66 62 74
30 32 24 37 50 47 24 20 15 17 18 20 21 25 22 22 25 27 28 33 37 42 53 58 54 50 50 65 65 72 76 76 75 73 75 76 81 89 88 83 84 66 57 63 76 82 85 77 62
26 22 35 33 46 42 25 24 15 18 16 17 17 19 24 26 26 28 29 33 37 40 46 55 56 53 52 58 65 70 74 74 73 81 82 83 91 87 87 93 83 65 73 76 78 76 80 78 86
31 31 30 27 32 39 36 24 17 17 16 18 22 23 24 29 30 32 32 33 37 41 44 50 52 49 50 52 60 67 67 69 75 88 88 88 87 82 85 77 77 77 81 87 88 82 71 78 67
22 26 28 41 40 39 44 30 15 17 18 20 21 22 26 31 34 35 38 40 41 44 44 47 49 49 48 53 58 66 76 81 90 93 90 89 84 82 72 75 76 72 84 87 74 80 76 68 51

GFSSGP_sfc_rhum_057.txt.gz
RH
47 24 12 9 12 10 10 8 6 11 12 12 20 17 21 17 50 74 73 47 52 56 52 63 93 92 89 88 86 84 83 82 82 81 80 79 79 79 78 80 80 78 75 66 66 66 68 70 72
17 10 10 10 12 10 8 6 11 9 15 24 25 28 28 31 44 57 76 51 48 52 56 57 94 91 88 86 84 83 80 81 81 80 79 79 79 81 80 80 81 79 75 65 66 68 70 73 75
16 10 12 12 10 10 9 12 9 13 22 21 22 26 31 38 47 51 43 58 63 59 57 63 91 88 86 85 84 82 82 81 80 79 79 79 84 84 84 82 81 79 74 66 68 70 73 76 78
10 9 9 10 10 8 8 8 10 17 20 21 20 30 40 52 54 56 51 50 61 63 61 85 90 86 85 84 83 83 82 81 80 79 78 80 82 84 84 82 81 79 74 67 69 70 71 76 79
9 8 10 11 9 7 7 6 12 19 24 22 22 31 45 58 61 72 61 55 66 69 80 77 92 87 85 83 84 83 82 81 80 79 79 79 80 83 86 84 83 79 73 69 68 68 70 72 73
10 8 10 9 9 7 7 9 14 23 24 25 24 25 52 53 80 91 72 77 89 94 95 90 92 89 85 84 84 84 83 82 81 80 79 79 81 83 85 85 80 77 77 75 73 72 70 68 67
11 10 10 9 9 9 10 18 19 24 25 22 23 29 58 74 90 91 82 90 95 98 99 96 90 92 93 90 85 85 85 84 83 83 82 83 81 81 81 82 81 80 78 76 74 72 72 64 65
9 9 10 9 10 12 15 17 24 25 26 26 28 32 48 81 90 90 90 95 96 96 98 95 94 93 86 85 86 86 82 88 87 86 86 84 82 80 78 78 80 81 78 75 70 70 66 65 64
9 11 11 11 10 12 13 15 18 25 28 28 41 56 73 70 80 85 92 94 94 96 93 94 93 92 92 80 83 82 87 87 86 82 81 69 52 50 43 75 79 78 78 76 70 67 67 67 60
10 11 11 9 9 10 10 12 16 26 28 33 54 85 85 78 71 77 91 95 95 97 96 92 88 88 78 73 77 78 75 62 59 55 55 48 56 50 48 70 83 81 78 76 70 66 68 62 25
10 10 9 8 9 9 10 10 16 24 26 24 38 84 84 81 78 77 89 95 94 89 91 90 88 82 89 91 90 87 78 63 63 64 58 57 58 57 55 57 53 54 59 36 40 41 33 35 30
12 9 9 9 10 13 14 16 22 21 31 33 54 70 76 78 79 74 83 92 91 90 84 81 92 92 93 95 95 95 77 64 58 64 63 60 55 59 58 48 46 46 37 40 39 38 43 39 35
12 10 11 12 13 16 19 22 23 26 32 45 59 60 59 63 63 62 75 85 86 89 92 93 92 94 92 90 92 86 63 52 51 57 59 54 51 61 52 50 43 42 39 41 41 41 38 38 34
12 12 14 16 13 16 22 21 23 31 38 51 49 54 58 51 57 69 75 85 88 88 92 90 90 92 92 89 88 87 64 51 46 50 57 62 59 61 50 50 43 41 41 39 40 38 38 34 34
13 15 17 21 16 18 20 40 42 34 42 44 45 50 53 43 44 59 67 71 72 84 88 89 92 92 86 80 71 67 64 50 47 46 60 54 49 55 52 48 45 44 43 44 44 42 37 35 29
13 14 20 65 39 18 19 66 74 30 33 34 38 40 54 55 44 54 56 61 64 66 76 81 74 77 68 65 64 75 48 48 39 42 47 56 51 54 52 48 50 47 47 46 44 42 39 37 33
14 18 24 30 21 19 18 36 24 26 28 31 35 37 45 57 45 46 44 43 45 46 54 57 57 58 61 65 63 58 50 46 41 42 49 63 60 55 54 49 50 53 49 48 46 45 47 40 34
14 18 16 28 36 16 21 19 18 24 26 29 31 40 44 44 45 48 37 37 35 40 46 47 53 56 59 61 54 46 46 49 42 40 47 59 58 64 60 51 53 54 51 50 47 51 50 45 35
15 15 14 27 31 20 18 15 16 21 26 28 34 38 40 45 41 46 44 40 37 42 47 49 55 54 44 45 47 47 46 44 43 42 51 67 66 59 70 60 59 61 52 52 54 54 61 50 39
16 16 15 13 14 17 16 17 19 17 26 26 30 40 42 37 42 42 43 43 43 43 44 44 43 42 41 36 38 38 40 39 45 46 52 65 67 58 63 66 62 61 50 56 58 62 61 58 43
19 19 16 16 16 15 16 16 19 14 22 24 25 28 32 41 42 43 44 44 44 44 44 40 41 41 42 40 36 36 36 37 38 42 49 69 73 79 87 82 67 59 55 56 60 57 67 55 45
22 15 16 18 18 19 21 24 24 15 19 24 25 25 28 30 36 40 42 41 43 44 44 43 41 40 40 42 40 42 39 39 39 46 48 69 85 90 91 83 83 61 56 65 66 59 63 51 47
19 19 18 18 18 20 20 18 20 13 13 16 21 23 24 26 30 35 37 37 38 41 44 46 44 41 39 40 44 43 46 40 37 43 52 72 80 80 76 76 76 66 64 68 69 66 59 48 49
16 21 21 21 22 30 19 22 23 23 13 13 13 19 22 24 24 28 31 34 35 38 45 47 44 40 38 41 46 52 51 50 42 42 71 76 75 76 73 66 79 81 74 74 70 62 58 62 71
20 23 36 47 36 35 19 20 18 22 12 12 14 13 17 21 25 25 28 33 36 39 44 45 42 41 40 45 46 50 53 56 56 63 64 67 72 71 77 69 85 86 84 81 64 72 67 62 62
24 22 37 53 49 34 24 24 16 13 12 12 12 15 17 17 22 25 25 29 33 39 44 46 43 44 41 46 51 57 56 60 62 59 58 64 67 78 73 89 88 93 90 82 86 84 61 65 70
20 28 20 32 35 43 22 16 14 12 14 13 14 16 17 18 17 21 24 26 30 35 43 50 47 45 44 49 55 75 74 66 69 70 73 73 75 75 79 92 90 91 93 89 85 81 82 84 74
20 20 31 29 52 50 22 19 18 16 14 13 13 14 19 19 18 20 21 26 27 31 39 46 50 48 49 54 58 62 69 75 75 78 82 80 82 78 86 89 88 94 89 83 78 85 82 87 93
24 27 25 23 28 50 40 21 16 14 13 13 14 14 16 20 22 22 22 22 24 28 34 43 46 45 47 48 59 72 79 74 74 86 86 85 82 82 85 87 92 89 87 85 92 86 86 88 90
20 24 24 37 37 34 37 33 14 14 13 14 14 14 17 20 22 25 26 26 28 32 34 38 44 45 43 45 56 71 77 85 87 90 92 92 90 86 86 86 85 80 89 90 83 81 80 85 77

GFSSGP_sfc_rhum_060.txt.gz
RH
53 25 22 18 15 15 15 10 6 7 18 32 40 44 51 38 25 48 70 87 94 90 74 77 90 89 90 90 89 86 84 83 84 84 83 83 83 85 83 81 76 74 69 66 67 67 67 66 68
25 19 17 12 16 17 11 8 11 11 33 26 29 44 39 34 37 54 58 66 70 80 70 77 91 90 90 89 87 85 82 82 83 82 81 81 82 83 83 81 77 74 71 67 68 68 68 69 72
30 16 14 16 16 14 12 8 9 9 18 19 27 21 35 50 51 50 47 59 65 62 63 82 92 90 89 87 86 83 83 83 82 81 81 81 82 83 84 83 77 74 70 68 68 69 70 72 78
14 11 11 14 13 10 8 9 8 10 12 18 18 53 54 67 78 66 52 54 70 70 74 94 93 90 87 86 84 84 83 83 82 82 83 84 83 84 85 82 77 75 72 68 67 68 70 75 77
11 10 14 13 11 8 6 7 7 8 24 45 34 73 76 70 73 76 80 77 75 90 92 91 93 90 87 85 86 84 84 84 82 84 86 85 85 84 85 83 77 76 73 67 67 67 68 71 74
14 10 13 11 9 10 8 7 9 13 47 54 54 59 63 70 87 90 92 92 86 95 97 94 94 92 87 86 86 86 86 85 84 85 86 87 85 86 86 81 79 78 76 74 69 69 67 68 68
13 12 13 11 9 11 12 12 14 25 55 57 71 78 81 87 93 92 96 94 93 94 92 96 98 95 95 94 90 88 86 86 86 86 87 89 89 87 83 82 81 79 78 74 69 69 71 66 65
9 10 12 10 10 12 18 14 25 27 70 56 57 56 86 84 90 91 94 98 96 94 94 95 94 97 98 96 79 85 90 91 89 87 86 86 86 86 84 82 80 78 76 72 66 68 70 66 61
8 13 13 12 12 11 11 13 43 28 43 54 61 70 76 83 81 86 95 97 96 98 95 94 94 95 95 93 94 87 80 88 87 83 81 76 71 74 66 82 82 80 79 74 68 68 68 60 53
10 13 11 9 9 9 9 12 12 22 35 64 74 80 71 73 75 85 94 97 98 98 95 93 93 90 89 81 76 82 83 83 72 66 65 58 71 65 74 83 83 81 79 76 72 70 66 58 42
9 12 9 8 8 8 9 10 9 12 66 64 62 82 78 73 74 88 94 95 97 95 95 96 91 86 84 88 86 83 84 85 71 72 68 73 68 72 77 73 71 76 70 51 59 65 55 55 51
11 9 9 8 8 10 12 12 17 52 68 64 58 71 72 69 73 80 94 95 94 94 93 94 97 95 93 89 90 92 90 78 76 76 74 77 71 69 69 70 71 66 62 57 62 67 60 53 47
11 11 8 9 11 10 11 17 43 61 65 56 62 63 68 65 72 76 84 90 91 95 97 96 93 94 92 93 93 95 96 84 76 74 70 73 74 77 70 70 64 62 64 64 63 63 58 54 48
11 11 10 21 22 21 14 37 61 67 62 51 48 53 59 59 71 79 85 90 92 92 96 94 92 91 90 92 92 91 90 76 69 71 70 71 74 80 72 74 67 67 65 64 64 62 60 58 50
12 14 14 30 25 27 22 38 58 71 71 49 46 53 45 58 64 73 79 84 84 88 90 93 93 91 91 91 91 88 82 65 67 72 72 71 72 74 70 73 73 69 67 63 65 61 59 55 48
14 14 18 35 24 19 31 40 48 46 48 42 41 48 49 44 59 64 69 71 72 76 81 86 84 88 87 88 84 79 61 72 63 70 73 73 70 72 75 73 74 70 70 70 68 64 63 63 57
15 17 16 31 28 30 33 33 54 47 44 41 37 39 51 50 56 57 61 65 68 69 74 75 80 79 78 80 72 72 74 67 60 60 66 74 71 74 76 74 73 76 73 73 70 66 67 66 59
17 14 15 22 30 28 22 23 42 68 62 34 33 31 51 54 46 53 61 59 59 63 69 70 71 73 72 70 63 66 84 59 64 64 68 74 73 72 76 74 77 76 74 75 72 71 69 67 58
15 16 16 23 19 21 24 17 22 26 60 28 36 35 42 49 44 42 52 54 52 63 66 64 69 72 67 66 68 70 68 65 67 64 64 78 77 78 84 79 81 78 77 74 75 76 72 68 57
18 14 14 14 18 22 17 15 15 37 50 26 28 37 40 41 47 47 44 47 52 60 60 59 61 63 62 61 59 60 57 59 61 60 64 77 82 80 78 85 87 81 89 78 78 75 76 73 67
18 18 16 17 23 17 17 17 15 17 20 20 26 36 32 41 48 52 47 50 52 56 56 55 57 59 60 55 50 51 54 57 56 60 64 77 85 89 83 86 90 91 87 81 81 78 72 70 72
23 15 15 15 21 21 18 28 24 19 19 22 24 32 39 41 44 49 49 50 51 54 54 53 54 53 52 51 46 52 50 51 53 59 59 71 84 86 87 89 91 94 94 95 86 71 74 77 73
20 17 20 19 19 21 19 30 27 19 21 20 25 25 37 40 41 46 48 48 48 50 54 52 50 47 48 49 54 61 56 54 58 62 66 83 90 88 86 90 92 93 96 91 86 89 84 78 79
16 18 21 21 22 35 22 25 22 23 25 18 22 23 27 33 39 40 44 45 45 47 53 54 52 49 48 49 55 62 64 63 58 60 69 81 89 88 88 85 89 90 91 92 94 96 94 96 90
20 24 38 60 51 46 18 19 26 32 28 19 18 18 23 30 32 38 41 42 44 48 53 55 53 51 50 53 56 58 64 71 64 67 80 88 89 91 88 88 87 93 94 96 97 97 94 93 94
23 24 41 51 81 54 38 29 18 20 20 14 12 15 19 24 30 31 34 38 40 46 51 52 50 51 49 52 55 66 66 68 77 87 79 84 85 89 88 90 92 92 95 96 94 94 97 97 95
22 31 22 34 55 68 40 32 16 14 13 13 13 15 18 19 22 28 28 36 39 42 51 56 51 49 48 50 56 71 78 76 72 78 76 87 89 91 92 92 94 96 94 94 96 98 95 87 92
18 15 35 32 60 57 28 21 33 18 16 13 14 18 22 23 21 22 26 32 37 41 48 54 54 49 50 52 61 67 73 78 77 86 88 94 92 93 92 95 96 95 95 96 96 93 92 91 96
20 24 29 28 33 53 58 40 44 22 15 15 18 17 21 26 26 25 26 29 32 38 43 52 53 50 51 52 66 73 77 80 93 92 94 93 94 92 93 93 94 95 96 94 94 93 89 89 90
18 24 26 43 39 42 54 39 20 21 17 17 17 15 21 23 24 27 28 28 31 34 39 48 52 53 52 58 68 81 92 91 95 97 98 94 94 93 91 93 93 93 93 94 90 87 84 86 89

GFSSGP_sfc_rhum_063.txt.gz
RH
77 56 39 39 40 33 32 22 16 30 38 43 42 39 40 46 55 84 90 84 80 74 72 76 92 90 91 90 89 86 85 84 84 84 83 86 86 83 80 78 76 74 68 66 64 61 64 67 70
48 34 36 40 32 38 26 17 15 30 34 39 43 40 37 73 70 81 88 81 80 73 55 55 94 87 90 89 87 85 84 84 84 84 84 86 84 81 78 77 76 74 70 65 62 62 68 71 71
48 32 42 32 36 32 25 15 12 15 29 31 33 54 71 84 66 70 76 78 81 66 80 80 95 88 90 88 86 84 85 84 84 83 84 85 83 80 79 78 77 75 68 64 61 63 68 70 75
31 27 24 27 27 21 19 14 11 14 33 48 47 74 63 57 85 90 83 78 78 78 83 88 91 91 89 87 86 86 84 84 83 83 84 85 84 81 79 78 78 75 67 64 62 63 65 73 74
36 30 30 32 24 16 12 11 33 46 50 61 52 78 74 84 79 89 92 89 91 95 97 95 93 90 88 86 86 86 85 85 84 83 84 86 85 81 80 80 78 75 70 65 63 61 63 71 69
36 25 32 28 19 13 14 20 36 48 48 53 60 68 74 82 87 94 95 97 96 97 97 97 97 91 88 87 87 88 87 88 88 87 85 87 86 83 82 81 78 77 75 71 65 67 66 68 68
26 28 28 22 16 16 21 19 52 55 52 62 62 73 79 75 92 94 95 97 94 96 97 98 95 96 96 98 92 90 89 90 88 88 86 88 88 84 83 81 80 79 76 70 66 67 69 67 66
20 22 21 17 16 18 23 19 30 46 56 55 54 73 76 88 92 93 95 96 96 97 98 98 97 96 97 94 94 87 90 91 92 93 92 90 87 85 84 82 80 77 73 68 64 68 64 61 58
20 22 23 19 16 17 17 18 40 55 72 70 66 79 83 89 91 93 97 98 98 96 97 96 96 94 95 94 91 89 81 91 90 89 90 90 86 78 78 82 80 78 75 72 69 66 62 59 53
20 26 20 13 13 13 13 16 21 67 69 76 77 78 89 88 88 92 97 99 98 98 98 95 95 93 87 84 87 90 89 87 78 79 80 85 79 80 79 84 83 79 76 74 70 65 61 54 48
17 18 14 11 12 14 15 39 52 54 63 64 68 92 84 88 90 91 96 97 98 98 98 95 93 88 86 84 79 74 79 88 78 75 75 76 81 83 81 80 82 81 71 63 64 60 55 57 54
19 14 13 12 19 20 16 64 74 74 74 69 69 82 83 84 89 93 96 97 97 97 98 94 91 87 82 78 76 85 84 89 86 76 78 79 79 73 73 73 73 65 62 56 65 70 59 52 48
19 15 13 20 22 25 26 51 63 73 60 62 63 71 76 80 86 84 90 92 94 97 98 96 93 95 92 93 90 90 93 92 83 82 78 76 75 72 74 73 70 68 68 63 72 62 60 53 51
16 17 15 21 24 28 35 52 44 59 65 60 67 74 81 85 84 87 91 93 96 95 97 95 95 92 88 91 89 92 89 86 79 78 76 80 81 72 76 74 68 70 72 70 69 64 64 61 49
20 22 19 28 25 25 34 48 49 55 54 62 71 77 81 85 82 82 87 90 91 94 93 95 94 89 87 87 89 91 82 71 72 83 75 79 79 77 77 79 78 76 73 69 68 68 69 61 52
25 23 29 24 32 27 35 51 49 62 60 64 68 72 76 80 81 81 80 83 85 89 89 89 88 88 84 87 87 85 67 71 63 84 84 75 75 76 78 81 80 78 76 71 75 69 69 63 60
30 31 25 31 31 31 40 51 56 56 61 63 64 73 71 78 84 80 80 87 90 89 86 90 89 86 80 81 76 71 69 78 53 85 84 74 73 76 79 78 80 76 78 75 73 73 71 72 67
32 29 24 37 35 36 45 45 54 55 57 62 68 68 69 77 80 77 78 79 81 86 86 87 81 80 78 78 69 77 90 88 80 76 80 80 78 80 79 80 83 80 78 81 77 72 74 76 65
24 22 24 32 30 37 40 40 60 65 76 73 74 63 70 72 70 71 75 76 83 82 83 85 86 82 77 78 75 72 78 82 80 79 69 80 81 79 85 84 88 85 79 82 76 77 78 75 68
23 25 24 25 27 29 30 32 42 62 65 58 56 66 68 66 72 73 73 74 79 80 80 81 79 80 73 71 66 68 71 76 71 74 74 84 81 86 84 84 89 90 92 84 83 81 82 75 71
24 25 26 25 27 24 34 32 46 46 42 45 43 48 53 59 64 74 69 71 76 79 78 74 73 73 66 63 64 69 71 73 75 72 70 86 86 86 87 89 90 94 92 90 85 78 75 77 78
28 21 22 23 30 39 28 43 29 36 39 40 43 48 53 61 55 61 62 68 74 72 70 66 68 70 66 62 64 68 69 66 66 74 73 88 89 90 92 95 95 95 90 89 89 85 82 81 88
25 25 29 30 34 36 30 46 38 28 29 33 48 46 52 57 57 53 56 57 60 62 62 62 64 62 60 64 66 66 63 61 61 63 73 83 92 92 92 91 95 95 97 95 94 92 94 97 98
21 26 28 32 37 50 33 41 42 34 28 26 33 46 47 54 58 54 49 52 56 56 57 59 62 59 58 61 63 63 58 64 66 65 71 83 91 90 93 93 96 96 97 97 97 97 97 98 98
26 34 57 71 72 66 37 45 31 31 27 28 33 52 59 51 52 58 55 53 53 58 58 58 59 60 57 58 56 58 65 60 65 72 76 93 96 97 96 96 98 97 97 96 96 97 98 98 97
30 33 65 64 84 70 42 56 31 29 25 26 21 30 51 47 46 53 54 54 53 54 58 58 56 56 54 55 55 55 61 74 75 78 86 85 92 94 95 96 97 97 96 98 98 97 96 95 97
32 38 30 50 68 79 58 37 33 30 28 23 18 19 38 43 45 48 52 52 53 52 55 60 55 53 53 55 60 66 69 75 79 77 89 93 94 96 96 96 98 98 97 96 95 97 99 98 95
24 24 48 53 75 82 53 49 52 38 22 19 21 29 29 31 38 44 47 51 49 50 53 56 57 56 55 55 61 62 77 74 78 95 97 97 99 98 98 98 96 97 96 97 97 98 97 93 95
33 30 35 42 51 71 72 58 48 41 31 19 26 23 30 32 30 36 38 44 44 45 50 58 58 56 56 57 58 63 76 83 96 94 97 96 98 96 96 96 97 98 98 97 97 95 92 92 93
23 27 33 65 57 61 71 58 31 33 28 22 19 22 28 30 31 33 41 41 42 43 45 53 58 58 61 60 66 85 96 98 98 99 99 97 97 97 96 96 97 96 97 95 93 91 87 88 89

GFSSGP_sfc_rhum_066.txt.gz
RH
72 56 40 40 34 38 42 27 24 19 31 42 43 38 61 84 78 91 86 87 84 86 90 86 92 92 92 88 88 86 85 83 83 87 87 85 83 81 79 77 75 71 66 64 68 69 70 72 75
50 38 42 43 40 43 34 24 21 19 25 45 43 45 71 92 70 88 86 74 78 71 73 83 91 90 92 90 87 86 83 83 84 86 86 84 82 80 79 78 76 72 67 62 66 69 69 66 70
37 36 44 42 43 41 34 22 19 49 46 46 48 63 70 79 74 76 76 84 74 72 72 69 92 92 93 95 88 85 84 83 85 86 85 82 81 80 79 79 76 71 66 62 66 67 65 67 76
33 30 31 31 33 27 27 20 18 48 50 53 56 75 68 74 86 88 86 89 77 78 77 84 89 89 87 80 91 86 86 85 87 86 83 82 81 81 81 79 75 71 65 62 64 63 64 72 76
40 34 34 42 31 24 18 16 46 51 61 59 58 75 75 88 86 88 93 91 92 95 97 94 91 84 88 94 93 90 87 86 88 86 84 82 82 82 81 79 76 73 67 60 60 61 69 70 78
40 32 40 43 31 22 16 30 45 51 56 55 66 74 75 83 90 96 95 96 97 98 94 93 91 96 97 93 88 84 86 87 88 87 84 82 83 84 82 79 78 76 72 67 64 68 70 70 75
40 33 36 34 24 18 18 38 48 54 66 64 59 62 67 82 96 96 96 97 97 96 96 98 96 95 93 93 94 90 89 88 88 86 85 85 86 84 82 81 78 74 72 68 66 68 69 66 68
27 28 36 28 22 21 15 29 48 57 74 59 59 70 75 93 96 92 96 96 98 98 99 99 97 95 97 97 94 92 88 89 88 88 90 88 87 85 83 80 78 75 71 67 66 67 67 66 71
22 31 34 25 22 17 17 26 69 70 74 68 70 85 90 95 94 91 95 98 98 98 98 98 97 96 97 97 93 92 87 93 92 92 90 88 87 81 78 79 78 75 72 69 68 68 68 64 69
24 31 26 18 19 17 56 44 62 60 62 66 73 92 95 96 96 96 97 98 98 95 98 97 95 94 94 92 92 90 95 94 93 91 91 90 83 80 78 80 79 77 74 69 67 65 65 59 50
26 27 18 17 15 19 58 64 57 56 74 64 65 96 98 94 93 93 94 98 98 98 97 96 94 90 89 87 83 89 96 92 89 88 88 84 83 86 85 78 78 77 68 61 58 60 60 52 52
27 19 17 15 26 33 48 70 60 80 58 68 62 89 91 91 91 91 95 96 97 98 98 94 91 90 89 84 82 83 87 83 82 78 82 81 82 80 81 71 69 62 67 63 65 70 60 55 48
22 20 18 16 22 36 54 64 58 72 70 69 79 83 88 84 87 88 90 93 95 98 98 94 91 91 90 85 80 87 95 90 82 82 78 73 73 74 76 74 66 66 66 71 73 66 58 57 50
24 25 23 20 25 31 41 61 54 62 64 69 79 84 91 93 95 95 92 94 96 97 98 96 90 92 91 88 86 93 91 84 78 75 75 74 73 73 68 73 73 72 69 75 70 66 62 56 48
24 27 25 22 29 32 45 63 55 58 71 74 77 83 91 90 92 93 87 92 92 95 96 97 95 94 94 90 93 93 86 70 73 79 77 77 73 74 78 78 79 76 76 76 72 69 70 62 52
28 34 34 28 32 28 30 45 58 62 67 74 77 87 89 91 86 91 83 86 89 92 93 95 92 92 89 89 87 84 71 74 77 84 82 78 77 78 84 84 84 82 82 80 77 76 75 68 61
41 40 35 28 29 31 41 51 62 65 60 67 78 88 95 93 91 91 85 84 88 86 89 93 87 80 78 79 73 75 73 66 66 86 82 77 80 83 84 85 83 85 84 82 77 78 74 74 70
40 39 37 31 32 41 51 55 67 66 64 59 64 88 93 93 92 85 90 91 83 84 84 88 84 79 82 80 77 71 85 80 77 75 84 81 80 85 84 84 86 82 83 83 83 75 80 80 75
32 34 35 28 31 40 43 50 57 65 70 68 69 79 90 90 84 83 86 90 86 87 89 84 86 84 81 79 76 70 61 76 79 82 77 85 84 86 88 88 91 86 79 79 80 80 78 83 80
32 31 31 25 28 37 34 36 42 62 64 68 68 77 89 85 87 84 88 90 92 91 92 92 89 86 75 69 66 65 68 84 86 82 84 86 87 86 86 89 92 90 92 87 86 82 87 83 78
30 31 31 28 26 32 37 38 60 55 62 60 60 64 74 81 89 86 86 89 92 91 92 90 87 85 80 75 71 77 82 86 86 76 76 86 91 86 84 88 92 90 92 91 86 83 77 84 83
36 26 26 30 38 44 33 45 45 57 54 52 52 68 69 74 78 80 83 87 89 85 83 82 82 82 76 75 70 69 68 69 63 62 63 83 91 91 90 90 90 94 93 94 91 88 86 81 87
31 27 28 30 37 42 39 43 37 43 47 51 52 55 65 67 72 80 79 78 80 78 82 81 78 77 71 69 67 68 70 69 72 76 80 81 90 90 90 90 94 94 96 95 94 95 93 94 96
24 29 35 38 43 56 41 43 44 37 31 35 46 47 60 64 68 70 69 70 78 77 77 76 75 73 69 66 66 68 74 77 77 74 77 76 86 93 93 92 94 96 97 97 96 96 94 96 97
29 37 56 66 65 62 37 50 48 32 27 31 48 49 50 62 60 71 69 71 74 75 72 70 69 70 67 67 67 69 72 72 76 73 75 76 84 93 95 96 96 97 96 98 98 97 97 98 97
35 37 64 62 77 62 50 58 43 30 30 31 42 46 49 61 58 58 62 63 65 64 66 65 65 66 63 65 66 69 69 74 72 75 76 83 82 83 89 94 96 97 98 99 98 98 98 98 98
36 45 34 55 73 78 60 46 34 32 34 32 42 46 50 55 62 60 55 60 60 59 62 65 62 60 59 61 63 67 73 73 70 76 87 88 92 98 98 97 98 98 99 98 98 98 99 97 98
27 31 49 63 70 76 61 56 53 37 31 26 26 42 44 55 50 58 58 56 55 60 60 65 61 59 55 56 59 61 65 73 86 93 94 96 98 97 98 98 98 99 98 98 97 98 98 98 98
35 39 42 47 64 77 79 60 48 40 26 30 27 36 42 54 52 49 55 55 54 52 62 63 66 62 59 59 60 62 71 83 92 96 98 98 99 98 98 98 98 98 98 98 98 98 97 94 92
24 32 38 57 61 71 77 55 36 41 36 31 28 27 36 42 46 47 49 53 55 55 55 60 67 69 69 75 78 86 96 96 97 97 98 99 98 98 98 98 98 97 98 98 97 96 92 91 92

GFSSGP_sfc_rhum_069.txt.gz
RH
75 65 44 38 30 42 53 32 30 23 20 52 48 52 80 87 73 76 88 88 90 96 91 90 93 92 90 88 88 87 86 86 86 86 85 84 82 81 79 76 74 75 73 70 70 68 72 72 74
55 40 43 38 41 42 31 28 24 22 32 50 52 65 82 84 76 82 87 80 84 89 95 93 94 92 88 86 88 87 83 86 86 85 84 83 81 80 77 74 74 76 74 70 70 70 73 76 80
41 37 40 44 46 40 35 25 22 48 50 53 56 70 74 86 75 80 77 91 85 81 79 91 94 90 87 85 86 87 85 86 86 85 83 81 80 79 77 74 74 75 73 69 66 63 71 77 82
32 31 30 35 41 31 29 21 20 33 47 54 61 78 70 76 84 87 88 88 96 81 79 82 94 87 88 84 85 88 90 88 87 85 83 81 80 80 78 74 73 75 73 65 61 69 78 82 82
42 35 36 44 35 27 23 20 24 53 58 59 62 64 76 91 89 92 95 88 97 89 93 91 90 88 84 88 86 90 88 90 87 85 82 82 82 80 78 74 73 74 72 63 68 78 82 82 82
40 34 43 48 34 25 21 38 52 56 61 60 65 71 73 87 87 97 94 96 95 98 96 91 86 85 87 84 88 90 88 91 86 85 83 83 83 81 79 77 75 73 72 70 72 80 81 81 80
38 40 47 40 30 25 20 47 53 60 64 58 67 65 71 79 96 95 98 98 98 97 96 95 94 91 90 87 93 94 86 88 86 84 85 85 84 82 80 78 76 73 68 68 67 75 80 80 79
34 33 48 35 30 24 21 49 55 59 56 63 64 70 72 86 95 95 97 98 98 98 98 98 98 96 97 96 95 97 91 91 87 87 88 88 85 83 80 77 73 67 66 67 68 74 76 80 80
27 34 39 32 28 20 27 44 76 75 82 76 74 90 89 95 94 96 98 98 98 98 98 98 97 96 95 95 96 94 97 93 90 90 90 88 88 81 77 74 72 68 71 68 69 72 80 80 80
28 36 29 22 20 19 36 54 61 72 66 69 77 83 96 96 98 98 98 99 98 98 99 98 97 96 95 92 94 94 96 95 94 90 89 90 85 81 75 78 74 70 69 72 72 67 71 73 76
29 30 24 20 20 18 45 69 64 63 60 57 66 82 96 99 97 98 93 97 98 97 98 98 95 92 90 94 94 95 95 98 98 94 91 84 83 84 80 79 82 71 62 54 58 55 50 54 66
28 22 22 20 19 34 57 62 63 64 49 65 63 91 93 96 98 98 92 98 98 98 98 96 95 94 91 84 83 84 94 98 98 96 84 82 85 84 83 74 74 62 64 61 65 65 60 55 64
25 21 22 20 23 35 58 61 54 66 60 73 73 94 97 96 96 96 97 98 97 98 98 97 93 93 90 89 80 94 96 94 92 92 79 75 76 74 77 76 68 64 72 69 66 63 60 55 54
24 26 26 25 23 51 52 63 69 49 72 77 86 95 95 95 97 87 92 93 97 98 98 96 94 93 93 89 90 95 93 91 91 88 74 73 70 73 69 73 70 67 74 74 70 62 61 54 52
28 27 27 26 26 30 48 61 68 54 73 75 90 90 96 95 95 96 92 93 94 95 97 97 96 96 89 89 94 95 91 86 86 82 77 75 72 66 69 75 75 74 76 75 73 69 66 60 50
30 37 38 29 30 28 34 37 42 66 74 84 91 94 94 96 94 95 95 87 90 93 95 96 94 96 96 97 96 95 86 89 80 81 77 74 72 73 74 74 75 80 80 79 77 77 75 67 59
44 38 36 29 29 37 40 40 44 66 77 85 88 97 95 98 96 95 85 86 90 89 95 96 97 96 92 85 86 85 80 79 79 87 75 81 75 77 71 73 81 84 86 84 79 82 77 74 70
42 43 57 37 29 43 50 47 48 68 70 72 89 96 99 98 96 93 97 83 86 87 89 92 94 93 93 84 84 82 88 75 78 84 83 82 77 81 80 84 88 87 86 85 83 77 82 77 74
35 40 42 32 26 41 46 44 43 64 77 76 78 95 98 96 94 93 97 89 84 87 90 90 91 88 80 82 86 81 77 73 79 78 80 84 83 86 89 89 92 89 84 79 81 81 80 86 84
38 40 39 32 27 40 44 44 43 66 69 66 68 80 94 95 98 94 98 98 92 91 87 86 82 80 72 72 71 69 62 73 79 77 76 84 85 89 90 92 93 91 92 86 86 83 88 84 85
37 40 39 36 30 40 43 40 39 56 63 67 64 71 88 92 96 95 96 96 96 90 88 92 84 83 79 80 70 70 69 70 72 75 78 83 87 89 90 90 92 94 93 90 87 84 78 82 86
37 33 31 33 40 46 36 48 37 48 64 69 62 75 84 87 85 92 95 97 93 96 95 95 93 92 85 85 82 76 66 59 58 68 69 75 88 90 91 90 91 95 93 90 90 86 90 90 94
35 34 35 37 41 47 44 47 38 49 56 57 58 60 72 80 83 88 91 92 95 94 96 95 91 89 83 86 82 82 80 73 72 76 79 83 90 92 93 94 94 93 95 93 93 94 92 91 96
30 36 39 48 47 59 44 46 48 43 40 43 48 51 61 74 76 79 81 83 91 92 92 93 90 86 83 82 83 80 78 76 77 87 83 80 90 91 94 93 94 94 96 96 95 93 93 93 95
37 42 62 67 63 55 41 51 43 35 31 30 35 48 52 63 74 79 84 85 86 91 90 90 89 87 82 80 78 77 73 76 78 77 82 73 74 92 91 93 93 95 95 96 98 98 96 96 96
40 40 66 62 73 58 55 67 48 37 34 32 30 37 45 62 70 74 78 78 80 85 84 84 84 83 79 78 76 73 69 72 79 87 84 88 82 82 85 95 92 94 96 98 98 98 98 98 97
40 48 34 53 77 81 63 49 37 32 34 33 48 50 53 58 65 69 72 72 74 80 82 81 78 78 75 76 74 73 74 74 75 84 86 85 90 89 93 96 96 97 98 98 98 99 99 99 98
33 34 51 65 71 76 63 63 55 39 35 27 41 64 59 54 63 61 67 70 67 70 75 79 73 70 69 69 70 69 73 79 83 84 93 94 93 95 94 98 99 99 98 99 99 99 99 99 99
41 37 46 50 67 72 81 65 50 44 41 31 30 50 60 57 62 63 60 60 63 63 70 74 72 66 62 62 67 71 76 78 84 82 89 96 98 97 96 98 98 98 98 99 99 99 99 98 98
30 37 42 63 58 76 78 54 38 42 40 40 34 30 42 52 56 57 62 60 61 63 67 70 73 71 70 63 65 73 75 78 80 84 95 96 95 96 98 98 98 99 98 98 98 99 98 96 96

GFSSGP_sfc_rhum_072.txt.gz
RH
71 59 47 33 24 40 48 33 35 26 25 46 58 56 64 87 66 68 90 91 86 95 95 93 92 90 90 88 88 88 86 85 86 86 86 86 84 82 80 78 76 75 73 68 68 69 69 72 75
58 41 40 38 34 34 27 30 26 23 24 55 65 70 80 77 79 85 93 89 86 89 94 91 92 89 89 88 89 88 86 86 86 86 85 84 83 80 78 78 76 75 73 67 65 71 72 73 77
46 39 37 41 48 37 34 27 23 28 51 57 60 76 76 77 80 82 87 90 89 82 82 90 93 88 87 86 87 86 86 87 86 85 84 83 80 78 78 78 77 76 74 73 71 74 77 79 82
33 32 32 38 54 34 30 26 24 25 46 60 67 68 72 82 93 95 89 90 93 89 84 93 94 91 90 84 84 84 87 87 86 85 84 81 78 77 78 79 78 76 72 69 72 76 81 84 83
39 34 38 48 38 30 26 24 42 52 57 60 67 62 75 92 89 92 96 90 95 95 90 94 91 91 90 86 84 90 86 86 86 84 82 80 79 77 78 79 77 74 69 69 77 81 82 84 81
39 36 44 44 35 28 25 23 55 60 63 62 66 72 70 91 86 96 95 96 97 98 95 90 87 85 85 87 83 91 90 88 87 84 83 82 80 78 78 79 76 72 78 80 83 83 82 80 80
37 41 48 43 34 28 20 54 55 58 66 58 68 69 72 84 96 94 97 98 98 97 95 95 93 89 87 86 85 91 89 87 85 84 84 83 82 80 78 77 75 75 83 84 83 82 81 80 79
38 35 58 40 34 27 23 51 59 59 52 68 68 67 73 87 92 97 97 97 98 98 96 97 98 98 97 96 88 89 90 88 88 85 86 86 85 82 79 76 72 72 79 82 81 81 81 81 81
31 37 44 37 31 22 28 45 73 76 84 79 71 91 92 98 93 98 98 98 98 97 97 98 98 97 95 96 94 89 92 92 87 86 89 87 85 81 79 70 71 70 75 80 82 82 82 82 82
33 40 33 26 24 22 22 41 52 71 75 65 73 80 98 97 96 97 98 98 99 98 99 98 97 97 98 95 97 96 96 94 87 84 89 86 86 83 78 73 72 73 75 81 82 84 82 80 80
31 32 27 23 21 22 26 68 66 71 65 58 61 79 95 96 96 95 95 96 98 98 98 98 96 94 94 95 98 99 100 96 96 90 91 81 83 89 78 69 70 74 67 64 75 75 74 85 83
31 24 24 22 24 35 46 66 66 72 57 71 66 87 88 91 94 93 91 97 98 98 98 98 95 95 94 90 92 96 98 98 96 96 82 79 83 76 76 66 72 69 72 62 60 64 68 79 82
28 23 24 23 26 29 48 52 60 64 60 78 72 95 97 86 92 91 88 93 96 97 98 98 94 95 93 90 85 93 97 96 96 92 78 73 70 71 70 73 67 72 73 61 56 56 63 74 80
24 25 28 28 25 36 56 61 72 54 73 84 81 94 96 97 92 89 95 93 97 98 98 97 95 94 92 87 89 98 97 97 96 91 78 70 69 72 66 68 69 75 68 68 54 53 59 65 70
29 32 29 28 29 30 50 50 69 59 76 86 94 93 96 97 98 86 81 87 92 96 97 98 96 95 94 94 98 98 95 95 95 89 79 75 67 66 66 71 74 74 75 68 62 64 62 61 56
33 36 37 29 34 34 38 42 38 54 79 83 93 95 96 98 97 96 90 80 83 93 96 96 96 95 96 97 98 97 94 97 97 88 81 78 74 67 68 69 73 76 79 76 68 70 67 63 61
42 37 38 30 29 42 46 45 42 75 77 78 92 95 96 93 96 97 95 80 86 89 96 96 96 97 96 97 97 96 95 95 96 92 75 72 71 71 66 68 76 80 82 80 72 79 72 68 64
41 47 55 42 36 39 46 50 36 63 79 84 90 94 92 90 96 96 97 95 90 89 91 95 96 97 97 93 95 97 97 97 96 90 73 68 68 70 74 75 80 82 83 82 80 79 81 74 69
35 40 44 40 32 37 33 42 36 50 80 79 82 93 99 99 94 97 96 83 91 94 91 94 97 96 95 94 86 96 96 97 95 84 74 72 73 75 82 81 88 87 84 83 83 81 80 84 77
38 40 42 36 30 34 36 41 36 56 64 72 68 85 94 97 99 98 94 81 89 87 91 91 89 88 87 87 80 92 94 89 87 86 84 85 80 79 85 87 93 93 92 88 88 82 86 83 83
41 38 44 38 37 38 47 47 38 38 65 70 66 70 78 93 98 95 94 86 87 88 90 88 84 82 77 78 79 84 84 88 86 83 81 86 87 90 91 92 94 94 94 92 89 86 81 83 88
39 36 35 37 44 51 46 59 39 32 42 65 67 75 78 91 92 96 91 88 87 94 94 83 80 80 79 83 76 70 68 74 65 66 78 76 89 90 90 92 94 94 96 93 91 87 87 88 93
33 36 38 39 48 53 49 53 43 45 39 36 52 66 74 86 91 96 96 90 85 94 90 97 94 89 87 84 77 78 75 64 67 69 67 72 84 86 90 92 93 96 94 94 94 94 92 90 94
35 44 45 53 55 68 49 49 52 42 37 33 44 52 65 79 89 91 93 94 91 94 98 97 96 92 88 87 86 81 80 81 79 79 82 87 90 91 92 92 95 95 97 96 95 97 95 94 92
40 47 66 70 72 68 46 54 40 35 31 33 34 38 55 66 86 93 97 97 98 97 96 93 96 93 88 90 87 84 81 80 78 76 83 83 87 94 94 95 96 97 95 96 96 96 96 97 97
46 49 71 64 75 58 57 62 47 40 36 38 34 32 46 65 78 87 89 91 94 95 96 95 94 90 87 86 85 83 82 80 80 86 84 90 85 89 87 93 95 96 96 97 98 99 98 98 98
44 54 41 54 78 80 59 51 36 34 33 34 37 42 46 67 82 79 83 85 87 89 90 92 91 88 85 85 83 83 85 84 82 89 93 93 94 91 91 92 94 96 97 98 98 99 99 99 98
38 39 55 69 68 72 63 66 50 39 34 38 32 54 58 65 77 78 80 81 80 83 84 88 85 86 83 83 82 81 83 84 82 88 88 91 91 93 93 93 96 97 98 98 98 97 98 98 99
44 45 50 53 67 66 68 63 52 38 41 40 36 32 63 67 68 72 73 76 76 78 86 87 85 82 82 80 81 80 83 82 83 83 86 92 92 92 91 91 94 95 96 98 99 99 99 99 99
40 42 43 58 58 79 72 48 38 41 42 43 38 38 36 66 67 73 73 77 77 76 82 85 85 81 80 78 80 81 80 79 82 82 81 83 90 92 89 92 93 96 97 99 99 99 98 98 99

GFSSGP_sfc_rhum_075.txt.gz
RH
53 35 30 20 17 19 18 16 22 18 17 23 44 44 38 48 45 47 74 78 76 83 77 74 93 90 89 89 90 88 87 87 86 86 86 86 86 84 82 80 78 77 74 70 70 71 74 71 76
38 32 26 23 17 18 17 18 18 16 15 46 58 54 55 45 63 67 79 84 81 89 80 73 94 92 89 89 88 88 87 86 86 86 86 86 84 82 81 79 77 75 72 66 66 68 72 74 78
35 28 23 24 25 19 18 18 16 15 20 38 42 56 58 52 65 68 74 80 86 86 84 73 93 89 85 84 88 87 86 86 87 86 86 84 82 81 80 79 78 75 72 67 65 70 76 79 82
23 21 21 23 23 22 20 17 18 19 26 43 47 43 56 60 73 76 75 75 84 83 85 90 90 89 89 87 83 83 87 87 86 85 85 83 81 81 80 79 76 73 70 72 70 74 78 83 82
24 22 24 25 24 21 20 18 20 32 39 44 51 42 53 70 76 71 76 76 80 88 93 92 91 91 86 84 80 83 83 84 86 84 83 81 81 81 81 80 78 78 79 79 78 78 79 82 82
24 24 25 22 22 20 18 18 36 44 43 47 46 48 47 72 70 75 82 81 83 93 94 93 89 89 88 83 81 85 93 92 93 84 82 80 81 81 82 81 78 76 79 81 84 82 80 80 80
25 24 24 25 23 21 17 32 36 38 40 38 48 44 50 67 75 85 89 91 96 96 94 94 94 88 89 87 86 88 89 88 88 87 82 81 82 81 82 78 76 78 85 86 86 84 82 81 80
24 22 28 25 22 19 15 35 42 39 32 54 48 42 48 62 79 88 94 96 97 96 95 95 94 94 91 92 88 87 91 88 89 85 84 84 84 84 80 78 84 84 86 85 83 83 82 82 82
21 24 26 24 24 17 16 25 46 54 47 54 55 59 70 80 82 90 95 97 97 97 94 94 97 92 89 86 85 85 92 89 95 90 87 82 76 71 66 72 85 86 85 83 82 83 83 83 82
21 27 24 20 19 17 17 22 24 45 51 50 60 82 87 82 85 92 96 96 96 97 94 90 86 87 90 83 87 91 89 90 89 89 85 79 77 70 62 71 82 84 84 83 83 84 84 68 54
24 23 21 18 16 17 18 28 38 44 35 35 41 63 80 80 82 81 86 92 95 90 94 96 95 93 89 80 87 97 99 92 97 96 90 78 67 65 68 70 68 70 77 61 68 66 52 58 53
24 20 19 16 17 22 22 33 43 47 28 51 44 64 77 76 80 87 86 92 92 95 94 94 91 90 84 80 84 96 98 99 98 94 81 74 67 69 69 66 66 65 64 66 66 58 63 69 59
23 18 18 17 18 22 28 30 30 43 50 56 67 75 78 72 80 82 78 83 90 96 96 97 92 92 89 81 85 92 97 97 96 94 76 64 64 68 64 65 57 51 56 61 61 60 58 59 58
20 19 18 21 20 22 25 30 48 38 43 60 67 75 82 76 76 84 87 83 85 87 96 94 92 92 90 85 91 96 96 96 94 94 75 70 63 64 62 66 61 54 49 52 58 58 56 53 52
22 24 22 20 18 20 34 32 45 41 59 63 66 73 85 79 75 78 78 80 80 90 94 97 92 93 90 91 96 96 98 94 95 89 74 63 60 60 64 64 61 58 51 57 55 59 56 54 51
25 27 26 19 25 34 30 24 25 34 52 54 70 74 82 85 79 78 75 74 72 88 96 93 92 96 95 95 94 96 98 96 95 77 68 68 61 61 66 60 64 61 58 59 56 56 51 49 49
32 23 28 21 21 35 31 25 22 53 54 52 60 71 75 82 86 77 76 72 76 80 82 94 97 98 96 96 89 96 98 97 94 87 69 68 62 63 59 61 64 76 73 66 50 50 46 46 44
28 32 30 25 25 28 31 26 21 28 45 44 50 63 74 77 80 76 76 72 73 80 88 92 97 96 97 94 93 97 98 98 96 90 71 69 60 70 64 71 78 74 68 61 57 55 55 47 45
26 29 25 26 26 26 23 23 22 24 49 49 54 60 73 77 74 77 80 76 80 85 90 94 97 96 95 96 93 97 98 98 97 90 77 72 67 70 76 74 80 74 64 64 71 67 65 63 59
30 31 29 26 26 28 24 24 21 26 31 34 38 52 62 80 85 85 85 79 80 85 85 92 93 91 85 86 72 89 95 96 95 92 83 78 73 74 71 71 76 78 79 75 78 74 75 72 68
35 34 31 26 28 26 30 26 26 23 36 42 46 45 48 66 84 88 91 80 80 80 83 82 90 88 84 82 85 92 93 96 97 93 90 80 76 73 74 73 82 78 78 81 80 73 69 67 72
41 31 30 30 30 25 32 33 30 24 23 30 30 50 50 59 71 82 86 84 78 76 81 77 83 84 82 82 82 89 91 94 91 88 85 81 78 76 65 77 82 83 87 81 84 71 71 70 72
30 32 31 29 31 34 28 34 31 30 25 22 22 33 52 56 66 79 83 81 75 74 82 76 77 78 75 76 70 80 86 85 89 89 88 82 78 73 76 79 78 84 80 84 83 85 83 80 78
29 33 36 42 41 52 37 35 32 28 26 23 24 27 43 58 63 68 72 76 78 76 80 80 75 75 73 74 70 70 76 72 72 74 76 72 76 82 79 75 80 78 81 81 83 84 84 83 87
31 38 46 58 59 49 38 41 33 26 25 25 24 22 27 53 64 69 76 81 82 83 83 84 79 76 75 73 72 70 71 67 63 63 64 65 65 70 73 74 78 79 79 81 82 83 89 88 89
41 39 50 46 58 44 42 43 30 27 28 28 28 28 29 46 62 68 70 75 79 84 83 84 83 76 74 74 71 70 68 64 63 64 62 68 64 66 68 74 72 73 74 77 80 83 84 86 89
44 48 36 47 58 59 42 38 28 24 25 25 27 27 30 36 54 63 68 71 74 78 81 84 80 73 73 73 71 72 73 71 67 68 70 70 70 71 70 71 71 71 72 74 79 84 84 88 90
34 34 48 51 53 51 44 46 32 30 24 27 28 28 26 43 53 61 66 71 70 71 75 78 74 72 72 72 71 70 71 72 71 72 74 74 72 70 68 69 68 66 70 75 80 85 84 93 98
38 40 43 40 50 46 47 43 42 34 28 31 34 31 29 36 51 59 63 65 67 68 72 76 74 71 70 70 72 73 74 74 74 75 75 73 73 71 76 76 76 75 77 83 90 91 90 96 96
33 38 40 53 50 63 57 40 30 36 32 36 33 32 32 30 42 52 60 65 67 69 69 73 74 72 76 75 75 79 77 75 78 76 74 73 71 71 70 69 70 76 90 96 96 96 95 98 98

GFSSGP_sfc_rhum_078.txt.gz
RH
38 16 13 15 13 8 7 8 10 11 12 11 17 21 23 27 25 31 54 62 68 60 52 61 93 91 91 91 89 88 88 87 86 85 85 85 86 86 86 84 82 79 76 74 73 73 73 74 76
16 20 17 12 11 9 9 11 12 11 11 16 23 33 32 25 37 45 58 61 62 68 54 52 95 90 91 91 89 89 87 87 85 86 86 86 86 85 84 82 80 79 76 72 72 72 74 76 78
22 21 15 12 11 10 10 11 12 12 12 15 26 30 31 26 42 46 54 60 65 79 56 59 92 91 88 83 89 88 87 86 86 86 85 85 84 83 82 81 79 76 75 71 72 75 76 79 81
17 13 13 14 12 13 12 12 12 15 15 19 24 26 36 37 47 48 55 57 64 85 76 88 93 89 84 86 87 80 87 87 87 86 85 84 83 82 81 80 77 75 73 70 71 76 80 83 83
14 12 12 11 12 12 12 12 14 21 20 26 29 21 31 40 51 54 56 57 59 74 88 75 92 90 87 84 82 89 85 86 87 86 85 84 82 82 81 79 76 74 74 75 75 79 81 83 83
14 13 12 10 12 12 11 13 18 23 22 27 27 25 27 43 51 53 62 61 69 77 90 80 88 90 89 91 90 90 82 82 89 79 85 83 82 82 81 78 77 81 78 80 82 81 81 82 82
14 12 11 10 11 13 12 15 17 16 17 19 24 26 26 37 48 61 76 81 84 89 89 89 81 92 90 88 89 94 92 84 88 89 83 84 84 83 81 82 82 82 85 84 83 84 83 82 81
12 12 14 11 11 12 11 14 18 19 16 33 25 19 24 37 52 58 72 81 88 94 94 94 88 92 77 73 85 88 93 91 90 88 89 87 86 84 82 81 85 87 88 86 82 84 83 83 83
13 13 12 10 12 12 11 14 14 21 20 27 30 27 35 46 55 57 73 90 92 95 95 94 94 89 85 84 79 84 87 90 90 90 90 91 79 76 67 70 88 89 88 86 84 85 85 84 83
13 12 11 10 10 12 12 14 15 18 15 22 31 41 53 51 51 60 70 81 92 94 93 92 88 87 80 82 77 74 71 76 84 88 92 86 84 78 59 82 89 88 86 84 85 85 84 65 44
12 12 10 12 11 11 11 12 14 16 14 12 16 20 44 48 47 52 56 66 77 79 91 89 87 84 89 92 85 93 88 87 90 90 95 88 86 72 71 75 65 66 67 48 56 60 38 39 37
14 12 10 10 11 12 12 11 15 13 16 25 19 27 38 44 46 49 52 57 69 69 75 80 89 84 86 90 86 90 94 87 96 98 95 94 89 70 70 63 54 54 44 48 46 40 43 43 40
17 11 11 12 12 12 12 14 13 14 14 28 31 37 38 40 43 45 47 60 68 72 70 77 76 78 74 73 74 91 96 95 98 96 86 82 75 69 64 66 60 54 48 46 45 43 43 44 43
13 13 11 10 11 12 15 11 22 12 21 33 41 36 37 40 43 45 51 64 75 62 74 73 82 82 76 73 86 97 95 97 97 96 89 78 71 67 62 58 59 59 56 45 44 44 38 36 37
13 16 12 11 11 11 12 14 16 15 30 30 35 36 42 46 43 47 50 55 58 54 66 84 83 84 79 76 94 95 91 94 96 92 83 72 65 64 61 54 58 60 51 50 49 44 38 38 34
17 17 17 13 11 12 19 13 14 17 27 27 34 37 48 52 46 46 54 55 58 55 65 79 77 89 81 79 90 98 92 93 94 85 71 69 63 61 59 52 58 59 59 55 50 43 42 39 35
19 17 18 14 12 16 20 13 13 22 22 23 29 35 40 46 51 49 54 53 50 50 64 75 88 94 93 89 97 96 94 91 93 84 66 64 59 61 54 51 53 52 47 52 49 44 42 40 36
20 19 17 16 12 14 16 16 11 12 18 20 23 30 35 40 49 52 53 52 51 54 61 71 92 95 94 94 96 98 94 94 93 80 58 50 44 53 46 40 51 43 41 44 39 44 38 35 33
16 18 17 13 13 18 16 14 11 10 15 20 22 26 31 36 39 52 55 56 57 64 66 80 96 94 92 93 88 98 97 94 92 74 55 52 48 48 60 59 56 49 50 50 54 46 49 43 41
21 20 18 14 16 18 14 12 10 11 13 15 15 23 28 34 41 58 62 60 63 67 72 84 88 91 82 71 66 89 92 93 89 82 64 65 63 68 72 63 62 59 66 73 70 55 54 54 52
24 23 21 19 16 16 16 16 11 10 14 16 19 20 23 32 43 55 68 64 62 68 69 78 84 88 84 78 70 89 96 96 94 89 80 70 67 62 71 73 66 75 66 64 70 67 66 60 74
25 18 21 22 22 22 18 19 12 14 14 13 15 21 25 27 37 46 60 59 61 60 67 74 80 84 82 78 76 78 83 93 86 84 77 73 69 68 59 70 66 73 64 60 63 59 65 57 62
24 18 22 21 22 23 20 20 14 16 18 15 14 14 22 26 34 43 53 53 54 55 73 77 74 80 80 77 70 70 79 78 84 90 86 76 73 67 68 68 69 61 62 62 64 68 69 61 61
21 25 25 26 26 36 25 19 18 14 16 15 13 13 19 27 31 37 45 49 51 53 67 68 70 74 73 77 76 76 81 89 91 89 86 79 75 76 69 64 72 66 72 66 68 73 75 72 71
23 28 36 45 44 38 22 23 20 17 15 15 16 14 17 25 32 37 44 48 51 56 59 66 64 70 72 74 74 72 77 87 86 79 75 77 74 70 70 73 73 73 71 66 66 70 75 75 72
30 29 35 40 40 32 27 29 20 17 16 17 17 16 18 23 32 36 41 46 50 57 60 69 58 59 63 67 71 70 71 71 70 67 58 62 67 64 70 75 71 69 62 59 62 67 66 66 68
38 40 27 32 36 42 25 25 19 16 14 14 17 17 17 20 28 34 38 43 48 54 62 67 59 52 55 62 62 63 65 66 61 64 63 60 60 54 66 63 62 60 58 56 60 64 63 63 68
26 22 41 38 53 48 27 26 22 21 17 16 18 20 18 22 25 31 36 43 46 50 58 63 59 53 52 56 59 57 59 60 58 60 63 63 61 57 58 60 59 57 56 56 56 57 57 60 68
30 32 30 27 33 41 39 26 21 20 17 18 19 19 20 23 31 33 36 39 43 47 52 59 57 52 50 53 57 58 58 60 61 62 63 61 61 57 55 55 55 54 53 52 56 58 57 61 72
26 30 29 38 37 36 36 30 17 21 24 23 22 20 18 20 25 32 36 40 43 46 48 54 56 52 53 53 57 62 61 57 64 66 65 66 62 58 54 53 51 51 52 53 56 61 74 86 88

GFSSGP_sfc_rhum_081.txt.gz
RH
38 16 9 10 12 9 8 5 6 8 9 8 11 14 15 16 15 28 40 48 56 54 66 59 91 91 92 91 90 90 90 88 88 86 86 86 86 87 86 84 81 78 78 76 77 76 75 76 78
13 9 11 11 10 9 7 6 9 8 8 10 14 16 16 16 18 26 36 45 48 56 49 50 94 92 92 92 90 90 88 88 87 85 86 86 86 87 86 83 81 81 78 75 74 74 75 77 82
19 12 14 11 10 9 9 8 8 9 9 10 14 15 17 18 26 32 42 46 51 55 59 59 92 92 89 92 91 90 88 88 87 86 86 86 87 85 85 83 82 81 78 73 74 75 78 81 84
14 12 10 9 10 9 10 8 9 10 10 11 12 13 18 25 33 36 42 45 50 63 61 86 92 92 90 90 86 87 80 84 87 86 86 86 86 85 84 84 81 80 78 74 75 78 79 85 82
13 11 12 11 9 9 9 9 10 11 12 13 14 14 17 26 36 41 44 47 50 61 69 70 94 91 86 81 76 80 85 95 86 88 86 86 85 84 83 81 80 78 78 79 78 78 81 83 80
12 10 12 10 8 9 9 9 11 13 12 14 14 14 15 29 35 41 52 52 57 64 72 73 88 90 85 83 85 90 86 88 92 83 82 84 84 84 82 81 79 78 81 83 84 83 82 83 80
14 12 12 9 8 9 9 10 12 12 11 12 13 17 16 25 34 47 57 62 64 64 72 79 75 77 93 92 91 93 88 87 91 81 84 85 85 84 82 80 80 83 84 85 85 85 85 83 81
11 11 12 9 9 8 8 10 10 12 11 16 12 13 16 29 37 44 54 60 68 79 82 77 78 86 84 87 92 88 95 97 84 89 91 94 91 84 81 82 83 85 85 85 85 86 85 84 82
10 12 12 9 9 8 8 10 8 10 11 10 14 16 20 29 38 40 61 70 70 92 91 89 83 84 85 84 80 88 91 91 96 85 92 94 92 81 73 72 87 87 86 86 86 86 86 84 82
12 12 10 7 7 8 8 10 10 10 10 12 16 19 29 30 34 38 44 66 72 78 91 88 81 84 85 79 69 64 62 65 77 81 80 88 88 83 70 84 90 88 87 86 87 86 85 66 44
12 13 9 8 8 7 8 8 8 10 11 9 14 13 16 31 31 34 38 49 64 65 75 82 86 77 75 79 73 68 78 81 86 83 89 94 94 94 80 93 88 76 76 58 62 64 41 39 37
12 10 9 8 7 8 9 8 8 9 11 10 12 14 16 27 29 30 35 40 57 62 69 78 84 80 77 70 72 67 72 77 80 84 94 97 97 94 90 88 75 63 48 51 49 42 43 41 37
11 10 8 8 8 8 9 10 10 10 10 9 14 19 20 23 26 28 32 38 48 53 69 78 72 85 79 75 65 75 75 72 81 89 88 97 93 90 89 81 68 50 44 46 43 39 38 40 39
11 10 10 9 9 8 9 9 9 9 8 13 20 22 21 24 26 28 35 42 46 45 50 77 80 82 69 68 74 86 86 86 93 95 92 91 93 92 86 86 70 48 44 42 40 42 39 39 39
11 13 11 11 9 9 9 10 10 9 10 14 19 24 23 25 26 30 33 39 46 43 41 62 74 82 71 74 88 94 94 96 97 98 92 90 90 90 78 83 72 67 51 51 56 47 40 35 35
14 15 17 12 10 9 9 12 9 7 16 16 17 21 24 27 28 28 34 37 38 41 42 62 72 73 74 77 95 95 96 96 96 97 93 87 80 74 76 80 73 66 60 52 53 50 44 37 35
18 19 17 14 10 9 10 12 9 11 14 16 16 19 23 27 31 30 34 38 42 42 42 58 73 73 77 77 96 96 94 96 96 93 92 89 84 80 76 69 66 67 57 66 63 58 57 42 39
22 18 16 16 11 11 13 14 11 11 12 14 13 16 20 26 29 31 36 38 39 40 45 55 71 84 87 96 95 97 97 93 91 76 84 84 81 76 65 61 67 60 60 59 56 62 55 48 38
17 16 15 12 10 13 14 11 10 10 9 11 12 13 17 22 23 31 38 41 43 46 51 63 82 91 93 95 97 97 98 95 88 72 70 72 62 58 55 51 52 52 53 52 56 54 54 45 41
19 19 18 15 12 15 14 13 10 9 8 8 10 11 15 17 22 33 41 44 49 51 54 61 70 84 84 85 88 90 90 93 85 74 60 61 58 49 45 51 57 51 50 54 56 56 54 46 46
22 24 21 19 14 14 16 16 14 11 9 9 9 11 11 15 21 33 43 47 52 53 55 60 76 82 78 79 89 90 88 94 90 84 60 57 64 58 56 62 61 63 57 57 61 59 56 55 53
30 20 19 18 19 23 14 20 14 10 9 8 12 13 13 13 18 27 41 48 50 51 54 65 76 78 77 79 89 90 86 87 81 76 70 56 61 66 64 65 68 70 66 65 68 57 62 62 68
27 19 18 17 21 24 19 20 17 12 11 11 11 11 12 15 17 26 37 43 44 48 54 64 74 73 72 75 84 84 82 80 82 76 68 63 65 63 62 71 74 75 73 67 72 66 67 64 77
21 20 21 20 22 31 22 21 19 14 13 12 11 10 11 14 17 24 32 39 41 44 52 61 68 73 72 72 78 79 81 88 92 85 78 72 69 71 74 66 78 77 75 75 70 73 76 74 74
23 24 34 39 38 39 19 22 21 14 12 12 13 12 11 14 19 23 30 37 40 46 54 58 61 66 72 74 72 74 75 76 86 84 78 75 75 76 78 75 77 76 72 68 71 77 75 80 81
26 26 33 45 47 35 19 26 18 13 12 11 11 12 12 15 18 21 27 35 39 45 51 53 57 60 70 76 71 68 71 71 67 75 73 72 71 68 69 73 68 71 74 67 67 75 70 77 79
36 33 22 42 36 40 30 21 17 15 14 12 13 13 14 13 15 20 24 34 38 42 49 53 52 51 58 70 74 73 68 70 69 67 67 67 66 60 63 68 66 66 65 68 65 71 69 70 76
32 28 42 39 54 52 30 25 24 19 18 14 15 16 16 15 16 20 23 33 35 40 47 52 48 46 50 56 67 66 66 68 65 70 70 67 63 58 56 61 64 65 63 59 60 60 62 67 72
32 34 44 40 37 48 51 34 20 18 17 16 17 16 16 18 20 20 24 27 33 37 43 50 51 43 44 48 55 60 63 65 66 65 69 67 66 62 57 59 62 60 59 59 60 61 60 63 66
23 28 32 51 49 39 41 40 17 20 23 22 19 16 15 16 17 22 23 27 32 37 41 46 51 47 46 46 51 58 59 59 65 65 64 67 65 62 58 57 58 57 55 58 60 61 58 60 61

GFSSGP_sfc_rhum_084.txt.gz
RH
45 22 15 14 18 14 13 8 5 7 8 8 9 12 15 14 14 45 42 51 55 61 69 71 90 91 90 90 91 91 91 90 89 87 88 88 89 87 86 84 82 80 79 77 77 75 77 78 84
18 11 11 13 20 14 10 7 8 8 8 9 10 11 13 14 18 34 47 45 47 53 59 66 90 91 93 93 92 91 89 89 88 88 88 88 88 87 86 84 83 80 81 77 75 76 76 80 85
27 15 15 19 17 15 11 8 8 8 9 9 10 12 13 23 30 33 43 46 48 52 54 68 90 91 93 93 92 91 89 89 89 86 87 88 88 86 85 85 83 82 80 76 76 77 80 83 83
17 14 14 17 13 9 9 8 8 9 9 8 9 11 16 23 25 34 42 41 49 59 61 92 92 90 90 90 92 90 88 89 88 86 87 88 87 86 86 86 84 82 80 78 79 79 81 84 82
14 14 17 16 13 9 8 8 9 10 10 11 12 14 18 28 35 38 42 46 52 64 68 81 94 90 88 86 86 88 91 95 92 88 86 88 86 85 86 85 83 82 81 81 79 81 82 81 80
16 14 17 16 12 7 8 8 10 11 10 12 14 14 21 31 35 44 51 51 61 69 76 76 90 90 86 89 89 89 91 93 86 93 93 86 87 86 86 84 84 83 84 84 84 84 82 81 80
17 15 16 14 13 9 9 8 11 11 11 10 12 16 20 31 38 54 57 64 68 72 75 82 85 85 92 91 89 92 90 84 87 88 93 86 88 86 84 84 84 86 87 86 84 85 83 82 78
12 14 15 13 12 10 7 10 10 11 12 12 10 12 21 39 43 48 58 64 71 76 82 88 89 89 89 91 92 91 89 90 87 92 98 89 90 85 83 86 87 88 88 85 84 86 84 82 78
10 15 17 14 11 9 8 9 8 8 10 9 11 12 14 31 40 43 68 66 74 84 88 86 92 90 89 89 86 90 91 92 95 91 96 95 87 94 81 85 87 88 88 87 86 86 85 81 77
12 16 15 10 8 9 7 9 9 9 10 11 12 14 22 26 36 40 53 66 71 82 86 85 87 91 89 87 84 83 86 93 93 95 97 94 94 93 83 89 89 88 88 88 88 86 82 70 68
12 16 12 10 8 8 8 8 8 9 10 10 11 13 17 28 30 33 35 50 65 69 80 84 85 88 93 88 90 91 93 96 94 96 94 91 95 95 95 96 94 88 87 82 83 78 60 58 59
13 11 11 10 8 8 9 8 8 8 10 10 9 11 14 15 26 28 33 42 58 66 68 80 83 84 88 92 87 91 94 94 94 91 91 92 96 97 96 95 96 83 76 76 73 65 62 59 56
12 11 9 9 9 8 8 9 10 10 12 8 8 12 16 16 21 26 28 47 53 60 77 76 79 84 82 84 86 84 90 94 91 94 90 93 94 96 94 95 96 73 62 62 62 58 51 57 54
11 10 10 9 9 9 10 10 9 9 8 9 10 14 17 20 22 24 31 38 50 52 73 80 79 84 81 83 84 85 83 91 94 93 92 91 93 92 95 95 91 59 57 54 54 57 58 54 56
11 13 12 11 10 11 10 12 11 10 9 9 11 16 21 21 21 26 33 41 46 45 68 85 89 87 84 80 86 92 92 94 96 94 92 92 92 91 91 93 90 61 56 54 62 58 61 62 53
16 16 18 14 11 10 11 16 11 8 8 9 11 16 21 22 22 26 31 36 44 44 53 75 79 82 83 89 93 98 98 98 98 98 94 89 89 84 86 89 91 86 77 68 58 62 64 63 63
20 22 20 16 11 11 12 14 10 8 8 13 16 16 19 22 24 27 31 36 38 42 51 72 83 82 84 92 96 97 96 98 97 96 96 90 92 85 85 91 92 92 88 78 65 68 66 63 62
27 23 20 19 13 12 13 13 11 10 12 15 14 15 16 21 24 29 33 38 41 46 53 74 78 80 84 93 96 96 97 97 96 96 93 89 90 91 92 95 95 86 86 76 73 66 66 62 60
22 22 21 16 12 14 15 13 11 11 12 14 14 14 14 19 22 29 37 44 47 54 56 74 79 82 88 94 95 98 98 97 94 93 92 89 86 84 91 95 94 86 81 77 71 68 64 60 58
24 26 24 19 14 15 15 14 12 11 10 10 10 11 14 16 19 31 40 46 53 57 60 76 75 82 84 88 91 91 91 92 89 91 83 82 81 80 80 76 76 72 73 73 74 68 71 66 67
21 28 25 23 17 15 16 18 16 13 11 10 10 10 10 13 19 34 44 50 56 59 62 75 76 83 84 87 90 92 90 90 87 82 79 82 78 68 62 66 61 62 63 67 71 72 69 70 70
33 21 21 22 25 29 18 28 19 14 14 12 12 12 13 14 17 30 43 49 56 59 61 63 75 80 82 87 90 93 90 88 78 74 70 74 70 66 57 61 60 72 68 72 69 74 68 78 68
43 26 31 32 31 28 22 25 21 14 14 12 11 12 15 16 17 27 43 45 49 57 63 66 75 80 79 87 86 87 84 73 75 70 68 68 70 70 69 64 68 71 79 79 73 78 82 88 89
43 43 40 36 32 41 25 26 26 19 16 12 10 12 15 15 17 20 40 43 47 55 63 71 78 82 79 87 86 84 81 77 84 73 66 66 72 75 72 74 79 78 84 79 85 84 86 84 86
30 44 77 73 54 50 23 26 25 18 14 12 13 12 15 18 20 23 38 43 47 56 64 73 75 82 81 85 83 82 78 76 78 75 69 67 71 73 72 75 81 79 80 85 83 83 84 88 88
38 34 70 71 64 46 23 28 21 15 13 12 11 15 19 16 24 24 33 42 45 54 62 65 69 73 79 80 83 79 76 74 74 73 69 67 66 66 69 72 73 75 78 82 84 88 80 87 93
52 47 31 51 54 77 48 22 17 15 15 14 14 15 17 18 20 22 28 41 44 51 62 65 63 65 74 75 78 78 79 78 78 75 71 68 63 60 66 77 74 69 73 75 74 85 80 80 84
42 37 64 67 77 91 41 31 26 22 20 17 18 20 19 18 17 19 22 41 42 48 58 65 60 59 67 73 73 73 76 76 74 76 75 71 66 63 67 74 74 74 72 71 72 72 73 78 84
45 64 74 66 58 97 86 49 35 28 24 24 23 20 22 23 24 23 24 36 40 44 51 61 57 56 60 73 74 72 74 76 76 74 74 72 68 68 65 68 69 69 68 67 69 68 66 72 77
36 44 55 92 87 61 80 68 29 33 24 24 26 20 20 20 21 25 26 30 38 42 46 54 58 54 56 62 73 76 75 73 77 77 75 74 69 65 62 60 62 63 65 66 70 67 61 65 73

GFSSGP_sfc_rhum_087.txt.gz
RH
69 56 43 28 34 36 33 20 12 13 16 17 15 17 21 19 29 73 68 65 72 80 85 82 91 93 92 92 92 93 92 90 88 90 91 90 87 86 85 83 82 80 79 76 75 71 76 79 86
43 27 26 27 36 45 33 16 15 15 14 13 13 17 20 39 48 61 67 61 69 76 80 85 91 92 94 93 91 91 90 90 88 89 90 89 88 86 85 84 83 82 81 76 77 78 77 84 85
40 27 30 33 40 36 28 14 15 14 12 11 15 14 18 44 44 57 60 60 63 72 74 81 91 93 94 94 92 91 90 91 89 89 89 89 88 87 86 86 84 83 80 75 78 76 83 86 84
32 34 28 35 36 24 20 15 14 13 12 11 14 22 31 38 43 55 54 62 68 81 84 92 92 93 95 94 93 92 92 92 88 85 85 88 87 87 87 87 85 82 80 80 77 81 85 87 87
26 32 37 43 28 18 14 13 13 15 14 13 14 20 42 50 50 55 57 58 76 86 92 92 93 91 92 92 93 93 91 87 84 80 82 92 85 86 87 87 85 83 82 83 81 84 83 84 84
31 30 40 38 24 16 13 12 13 16 16 17 17 20 45 49 55 67 68 75 79 87 92 92 91 91 91 91 92 90 90 89 90 92 84 93 91 88 87 86 86 85 86 85 85 84 83 83 81
35 37 36 28 21 17 14 14 14 14 16 19 18 24 52 57 70 72 76 78 82 85 83 95 95 92 93 93 92 91 91 87 87 85 86 89 97 86 87 86 86 87 87 87 86 84 85 80 79
26 29 31 25 22 19 14 13 14 14 17 17 14 19 56 62 68 73 79 84 89 86 91 91 96 93 96 95 92 93 90 89 87 85 90 93 92 82 84 86 88 88 88 87 85 86 84 81 78
25 29 28 23 20 16 13 15 14 14 15 15 16 14 33 58 64 79 86 94 94 92 91 91 96 96 96 97 92 92 89 88 90 90 91 94 97 93 84 89 90 89 88 87 86 86 83 80 77
24 28 24 17 15 16 12 14 12 14 15 19 18 26 47 54 63 83 88 91 94 96 93 91 96 96 97 94 97 95 92 97 98 95 98 95 96 97 94 89 90 90 89 89 87 85 82 71 67
20 24 18 15 14 16 14 12 13 12 16 13 15 27 47 52 54 61 80 81 87 94 95 90 93 95 95 97 98 99 99 99 97 96 97 100 97 94 94 97 97 93 90 87 82 80 72 67 66
23 17 15 14 13 14 15 12 13 15 14 18 16 16 37 40 47 48 55 78 86 92 94 94 91 96 95 95 92 96 98 99 99 97 98 96 98 97 97 97 97 92 88 94 85 82 70 67 62
21 17 14 13 13 13 13 13 13 14 16 14 12 15 20 22 36 40 56 71 82 87 94 94 94 94 94 95 97 96 96 98 98 96 94 95 95 95 96 96 96 85 86 81 80 75 64 64 59
19 17 16 13 13 13 13 14 15 13 12 12 12 15 22 24 26 40 65 69 73 81 88 93 94 95 94 95 94 97 97 96 98 97 94 92 93 94 94 97 95 86 72 73 68 73 58 63 58
20 22 17 16 16 16 14 18 16 15 13 12 12 16 22 26 27 36 51 67 67 79 86 93 94 93 93 94 95 97 98 98 98 98 94 93 91 92 92 97 93 74 63 60 63 67 67 63 60
27 25 27 21 17 15 19 20 16 14 13 14 13 17 26 28 29 37 51 56 61 82 93 94 91 95 90 92 98 99 99 99 99 99 96 93 91 89 94 96 93 75 63 55 67 64 62 68 68
41 42 31 23 16 16 16 18 13 13 12 14 13 20 27 32 31 39 51 55 58 80 93 96 95 95 95 98 98 98 98 99 99 99 99 96 92 88 93 94 92 83 75 68 68 72 65 66 68
47 40 33 29 20 17 18 18 14 14 15 16 22 22 25 30 33 38 47 53 58 83 88 92 94 95 97 98 98 98 99 98 98 98 97 94 92 89 90 90 94 92 83 75 62 68 70 65 62
33 37 33 27 19 19 19 20 15 14 18 21 24 24 23 29 31 38 45 53 58 76 91 92 94 98 97 98 98 98 98 98 98 97 95 93 90 93 92 95 94 92 78 71 66 66 62 67 66
35 48 53 31 23 23 22 23 17 15 16 19 20 22 21 26 33 43 52 55 61 82 87 93 94 96 92 90 90 93 94 94 94 95 94 93 93 91 90 94 95 94 84 75 71 70 73 68 67
47 40 40 34 26 24 29 25 23 17 17 16 16 16 17 20 34 49 54 60 67 80 89 91 94 93 88 89 89 93 93 94 95 92 89 92 91 92 93 94 94 92 82 78 74 69 66 61 75
50 35 31 45 64 76 36 49 27 20 18 16 14 16 16 17 36 49 56 64 68 77 86 88 92 91 88 90 91 92 91 92 85 84 82 82 83 84 82 80 78 78 78 74 77 71 72 75 67
50 43 47 66 67 57 48 49 32 22 21 20 16 14 18 19 45 51 57 60 66 71 84 88 90 86 86 90 87 87 87 80 80 80 83 83 82 74 71 72 71 69 74 76 71 79 82 87 86
55 78 70 64 69 93 66 55 39 25 21 19 17 16 16 21 44 50 53 61 68 70 81 86 89 86 87 88 87 85 83 80 87 77 82 80 75 78 76 65 62 76 74 84 81 83 84 92 91
79 87 99 99 98 89 44 52 41 25 19 18 18 16 17 20 40 52 58 64 69 74 81 86 86 85 86 90 87 82 78 75 77 71 75 75 76 76 76 73 69 77 81 85 83 88 87 90 95
65 86 94 86 94 80 38 45 30 19 17 16 16 18 21 27 45 53 55 60 68 74 79 81 85 77 84 89 87 83 75 73 73 68 66 69 72 69 83 86 83 80 87 89 85 87 92 93 95
77 86 57 86 73 99 72 50 23 19 17 18 18 18 21 32 46 52 53 56 65 73 81 81 83 80 77 88 85 84 80 77 73 72 66 64 67 65 77 80 83 86 82 85 89 92 86 88 89
68 71 79 97 92 96 64 55 44 30 25 21 24 27 27 27 31 45 51 55 59 68 77 81 79 80 81 77 83 82 80 77 77 75 71 70 67 66 67 82 75 78 78 76 81 84 85 83 84
64 94 91 79 77 98 98 84 62 49 32 34 30 28 27 28 31 35 47 51 55 65 71 74 76 76 81 76 79 79 83 77 80 78 74 73 72 69 65 74 77 74 72 73 75 73 75 80 77
68 78 81 98 82 81 98 91 59 62 41 29 28 22 26 24 32 35 47 50 56 63 69 69 68 70 80 78 76 76 76 81 80 80 78 74 75 70 68 72 72 73 71 71 74 74 67 76 80

GFSSGP_sfc_rhum_090.txt.gz
RH
77 57 41 29 32 40 42 27 20 15 22 19 18 16 23 38 31 53 70 80 86 90 91 92 95 92 93 92 92 93 91 88 90 91 90 88 88 87 86 85 83 82 81 77 77 78 80 80 88
48 34 29 32 39 48 38 27 21 17 16 16 16 17 44 62 62 74 78 78 79 86 89 90 95 93 93 93 93 93 89 87 90 90 89 88 87 87 86 85 83 81 81 76 69 78 78 85 87
36 30 36 33 47 44 36 20 19 16 14 13 16 17 36 51 66 69 66 75 79 83 86 85 94 96 94 93 92 93 91 90 91 91 88 88 86 86 86 87 86 84 80 75 72 76 83 86 87
34 37 37 41 45 36 27 23 17 16 16 13 14 35 38 47 60 62 66 73 82 85 85 91 93 96 94 93 92 93 93 92 92 91 89 88 86 85 87 88 86 83 81 79 78 83 86 86 85
31 38 45 51 39 29 21 16 15 15 15 14 16 26 55 63 60 64 71 70 91 96 94 93 94 95 96 94 92 93 94 93 90 89 86 86 89 84 86 88 86 83 82 81 82 84 86 86 86
32 38 48 50 35 24 20 16 14 16 17 17 19 44 59 61 64 72 80 85 93 96 96 93 91 93 96 96 96 95 94 89 87 85 84 86 94 94 86 87 86 85 86 85 86 87 87 88 82
40 44 46 40 31 26 20 16 16 16 17 19 19 46 67 66 75 82 84 88 93 96 97 94 94 94 94 96 96 96 93 90 90 92 87 86 93 94 95 84 86 87 86 87 88 88 86 82 80
32 37 58 38 33 29 19 16 16 17 19 22 17 56 69 62 80 83 91 93 93 95 96 99 96 95 97 98 95 94 94 92 92 93 91 90 90 91 89 92 85 89 88 87 88 87 83 81 81
30 42 44 34 28 24 17 16 14 17 16 19 18 33 40 73 79 89 96 95 93 93 96 99 98 94 95 97 95 92 89 90 89 89 89 94 95 96 95 85 88 89 89 87 89 84 82 81 79
34 42 37 25 22 20 17 17 16 16 19 18 21 62 70 74 79 88 96 96 95 94 95 98 98 96 95 95 96 97 94 94 95 96 96 98 96 96 96 85 92 90 89 88 87 82 81 72 67
32 32 27 22 20 19 18 19 15 14 19 16 17 69 75 78 81 79 84 90 92 94 96 97 98 97 97 99 99 99 99 99 99 98 97 97 96 96 97 98 97 95 90 86 83 76 73 68 71
35 25 22 20 18 18 18 16 15 15 14 16 17 57 68 71 76 78 83 90 96 96 95 97 95 97 97 96 96 99 99 99 99 98 95 99 97 98 98 98 98 91 91 95 96 84 77 72 73
32 27 22 20 17 17 16 16 16 16 17 16 14 46 61 61 62 63 70 84 94 96 95 97 97 95 97 94 95 97 99 97 97 97 97 97 96 95 95 98 96 91 92 89 91 83 74 71 72
26 24 23 20 18 17 17 16 18 15 14 14 15 17 46 49 52 61 80 89 90 90 95 96 97 96 97 97 96 97 98 99 97 97 94 94 94 93 94 96 96 92 82 81 78 80 76 72 72
26 30 26 25 22 21 18 18 20 16 17 14 14 14 22 27 41 57 72 83 84 85 90 96 96 96 96 96 96 98 98 98 98 97 95 93 91 94 93 96 96 84 77 75 71 80 75 71 68
35 37 40 28 23 21 19 24 20 17 17 17 16 15 20 27 32 65 70 73 82 86 93 94 91 96 96 96 98 98 98 98 99 98 96 94 92 92 94 95 94 80 73 67 66 75 70 73 76
47 48 41 35 24 23 21 22 18 16 16 17 16 17 20 29 34 52 68 69 80 88 93 96 97 97 98 98 98 98 97 98 98 99 98 96 93 90 94 96 92 84 72 64 68 80 62 68 76
53 51 51 45 30 25 26 24 20 16 17 17 14 17 18 28 32 46 62 63 81 92 93 95 96 98 98 97 99 99 99 99 99 99 99 95 93 93 91 94 92 82 75 65 71 71 74 72 70
43 44 46 45 37 43 36 31 26 21 20 19 17 19 18 25 28 49 59 62 94 96 96 96 97 98 96 97 98 99 99 99 99 98 96 98 97 96 96 96 93 82 63 66 69 66 64 73 75
38 47 52 46 35 36 41 41 34 31 26 18 19 26 22 25 42 55 63 73 91 96 95 96 96 94 92 97 95 96 96 96 96 97 97 97 97 93 94 92 91 90 66 73 66 65 74 72 69
44 48 48 45 40 40 60 55 41 32 26 19 20 20 22 24 41 56 64 73 94 97 96 95 96 94 92 93 92 95 95 97 96 95 98 97 94 94 94 90 91 89 76 74 63 61 60 63 77
53 41 40 38 77 82 49 78 52 41 34 26 20 22 21 23 33 54 62 73 92 94 93 94 96 97 94 90 92 95 93 96 91 90 91 97 97 94 92 92 90 89 90 78 64 59 59 64 66
58 41 43 54 78 82 67 86 62 40 36 27 22 20 19 20 34 54 59 67 80 91 94 95 96 96 96 87 89 89 89 86 87 88 89 90 94 96 97 91 95 96 95 83 71 76 78 74 84
52 56 67 64 82 96 62 72 66 46 34 27 20 21 20 20 34 51 54 62 86 89 94 97 96 95 95 89 89 86 87 86 91 88 90 88 85 91 90 86 89 90 94 92 87 80 82 86 87
75 93 99 99 98 82 48 60 58 36 28 23 21 19 20 34 46 55 64 75 86 93 96 96 95 96 95 89 89 84 83 85 83 84 86 86 84 84 86 81 81 84 84 87 83 85 85 89 90
72 93 99 87 96 78 49 58 46 33 28 23 20 20 19 28 51 58 68 73 78 87 93 92 94 96 95 91 88 84 80 85 85 77 80 83 79 76 75 81 78 82 78 77 81 84 88 91 93
81 98 78 98 95 94 73 57 38 30 30 27 19 20 31 38 56 62 68 71 75 83 88 88 89 90 92 86 87 84 80 82 83 75 73 78 75 71 81 88 80 85 88 88 86 90 92 94 94
67 84 98 99 95 96 71 64 74 62 56 29 29 33 38 58 55 62 66 70 72 77 83 86 83 84 91 82 86 84 81 75 76 76 78 78 74 71 75 87 84 83 85 86 92 85 90 93 92
87 97 96 89 88 96 94 92 78 78 65 55 45 30 37 41 64 61 61 66 71 76 81 86 83 82 85 90 89 84 84 78 77 82 78 75 74 77 76 76 82 83 81 83 85 86 88 88 83
64 92 94 99 92 90 99 85 87 78 66 54 48 35 28 32 40 51 59 62 73 80 82 84 83 83 82 84 89 85 83 81 81 82 80 76 74 74 72 73 78 78 80 78 81 80 76 88 87

GFSSGP_sfc_rhum_093.txt.gz
RH
80 54 40 30 34 44 50 31 25 20 20 19 19 20 23 42 28 38 76 78 87 96 95 94 95 94 94 91 90 91 91 90 89 89 90 89 89 88 87 87 86 84 76 74 78 81 80 81 86
52 36 30 35 40 48 36 31 25 20 16 20 22 40 51 62 69 74 85 87 85 94 96 94 95 94 94 93 93 92 88 88 90 89 89 89 89 88 88 87 86 82 79 77 76 77 81 85 89
38 33 36 36 51 44 34 25 22 18 17 18 17 25 48 55 68 76 75 83 86 93 96 96 94 94 94 94 94 92 90 91 91 90 88 88 88 87 87 87 87 84 82 78 77 79 84 89 89
35 38 40 45 47 41 30 24 25 18 16 15 22 41 49 57 71 66 79 81 88 94 93 95 96 95 94 93 93 93 92 93 92 90 88 87 87 87 88 88 86 84 79 76 80 83 88 89 88
34 43 50 55 46 38 30 22 22 20 18 16 20 37 59 62 66 77 82 82 90 94 95 95 97 97 95 93 93 94 94 94 94 91 88 88 86 87 89 87 84 82 79 79 84 87 89 88 88
34 42 55 52 35 32 25 22 20 21 18 18 26 58 66 73 78 85 87 95 95 96 96 95 93 95 98 96 95 96 96 96 93 90 89 88 84 85 84 84 85 85 82 83 86 87 89 88 88
40 46 52 50 39 31 24 22 20 19 19 20 26 58 72 79 87 89 94 97 97 97 96 96 96 95 97 99 98 98 95 92 90 90 92 91 91 94 90 90 85 84 84 86 86 86 88 86 85
37 42 60 43 38 32 23 20 18 19 17 24 43 62 77 72 88 94 96 97 98 98 97 98 98 97 98 98 99 98 93 96 93 91 93 95 93 94 94 91 90 86 83 88 85 89 85 82 86
35 46 50 35 34 29 22 20 19 17 20 21 21 58 52 78 90 95 96 96 98 98 98 98 98 98 98 98 98 97 95 93 94 95 93 95 96 94 91 92 93 91 85 89 89 86 83 84 86
42 51 42 31 27 25 24 22 21 17 17 19 25 72 80 82 90 95 95 96 96 97 99 97 99 98 98 95 96 98 94 95 95 97 97 98 95 94 91 87 92 93 92 87 86 85 86 83 80
40 36 32 26 25 24 24 24 24 20 19 18 19 65 90 86 86 89 89 88 86 94 97 100 99 98 98 98 99 99 100 99 99 98 98 98 98 96 96 96 95 96 92 89 88 78 77 78 76
40 31 26 27 24 27 25 22 22 20 17 17 15 59 87 90 85 84 88 92 94 94 94 98 99 99 98 96 99 99 100 96 96 99 98 98 98 97 97 96 97 99 95 88 83 80 70 74 72
40 34 28 26 26 24 22 22 22 19 22 16 19 70 81 80 80 75 79 90 95 95 95 97 99 99 99 97 98 99 99 97 96 99 98 98 98 97 99 97 97 98 92 84 85 76 69 72 72
32 31 30 29 27 25 22 21 24 19 17 18 21 64 75 74 75 79 89 94 95 90 95 97 98 98 98 99 96 97 99 97 98 99 98 95 97 97 98 98 97 98 88 81 76 75 72 77 74
29 32 30 32 28 26 22 25 24 20 19 18 17 25 62 66 66 67 68 89 90 87 90 97 98 98 98 98 97 97 98 99 98 98 98 97 92 95 94 97 97 95 83 80 80 79 73 76 75
38 41 48 33 29 26 24 30 23 19 19 20 19 18 25 45 56 57 60 76 87 89 95 96 95 98 98 98 98 98 99 99 99 97 97 96 94 90 93 96 96 91 86 81 79 75 74 80 79
53 55 48 39 27 26 25 27 25 21 19 20 20 20 19 22 37 51 56 70 84 87 93 97 97 97 98 98 99 99 98 99 99 99 97 94 94 93 94 96 95 89 84 77 74 81 70 82 82
59 58 66 48 36 40 41 40 36 28 26 27 25 21 20 20 33 41 65 72 82 88 92 95 97 98 98 98 99 100 99 99 98 98 99 97 94 94 94 96 94 87 83 78 74 69 76 84 79
47 50 55 52 37 46 47 47 43 38 40 38 36 29 23 18 19 37 67 78 89 95 96 96 98 96 97 98 98 99 99 99 99 99 98 99 96 93 96 96 95 92 72 69 73 67 70 81 82
41 47 47 46 41 41 53 53 41 37 42 36 33 28 23 19 47 53 74 85 95 93 90 94 95 95 90 90 89 91 92 98 97 98 98 97 98 96 93 96 94 89 70 70 74 62 76 82 77
36 40 48 47 46 50 56 46 37 28 32 33 32 30 24 19 45 63 72 91 95 93 92 93 91 92 87 96 99 98 98 98 98 97 98 97 97 97 97 96 93 93 83 80 73 62 62 73 84
73 43 44 47 69 66 64 60 36 35 40 37 33 32 25 26 42 61 69 87 94 96 96 96 88 89 85 97 98 97 98 94 92 93 94 98 95 96 98 93 94 94 85 80 78 66 60 70 73
70 55 55 51 83 94 82 91 45 45 45 39 35 29 26 21 38 58 68 74 86 96 97 92 90 90 88 96 96 98 97 96 97 93 95 98 99 97 95 95 94 91 82 90 88 80 78 75 78
64 66 67 78 85 90 64 77 59 45 44 38 30 28 25 23 26 49 58 68 88 96 94 90 91 90 86 96 96 94 90 90 98 95 95 95 96 99 97 95 96 94 90 96 96 87 83 87 83
81 85 98 98 96 87 56 73 59 43 35 34 30 26 22 24 27 50 65 77 96 96 92 90 90 91 92 96 95 87 84 85 96 91 92 92 94 97 98 95 93 92 86 94 94 92 87 84 81
93 79 92 88 93 86 50 66 54 38 33 34 29 29 25 24 33 53 62 75 93 95 92 91 91 89 90 93 94 83 81 90 91 91 87 87 88 88 92 91 87 84 86 89 89 91 89 91 91
81 89 79 100 98 99 77 62 47 59 59 53 44 42 36 25 28 53 61 75 85 93 95 95 93 88 84 83 94 86 84 84 91 90 84 90 88 80 84 84 84 85 86 88 90 91 88 91 91
80 80 99 99 96 96 76 72 79 87 82 66 59 41 40 53 58 54 66 74 80 87 91 93 92 90 84 79 86 91 91 85 88 88 87 93 91 85 86 88 83 80 84 88 91 90 85 84 90
83 91 95 96 98 98 91 89 82 93 86 82 76 57 47 47 76 72 69 73 78 83 89 92 91 93 90 80 78 89 91 88 88 88 86 89 88 86 84 83 84 83 82 88 90 80 81 83 80
82 80 91 99 98 94 92 87 89 88 79 72 74 64 52 51 68 75 73 74 82 86 88 91 88 89 92 87 80 85 91 86 86 88 86 84 85 85 81 83 82 82 83 84 86 88 86 89 86

GFSSGP_sfc_rhum_099.txt.gz
RH
62 33 23 20 19 25 23 19 20 16 15 16 15 19 21 26 38 26 50 62 70 72 75 78 91 92 92 89 91 93 93 91 90 91 91 90 90 89 88 88 86 83 82 80 80 81 81 82 87
43 22 21 23 19 17 13 22 20 16 14 15 26 35 33 25 43 47 56 63 64 70 76 74 95 93 93 91 91 94 91 91 91 91 90 90 89 88 88 88 87 83 81 82 78 78 80 86 89
29 25 21 22 26 15 11 18 17 16 16 14 15 21 29 29 50 42 52 63 68 69 73 77 96 95 93 92 92 92 92 85 92 91 90 90 89 88 88 87 84 83 82 80 78 79 87 90 90
26 25 27 25 22 24 16 16 17 18 15 14 13 15 35 42 50 47 55 64 70 74 73 89 97 96 94 94 93 92 93 92 88 91 90 89 89 88 87 83 81 83 81 80 80 85 90 92 91
26 28 24 28 23 24 23 20 20 18 17 15 19 18 35 48 56 62 67 69 72 82 82 84 97 96 94 93 93 94 94 94 93 92 91 88 75 82 87 88 80 80 81 81 85 90 92 92 91
24 30 29 17 12 25 22 19 18 19 16 17 17 21 31 54 63 71 73 71 73 81 87 84 93 96 96 93 92 94 95 94 92 88 85 84 86 89 90 91 86 82 83 85 86 92 92 92 91
23 33 26 27 20 22 20 17 16 17 17 16 18 20 32 54 61 75 72 75 78 82 86 87 86 87 98 96 95 96 96 95 93 91 90 89 90 89 87 86 83 83 85 87 88 92 92 91 90
22 27 34 31 17 16 18 19 16 15 16 19 32 22 23 50 69 75 76 78 82 83 85 84 87 89 87 87 97 97 96 95 95 94 93 92 90 89 86 86 84 84 87 87 90 94 93 91 90
28 25 27 21 22 16 18 18 16 15 15 15 17 29 52 73 76 79 92 92 92 92 85 85 85 84 88 88 94 97 96 96 96 93 92 92 74 74 76 78 87 88 88 88 91 95 94 92 90
27 30 24 24 18 18 19 20 18 16 16 16 16 50 71 76 78 79 89 92 95 95 92 82 85 85 85 83 90 94 94 95 95 91 86 87 86 84 77 80 88 88 87 90 93 96 94 85 75
32 28 27 23 18 20 18 18 19 16 16 15 16 16 57 73 76 74 73 76 84 85 93 90 89 86 85 89 94 97 94 97 97 94 94 94 96 96 93 93 87 84 87 89 96 96 80 70 64
35 34 24 22 20 22 22 18 20 18 18 17 15 16 33 58 69 71 70 69 77 86 88 86 90 87 88 84 90 93 97 94 98 97 96 97 97 95 96 93 88 94 93 94 97 94 79 74 67
40 33 29 25 23 24 22 24 23 21 21 16 18 19 22 33 49 60 61 64 68 76 79 87 88 88 84 85 82 88 94 95 95 96 95 95 94 91 89 92 96 97 98 98 97 94 90 76 66
25 28 24 27 26 26 26 23 25 21 19 20 21 18 18 31 40 51 65 67 70 68 73 85 90 91 84 83 85 82 86 92 92 95 94 90 90 92 92 94 97 97 97 96 96 95 87 68 62
24 27 23 23 23 24 26 26 27 23 22 21 19 20 18 23 35 52 54 62 63 61 64 82 90 90 90 89 83 82 82 88 91 91 88 86 86 88 90 96 96 98 98 96 96 96 93 64 61
34 37 39 32 26 23 21 24 22 19 22 22 20 20 20 18 30 40 50 55 56 58 65 72 84 90 91 91 88 87 90 89 87 88 84 87 85 84 92 98 97 98 98 97 96 96 94 80 66
40 38 44 35 28 25 27 22 19 22 22 23 24 21 23 23 21 25 45 53 55 58 64 71 81 93 92 91 88 88 90 93 90 93 93 87 91 85 90 90 96 98 97 94 96 96 92 82 68
32 43 43 39 28 29 28 30 24 22 27 30 27 26 27 28 24 21 22 38 50 60 67 69 77 88 90 91 88 90 93 95 93 94 94 92 89 88 91 96 96 96 98 96 96 95 95 85 68
34 41 42 39 31 36 36 34 30 30 29 31 30 28 27 26 23 24 26 27 49 66 72 73 82 88 89 94 96 97 97 96 95 97 88 94 96 91 92 97 96 92 93 95 94 95 94 88 74
32 33 35 34 32 34 34 34 28 30 29 27 26 25 28 26 24 24 24 28 51 64 72 74 76 86 84 86 84 83 89 92 88 92 93 93 88 95 92 95 96 92 91 88 90 87 85 78 77
32 33 34 32 28 34 37 33 25 20 21 22 22 25 23 24 25 25 28 36 50 63 72 74 73 83 83 85 83 86 91 95 96 92 87 89 91 97 95 95 94 94 92 90 80 76 75 80 74
37 30 27 34 44 48 48 49 27 27 26 24 23 24 28 26 28 25 26 33 56 63 69 71 73 80 82 85 84 85 80 87 88 81 81 74 80 79 95 94 94 94 93 93 84 71 72 76 77
44 49 44 48 53 63 56 56 32 24 22 28 32 33 32 26 27 26 26 28 44 63 74 75 76 78 83 85 82 84 86 80 77 77 78 77 79 77 76 95 94 95 95 93 92 86 73 72 73
58 58 61 66 65 72 55 45 36 35 36 43 48 55 48 33 30 29 26 32 52 69 75 78 81 82 83 86 87 88 88 77 75 80 75 76 81 83 76 90 91 95 94 94 92 88 82 78 77
62 58 73 78 87 56 47 58 45 38 48 62 61 56 55 54 52 41 29 46 67 77 79 80 80 87 85 86 89 88 80 77 82 82 73 79 93 95 84 97 93 94 87 89 92 93 93 90 83
66 59 61 55 71 66 58 61 44 64 62 56 51 52 53 58 58 51 39 50 67 77 78 80 81 84 82 87 91 84 76 73 73 74 70 81 87 87 93 87 96 93 89 89 93 94 91 88 89
77 72 67 87 74 77 52 47 44 62 61 59 54 54 59 64 64 61 49 44 69 77 79 81 83 81 83 87 90 83 78 77 74 76 79 82 87 88 95 94 95 94 90 91 92 92 88 88 92
63 66 87 85 87 84 59 59 51 62 70 63 57 59 69 70 74 63 55 45 68 73 78 79 81 81 83 86 89 80 77 76 75 77 82 83 87 88 91 90 91 92 93 92 93 92 86 88 91
78 80 84 78 91 90 76 64 71 71 70 73 62 65 76 81 83 75 73 74 74 73 75 83 84 83 85 85 88 82 79 79 79 79 79 78 84 88 89 90 87 86 87 89 89 86 82 79 76
63 69 67 82 94 84 96 60 72 68 64 64 61 75 77 82 88 82 83 82 78 79 83 86 86 85 87 86 89 83 81 79 81 81 81 80 79 85 82 86 87 88 84 83 83 90 82 78 78

GFSSGP_sfc_rhum_102.txt.gz
RH
47 22 12 12 12 10 8 6 8 10 11 10 10 13 13 14 16 16 29 37 46 46 48 65 84 93 90 90 92 93 90 90 90 91 91 91 91 90 89 88 88 84 83 79 80 80 80 82 87
19 15 11 11 10 8 6 6 10 8 10 12 12 14 14 13 18 22 34 38 41 41 48 54 86 93 90 92 94 94 91 90 91 91 91 91 90 89 89 89 88 85 83 81 80 80 82 86 90
19 12 10 9 9 7 6 6 7 11 11 11 13 14 13 13 21 20 26 37 40 41 43 54 89 94 92 90 94 94 93 93 92 92 91 90 90 87 89 87 85 84 82 80 78 80 85 91 91
15 11 11 11 8 8 8 7 10 12 11 10 9 11 18 21 22 21 30 38 40 42 44 81 95 95 93 91 91 94 92 91 94 92 91 90 89 84 83 83 80 77 80 80 80 85 91 92 92
13 10 10 11 8 6 9 10 12 13 11 11 10 11 17 26 28 28 33 40 43 49 50 69 96 95 94 92 91 92 94 90 90 92 91 89 84 81 80 81 82 80 78 79 82 87 91 92 92
13 11 10 8 7 8 10 8 12 12 9 10 11 11 13 24 32 33 38 42 48 59 62 64 90 95 93 94 94 94 94 93 89 92 88 79 82 87 85 86 87 86 84 79 83 81 89 92 92
16 12 9 7 6 7 9 8 9 8 8 10 10 13 12 24 30 39 42 46 55 62 69 69 72 80 96 93 94 95 95 94 94 92 91 86 88 88 87 87 87 85 83 82 89 90 94 93 94
12 11 11 7 10 8 8 10 8 8 9 13 13 13 15 28 38 43 43 50 60 65 68 68 67 70 73 75 95 95 96 95 93 92 93 93 92 91 90 90 87 85 81 80 87 92 93 94 94
14 15 12 10 11 9 11 12 10 10 10 11 12 14 25 34 42 45 47 48 54 62 63 66 63 68 70 69 76 95 96 95 95 90 93 91 65 67 70 72 87 87 87 87 86 94 89 96 94
18 18 14 9 10 11 10 10 10 11 10 12 11 24 28 34 42 44 48 48 53 62 61 58 62 60 68 64 74 74 73 79 80 71 68 62 60 60 54 66 92 88 87 88 82 81 96 95 76
18 18 13 13 13 11 10 9 9 10 9 9 10 12 10 19 26 35 38 36 43 49 57 57 62 62 63 57 76 86 91 88 85 86 78 77 74 70 60 60 61 63 86 78 76 93 95 87 79
22 15 15 13 13 12 13 10 11 10 11 8 8 9 10 11 16 24 30 34 39 45 58 65 62 66 68 52 68 71 94 92 88 89 93 89 81 85 87 79 70 80 70 78 90 97 92 81 67
24 18 16 16 14 13 12 14 12 12 11 10 10 11 12 10 11 15 20 26 32 44 55 71 68 65 63 64 63 77 87 90 80 87 92 91 78 82 86 82 82 69 87 93 97 96 90 74 70
19 20 17 16 16 16 17 16 14 14 13 13 13 13 10 10 11 12 17 24 32 38 46 58 66 69 60 60 62 59 64 79 84 84 89 90 81 86 90 87 80 87 82 92 95 95 96 78 68
18 20 17 17 18 19 18 19 18 15 14 14 13 12 11 10 10 12 16 21 28 32 40 56 69 69 65 62 60 56 50 69 79 88 89 85 85 83 87 86 87 84 90 97 97 96 95 93 67
21 22 26 20 18 16 17 22 14 13 14 16 14 14 14 13 10 11 15 19 21 27 37 48 60 68 76 64 58 52 53 63 66 75 83 85 81 75 77 81 88 87 95 96 98 98 96 94 73
26 27 29 25 20 19 19 20 13 13 14 14 14 14 13 14 13 13 14 18 22 26 35 46 61 69 82 79 62 60 77 78 72 72 76 76 71 71 76 83 92 94 98 97 96 97 95 93 73
28 28 25 26 20 21 22 20 16 15 17 17 16 16 16 16 14 13 14 15 18 27 37 44 54 66 82 85 64 58 84 82 80 85 70 72 72 72 74 79 97 97 97 98 98 97 95 93 68
21 20 20 18 20 26 24 22 18 16 18 20 18 18 16 16 14 13 14 17 18 26 37 45 55 63 80 82 75 80 91 90 80 86 77 75 77 78 81 85 93 94 94 96 96 97 96 97 84
21 22 22 18 18 22 20 19 16 16 16 17 18 17 17 17 16 15 15 16 21 24 38 44 48 56 69 63 60 61 73 80 74 82 75 73 79 85 84 90 92 94 93 94 95 96 98 96 87
23 24 23 24 19 18 21 20 16 14 14 14 15 15 15 16 16 16 16 18 19 25 34 41 44 51 62 55 53 61 69 80 82 80 88 81 76 88 91 89 92 96 93 91 93 93 90 93 90
26 20 23 23 24 26 30 20 17 16 16 16 17 19 18 17 17 16 16 17 18 23 30 38 42 48 58 57 59 70 66 69 63 67 76 82 78 84 93 94 92 93 95 94 86 82 88 77 78
26 26 24 25 28 32 28 34 18 18 17 25 32 34 34 34 31 25 20 18 16 19 31 41 44 47 56 59 61 64 60 55 55 62 74 71 67 71 80 97 93 94 94 92 90 85 82 78 72
35 39 42 40 38 49 29 28 18 21 28 32 39 37 38 36 36 33 26 22 19 18 31 47 48 50 57 65 63 64 64 60 58 64 61 62 68 63 67 72 94 94 92 93 92 87 83 81 73
40 44 64 74 77 41 30 32 23 32 44 43 41 38 39 40 40 38 33 26 22 23 42 50 50 52 67 74 66 64 66 63 61 59 56 56 67 70 67 72 87 94 93 92 94 93 91 90 84
45 39 42 40 42 33 40 40 30 42 42 38 35 36 40 43 49 47 37 32 24 33 47 51 50 54 72 76 71 65 66 58 56 59 51 55 58 64 69 76 82 86 88 92 95 95 95 90 92
49 61 43 64 55 56 27 28 31 38 38 38 36 40 46 49 60 61 45 36 29 38 50 57 55 58 76 77 75 76 65 61 58 59 59 61 68 70 82 84 96 92 88 86 92 90 91 91 93
43 43 68 61 69 61 33 35 33 45 45 40 40 42 49 55 71 75 54 42 30 42 53 67 68 70 79 80 77 75 64 62 60 62 66 67 72 75 83 92 86 92 91 92 92 94 93 95 95
58 60 59 54 68 66 50 49 50 44 39 43 42 42 55 65 76 81 75 55 43 46 55 74 74 75 81 83 80 72 65 63 62 62 66 66 71 77 80 81 80 91 94 94 96 94 92 93 93
42 47 49 64 77 62 67 43 44 36 34 40 42 54 56 60 76 80 84 77 62 55 67 77 77 82 86 86 85 73 67 63 64 64 67 68 69 73 77 80 74 78 80 85 87 89 83 87 87

GFSSGP_sfc_rhum_105.txt.gz
RH
47 24 13 8 11 8 6 5 4 7 8 6 7 8 9 9 12 19 18 30 33 34 44 62 93 91 91 90 91 92 92 90 90 91 92 92 92 91 91 91 89 85 84 80 80 78 79 81 87
19 14 10 9 11 7 6 4 5 5 8 9 9 11 10 11 11 18 23 28 26 27 44 50 94 92 91 93 94 93 91 90 91 91 91 90 91 91 90 89 87 83 81 80 78 79 81 86 90
29 11 9 8 9 7 5 4 4 5 7 9 10 8 9 10 12 14 19 23 23 26 34 51 90 93 91 93 94 94 92 92 92 91 91 91 90 88 85 89 87 80 81 78 78 80 86 92 92
15 12 9 11 9 6 5 4 4 7 8 8 8 10 10 12 15 14 18 22 24 26 29 83 92 93 90 92 94 94 95 94 93 92 90 90 89 84 85 85 86 82 79 80 79 80 87 93 93
12 9 10 8 8 5 4 5 7 8 8 8 8 9 12 14 14 16 21 24 27 31 35 68 94 94 92 90 92 94 94 93 92 91 91 90 85 86 85 85 83 83 80 79 82 86 92 94 93
14 10 11 9 7 5 4 5 7 10 8 8 9 9 10 12 19 20 24 28 32 41 45 62 90 94 94 92 91 94 93 91 92 93 91 85 85 86 84 84 84 83 82 81 86 89 92 93 94
15 11 10 8 6 5 4 6 6 8 8 7 7 10 10 13 17 22 26 33 40 48 56 66 71 79 96 94 94 94 95 93 90 90 90 86 88 88 87 86 83 83 83 85 87 87 93 95 94
12 11 12 9 8 6 4 5 6 6 6 8 8 10 11 21 21 28 28 34 46 54 60 62 66 69 72 74 95 95 94 95 94 93 94 91 91 89 90 88 87 85 83 84 86 90 96 96 95
12 15 13 10 8 7 5 7 6 5 5 8 9 9 17 19 21 31 32 36 44 52 56 59 58 59 63 68 75 93 96 95 95 90 94 91 67 72 72 74 86 88 87 87 88 88 97 97 96
16 18 15 9 7 7 7 8 7 8 8 8 11 12 16 18 23 31 32 37 40 48 51 49 53 53 57 63 70 69 68 66 66 65 70 68 60 64 60 66 88 88 88 86 85 84 95 94 96
16 19 14 11 9 8 8 7 6 7 9 6 9 9 12 12 16 24 26 29 31 34 40 44 52 53 57 57 59 55 60 70 68 69 72 72 67 71 62 73 60 63 87 63 67 76 78 91 93
18 15 14 13 10 11 11 9 8 7 9 7 6 7 8 9 10 14 21 24 27 30 37 40 45 54 57 44 55 69 62 63 62 68 73 80 80 82 77 68 66 66 73 66 77 81 90 94 91
16 15 14 13 12 11 11 11 11 11 10 8 8 7 8 8 9 9 12 17 20 25 33 43 44 53 54 56 51 53 59 67 70 67 71 73 73 76 74 73 70 63 74 73 83 88 94 94 91
16 15 16 14 14 14 15 13 12 12 10 11 10 9 7 7 9 8 10 13 17 22 29 41 50 54 53 54 57 57 62 68 68 70 66 72 75 76 71 75 71 77 84 90 85 90 94 94 93
17 20 17 16 16 15 14 17 16 13 12 12 12 12 10 9 7 8 10 12 15 16 22 44 58 57 56 56 54 52 48 55 79 82 73 74 72 74 75 80 83 85 84 83 90 92 96 96 97
19 21 24 17 14 14 16 21 14 11 12 13 12 12 12 10 9 8 9 10 11 13 20 34 46 57 60 54 51 48 44 49 66 74 72 76 76 72 76 81 81 76 89 92 95 96 96 97 97
22 24 23 18 13 14 16 19 13 11 11 12 13 12 12 12 11 9 8 9 10 12 18 29 46 58 62 56 52 52 51 50 48 63 65 72 75 72 74 78 74 77 79 96 96 98 94 96 98
26 24 20 19 16 15 19 19 14 12 13 14 12 12 12 12 11 10 9 9 10 12 19 26 41 57 62 58 55 50 50 65 56 57 59 64 64 74 72 78 74 77 92 96 97 97 96 94 95
22 21 20 16 14 18 20 19 15 13 13 14 15 14 14 15 12 11 12 11 12 15 22 28 41 55 61 74 58 52 64 82 77 76 66 62 59 66 75 76 90 91 96 97 97 97 98 99 96
23 24 22 16 12 19 20 19 14 12 12 13 14 15 15 14 13 12 12 13 16 18 22 29 34 46 57 65 53 46 66 75 63 74 65 65 58 66 70 79 88 92 94 97 98 97 98 99 97
26 26 23 16 13 13 17 17 14 11 11 11 11 12 12 13 14 13 14 15 17 18 22 24 33 40 52 57 50 50 60 69 70 72 68 70 64 72 74 77 86 92 92 95 96 96 96 96 98
30 22 19 16 19 22 13 17 13 12 12 11 12 13 15 15 14 13 14 14 16 20 22 22 29 34 43 55 50 56 53 65 64 67 69 64 71 71 74 82 90 89 94 95 93 87 96 95 95
24 17 17 19 23 22 15 19 15 12 13 17 21 29 29 28 27 26 25 21 15 17 22 26 26 31 39 51 50 51 56 56 54 56 66 73 66 66 78 86 81 92 92 93 92 88 92 94 91
19 22 24 23 23 35 22 18 15 14 18 20 28 28 30 30 31 30 27 25 20 18 21 26 29 31 37 50 54 56 61 53 51 54 64 74 73 71 66 84 91 89 90 92 94 90 89 85 84
23 33 56 59 51 40 16 19 16 22 28 30 31 29 30 32 36 38 39 32 25 22 23 25 30 32 37 51 53 55 57 53 54 56 55 55 70 65 66 74 84 95 92 88 93 92 94 89 83
34 36 41 49 42 28 22 25 18 23 30 29 26 32 32 35 40 45 49 46 31 26 23 22 25 34 35 50 52 54 54 51 50 54 48 48 58 63 64 73 78 82 87 93 92 94 95 93 93
51 47 28 56 44 46 30 23 30 28 34 36 34 30 36 37 45 52 57 60 50 31 24 28 34 35 36 55 58 60 60 55 52 54 51 49 52 61 67 65 67 89 87 90 94 94 95 96 96
41 30 55 51 52 43 17 20 53 51 36 32 33 33 41 40 48 60 62 66 61 37 28 40 42 38 54 72 74 67 60 56 54 56 55 55 62 64 68 71 74 78 86 90 92 94 92 94 95
46 53 53 45 52 58 36 52 40 34 30 32 33 50 48 49 52 65 67 72 68 62 37 47 48 47 73 80 81 70 67 59 56 57 57 65 73 65 67 71 88 94 95 94 92 89 91 93 92
28 34 39 54 56 44 54 50 32 27 25 29 48 55 50 50 53 61 71 74 75 82 63 69 69 76 74 83 84 70 70 62 59 58 60 66 74 65 65 68 80 80 84 89 93 96 94 95 96

GFSSGP_sfc_rhum_108.txt.gz
RH
49 31 22 16 14 13 11 8 5 4 6 6 7 7 8 10 18 29 29 33 47 52 69 75 93 92 92 91 92 92 93 92 92 92 93 93 93 93 93 92 90 87 83 83 81 80 80 82 89
23 17 17 13 15 13 9 6 4 4 7 8 8 8 10 11 16 21 31 31 37 48 59 72 94 92 92 93 94 94 93 92 92 92 93 92 92 91 90 91 89 84 81 80 77 79 82 87 91
31 19 17 13 12 13 10 4 4 5 8 9 9 8 8 9 12 19 28 26 31 43 47 69 93 92 93 94 95 94 93 93 93 92 92 92 90 88 89 89 88 83 82 81 75 79 88 92 93
23 24 16 14 12 8 8 6 4 5 7 7 8 9 8 14 15 19 22 22 28 36 45 91 94 92 93 94 95 95 94 94 95 93 92 91 88 85 89 89 87 84 82 82 81 84 92 93 93
20 16 17 13 10 8 7 5 6 6 6 7 7 9 12 14 12 20 23 26 35 53 73 78 94 92 92 93 95 95 95 95 95 94 93 92 88 88 88 88 88 85 84 85 84 90 93 93 93
20 16 18 14 10 6 5 5 4 8 8 8 9 8 12 13 17 24 30 35 46 69 74 82 92 93 92 92 94 95 96 94 90 87 92 92 90 90 88 88 88 86 85 86 88 93 94 94 94
22 19 18 13 10 8 6 5 5 6 8 8 7 10 12 16 19 26 34 47 57 64 79 84 84 86 93 92 93 95 94 92 83 84 93 91 92 91 88 87 86 85 85 85 90 93 94 97 95
17 17 18 13 11 9 6 4 5 6 6 7 7 9 16 18 21 25 35 50 64 69 78 82 82 84 87 90 94 95 95 94 92 91 94 94 93 91 89 88 85 84 84 84 89 96 97 96 96
15 22 21 16 13 10 7 6 5 5 6 5 8 8 17 19 25 28 38 47 58 67 72 78 76 78 82 81 85 96 94 96 94 93 95 97 85 86 86 81 86 85 82 87 92 97 96 96 96
22 25 22 14 12 10 8 7 7 7 7 7 8 11 17 18 23 33 38 44 56 65 68 66 70 72 75 64 83 84 83 84 86 85 88 89 85 84 71 76 90 87 87 88 94 96 95 92 98
20 26 18 15 12 11 10 8 6 8 8 8 9 10 10 14 19 27 30 38 48 53 58 60 69 71 70 69 77 75 77 80 81 82 87 90 82 88 87 93 84 88 91 91 91 93 89 93 96
22 18 17 15 13 13 12 10 9 8 9 8 7 8 9 14 15 19 25 29 36 43 49 52 61 71 74 65 72 72 71 79 82 83 85 90 89 90 90 93 87 83 82 87 82 86 94 94 92
20 18 16 13 13 13 12 13 12 12 11 8 7 8 9 9 11 11 14 22 28 36 45 51 57 67 69 74 69 75 82 79 78 82 83 88 90 92 90 90 90 87 92 92 92 90 96 94 94
16 17 16 14 14 14 15 14 12 12 10 10 10 10 9 9 9 10 12 15 24 30 41 52 54 66 66 68 75 74 76 80 83 83 82 84 90 92 92 92 92 87 92 93 94 94 96 96 95
15 19 18 17 15 16 14 17 16 14 13 12 12 12 11 11 9 9 11 15 19 21 32 55 60 68 69 70 72 72 72 75 81 80 79 83 84 88 88 91 90 90 95 93 95 96 96 97 96
21 21 25 19 17 16 17 24 17 13 13 14 13 13 14 13 12 11 11 11 12 16 23 53 54 65 70 69 68 64 67 72 76 84 86 77 82 84 88 91 91 91 96 96 97 97 98 98 98
25 29 28 24 17 17 17 22 16 13 13 13 14 13 14 13 12 12 12 11 11 14 24 56 66 67 71 71 67 69 72 72 78 82 82 83 81 83 86 88 90 91 95 97 97 97 95 98 98
31 29 26 24 18 18 18 18 15 13 13 14 12 13 14 14 13 13 14 11 10 14 26 52 64 68 74 70 68 66 73 71 71 72 76 79 76 83 86 89 89 88 95 98 97 95 96 94 95
22 23 23 20 16 18 20 17 15 14 15 15 14 14 15 15 14 14 19 22 22 24 29 43 63 70 71 70 69 68 71 77 80 74 71 77 76 81 86 90 89 91 96 95 97 97 98 99 94
19 25 26 24 21 19 22 21 17 16 15 14 14 16 16 17 16 15 19 22 28 26 32 39 55 67 66 67 65 65 68 81 80 86 80 76 77 81 84 90 94 94 96 99 99 98 98 99 98
17 23 32 32 23 17 17 21 19 16 14 13 12 13 13 17 18 17 17 21 33 32 38 33 42 63 65 70 67 64 78 84 82 81 80 77 77 78 84 90 93 95 94 97 98 97 97 99 99
19 16 24 26 30 26 16 24 18 14 14 12 12 13 14 16 19 18 20 23 29 35 39 32 36 48 60 70 68 69 77 85 80 77 74 75 78 78 85 88 91 92 94 96 95 92 97 98 98
16 19 26 27 28 26 21 22 17 13 13 12 16 27 29 29 30 29 29 29 28 32 36 44 35 38 52 66 64 66 71 73 76 73 78 79 80 81 81 88 90 94 94 94 94 93 98 97 96
14 24 29 29 31 41 28 23 18 15 13 18 27 28 29 33 38 39 41 40 34 34 36 41 40 35 44 64 68 66 70 70 73 74 81 81 77 82 85 86 91 93 91 95 94 92 94 94 98
20 30 69 76 77 59 23 22 20 26 24 26 29 36 38 42 47 46 48 51 54 58 53 38 32 32 41 60 68 65 67 70 70 71 75 80 78 79 84 87 91 91 90 94 92 93 93 93 96
26 33 72 55 58 44 25 35 21 24 27 27 32 34 40 44 47 50 54 58 60 61 61 76 29 29 37 54 64 65 65 66 64 66 69 72 75 80 81 86 91 91 91 95 94 95 96 94 94
33 46 37 66 51 62 38 42 47 32 31 33 34 38 44 45 49 55 58 63 68 65 70 74 64 28 36 49 62 65 68 68 64 69 69 69 73 71 79 81 87 91 91 91 93 94 95 96 95
42 36 70 76 95 94 53 61 76 66 47 37 49 51 50 49 52 58 61 68 68 67 72 82 55 31 42 54 62 64 68 66 68 70 73 72 74 73 81 81 81 89 91 94 94 96 95 97 98
86 77 64 56 55 83 58 96 74 65 55 58 55 53 55 56 55 58 64 67 70 69 75 86 59 48 62 69 74 77 72 73 74 71 72 77 79 79 82 81 82 94 93 94 96 96 95 96 96
66 72 66 75 50 54 91 100 80 71 59 58 63 61 62 61 61 58 63 70 76 74 80 85 86 84 81 78 83 83 82 78 80 77 76 80 81 79 78 82 90 89 94 94 97 97 94 95 96

GFSSGP_sfc_rhum_111.txt.gz
RH
70 57 50 36 37 32 32 20 13 10 9 12 11 15 16 22 31 61 57 60 71 81 88 87 93 92 92 91 93 93 94 93 93 94 94 93 93 93 92 92 92 90 87 82 81 80 82 86 89
45 31 35 37 32 35 26 15 13 9 10 15 11 12 14 30 32 46 60 58 69 80 85 89 93 93 92 93 93 95 94 93 93 94 93 93 93 92 92 91 91 87 85 83 79 81 84 89 92
40 29 45 39 35 26 24 12 11 9 12 14 13 11 14 26 35 40 51 59 64 71 82 87 93 93 94 94 95 96 95 95 94 94 93 93 92 91 91 91 90 86 84 82 78 83 89 92 92
29 42 43 35 29 21 14 10 9 8 12 12 12 13 18 20 33 38 45 53 59 64 78 95 94 94 94 95 96 96 86 93 95 95 93 92 90 90 91 91 89 86 85 82 82 88 93 93 92
36 42 45 37 27 17 12 9 8 8 9 12 11 16 24 24 29 31 37 47 62 81 88 91 94 94 94 96 96 96 92 93 96 95 94 93 90 90 90 90 89 86 86 86 88 93 93 93 92
38 36 43 34 26 16 11 8 7 9 10 13 12 14 23 26 28 34 46 71 78 86 90 91 92 93 95 96 96 96 96 96 96 95 95 93 91 90 90 91 89 87 88 88 92 94 93 93 91
43 42 38 31 23 18 13 9 8 7 11 12 10 16 22 30 29 38 53 77 84 89 93 97 95 92 94 96 97 98 97 94 86 85 94 94 93 92 89 90 90 88 88 89 93 94 94 93 94
38 43 43 30 24 19 11 9 8 9 11 11 10 13 28 29 38 47 56 77 91 94 95 97 97 97 97 97 96 97 96 93 88 84 90 95 94 92 91 90 89 88 86 89 92 95 96 96 94
33 41 41 36 26 18 13 12 9 7 9 10 13 13 28 32 38 51 68 76 87 94 95 95 96 97 97 96 94 96 95 94 94 93 96 99 97 95 90 91 90 90 88 89 96 97 96 95 94
38 44 36 26 20 18 14 12 11 10 10 12 13 29 26 26 37 51 68 78 85 92 96 92 94 95 95 85 96 98 95 99 98 97 97 98 97 96 88 88 90 88 87 93 96 96 96 94 97
34 39 29 26 22 20 18 17 13 11 13 11 10 26 25 26 29 46 53 66 72 79 86 88 88 90 92 87 98 98 99 99 98 96 97 97 96 96 95 97 94 96 89 98 98 98 98 97 98
26 27 26 24 22 22 21 18 18 15 12 12 12 12 15 23 27 34 44 51 66 74 77 80 83 84 86 84 94 93 95 95 96 96 96 98 98 98 97 98 98 97 97 98 99 99 98 97 97
18 19 21 21 21 21 19 19 18 18 15 13 12 13 13 18 21 24 29 41 58 65 68 73 76 78 78 80 89 90 90 92 93 96 94 96 97 97 97 98 98 97 98 97 98 97 97 98 96
21 18 16 19 21 20 20 18 19 16 15 14 14 15 15 14 13 14 18 25 43 55 61 65 68 74 74 78 86 84 93 92 97 96 92 95 97 97 97 97 97 98 97 97 96 97 98 98 97
25 28 22 19 18 21 19 22 20 19 17 16 15 15 15 15 14 14 13 14 19 41 52 62 67 76 72 75 84 83 88 92 95 96 94 94 96 96 96 98 98 97 98 97 98 98 99 99 98
27 28 37 24 19 18 21 28 19 18 18 19 18 17 16 17 15 15 15 13 13 22 49 57 61 71 74 68 82 80 83 91 95 96 95 88 90 94 96 97 97 98 98 98 98 98 98 98 97
38 46 38 30 21 20 22 27 21 20 18 17 16 16 16 17 18 16 16 16 15 15 34 57 65 72 76 74 78 81 88 89 92 96 96 87 86 93 94 96 97 94 98 98 98 99 95 96 98
45 47 40 36 27 23 24 25 23 21 19 19 19 18 17 15 16 14 16 16 15 15 34 55 65 73 73 77 80 78 91 91 90 93 93 91 82 93 96 96 96 97 97 98 99 98 99 96 97
30 37 39 29 23 25 26 25 22 19 17 18 18 20 16 20 18 15 17 19 17 19 37 64 68 75 76 78 78 80 87 92 94 92 88 87 89 93 96 97 96 96 97 97 97 98 98 99 98
24 27 28 24 21 22 31 47 34 19 18 16 18 20 22 20 20 22 27 26 24 20 26 69 70 77 72 70 70 78 91 95 93 93 91 88 90 92 94 95 96 95 98 99 98 97 99 97 97
21 24 25 26 21 27 48 50 36 25 17 20 20 20 20 21 21 20 19 26 30 30 28 65 70 78 74 72 83 90 94 94 96 96 96 92 87 92 93 95 96 96 95 97 98 96 94 97 98
22 16 17 20 23 66 55 56 23 23 20 17 17 18 24 38 36 37 45 44 40 37 38 49 72 75 74 76 74 78 84 92 90 95 94 95 92 90 93 95 96 97 96 95 96 94 95 96 98
19 17 18 28 72 69 59 44 29 21 18 16 16 39 44 52 54 57 58 58 60 62 66 63 53 74 72 74 73 77 88 92 96 96 93 93 92 92 94 96 97 96 97 94 93 95 96 94 98
17 23 55 53 57 81 41 39 38 24 20 37 44 51 54 57 58 59 58 58 62 64 64 66 68 59 78 78 77 75 82 90 89 91 89 91 90 92 95 95 95 92 95 96 94 93 96 95 96
26 49 85 82 95 79 38 38 36 34 34 45 55 59 58 60 64 65 67 69 68 70 67 65 70 73 68 79 76 75 73 82 87 85 90 89 95 91 96 96 97 95 92 93 93 95 96 97 96
34 50 86 79 92 66 32 44 33 22 51 56 55 56 58 63 64 66 68 71 72 69 68 72 77 81 79 78 75 72 69 78 80 80 86 87 85 91 94 95 95 94 92 94 95 96 96 96 96
40 50 50 84 71 84 47 74 55 52 50 61 58 60 63 62 63 68 67 69 69 71 72 76 81 86 78 65 76 74 83 83 76 75 82 85 85 88 95 95 96 94 90 92 94 94 96 96 96
38 32 66 94 92 95 54 90 86 91 88 76 76 75 70 66 66 67 68 69 68 71 72 76 79 85 80 69 74 76 87 79 81 76 79 83 85 84 93 95 96 96 94 94 94 94 93 96 97
77 72 82 85 90 97 93 99 94 98 93 91 78 75 76 77 77 74 74 73 72 70 73 80 83 89 95 89 81 82 84 81 91 79 75 79 84 87 87 92 96 96 94 94 96 96 94 96 96
80 72 68 96 97 91 99 99 96 93 86 76 78 72 71 72 74 74 76 76 77 76 78 82 85 90 92 96 96 94 94 92 91 85 85 84 88 91 91 91 94 95 94 96 96 98 97 98 98

GFSSGP_sfc_rhum_114.txt.gz
RH
75 62 50 36 33 37 41 30 22 16 14 10 12 17 18 32 33 46 70 66 79 87 87 89 94 94 93 92 93 94 94 92 92 93 93 93 92 92 92 93 92 90 86 82 83 84 85 86 90
50 39 38 43 42 42 33 23 20 15 12 12 15 17 24 44 50 70 69 73 78 87 89 90 93 92 93 94 94 94 93 92 94 93 93 93 92 92 92 93 93 91 88 81 81 83 86 88 92
40 34 42 48 50 40 30 18 16 12 10 11 13 13 23 41 59 62 62 75 83 89 90 89 94 93 92 93 95 96 95 95 95 94 93 93 92 92 92 92 90 89 88 83 82 85 88 93 93
31 44 48 56 42 31 21 12 12 11 9 10 13 17 26 36 51 62 66 73 81 87 86 95 95 94 94 94 95 96 97 96 96 95 94 92 92 92 92 92 89 88 87 85 85 89 93 93 93
43 51 58 59 46 30 19 15 13 13 11 10 12 16 31 34 48 62 67 64 79 87 93 93 95 95 95 95 96 96 89 96 96 96 95 93 92 93 92 92 90 89 88 88 91 94 93 93 92
43 47 58 49 28 24 20 15 12 14 11 10 12 24 30 41 59 61 60 65 78 90 94 93 94 95 96 96 97 94 88 90 96 96 96 94 93 93 91 92 90 89 90 92 92 94 93 93 92
44 49 48 44 36 28 20 16 14 12 11 12 11 16 33 44 49 57 68 80 85 88 95 97 96 95 97 98 98 97 96 97 97 97 96 95 93 93 92 91 90 89 91 93 94 94 94 93 93
46 53 64 36 28 29 20 16 14 12 11 10 10 14 44 35 57 76 83 89 92 92 96 98 98 97 98 98 98 98 98 94 92 97 97 96 94 93 92 93 91 89 90 92 94 94 94 94 95
37 56 45 38 42 31 22 20 16 13 10 9 15 21 31 47 64 82 96 98 98 95 97 98 98 98 98 99 98 99 98 94 91 90 91 98 97 96 94 94 93 90 90 92 94 96 96 96 96
41 52 41 36 31 30 25 22 19 16 13 11 35 35 41 54 65 76 88 96 97 99 99 97 98 98 98 91 98 99 98 97 97 97 97 99 98 98 93 94 93 93 91 95 96 97 97 97 98
45 42 33 32 32 28 26 25 23 23 20 12 27 35 43 52 62 70 75 84 89 92 95 97 97 97 97 93 99 100 99 99 99 98 98 99 98 99 98 98 96 97 94 99 98 99 99 96 98
20 21 29 30 29 29 29 30 26 23 18 15 15 32 33 42 55 62 70 72 82 95 92 94 95 96 97 97 98 98 99 99 99 99 98 99 99 99 99 98 98 97 97 98 96 97 98 96 96
23 16 15 16 22 27 25 26 25 24 23 17 16 18 24 30 41 52 59 66 73 84 88 93 89 92 94 97 97 98 98 98 97 98 97 98 99 98 98 98 98 98 98 99 99 99 98 98 97
37 32 24 19 17 17 24 25 25 23 20 19 19 16 15 16 25 30 47 61 73 73 81 87 88 88 89 91 95 95 95 97 97 97 95 96 97 98 98 98 98 98 97 98 98 98 98 98 98
25 37 35 30 25 22 19 24 26 21 21 19 18 18 18 17 15 15 16 31 63 68 72 82 84 86 86 83 90 91 93 94 97 97 96 95 95 96 96 98 98 97 98 98 99 99 99 99 98
24 29 38 28 29 26 24 29 20 18 20 22 20 19 20 19 18 16 16 16 36 60 67 74 74 83 83 79 85 84 89 93 95 98 96 94 94 95 97 97 98 98 98 98 98 98 98 98 97
35 32 32 34 29 29 28 28 20 18 20 20 21 20 20 20 20 19 17 17 16 31 58 70 73 81 80 78 84 84 88 92 91 96 95 95 95 95 96 97 98 97 99 98 98 98 94 98 98
32 36 39 47 38 31 31 29 22 23 24 20 19 22 21 21 19 18 20 19 18 18 46 63 70 75 79 78 91 90 91 93 90 89 93 94 94 95 96 98 97 97 97 98 99 97 96 97 97
30 30 32 33 29 30 33 30 26 24 21 22 23 24 23 21 18 16 16 15 22 22 41 64 70 74 79 82 92 92 91 93 94 91 92 92 94 94 96 97 97 98 96 96 97 97 98 99 96
34 34 30 25 24 26 28 54 49 41 38 28 21 22 22 24 22 21 22 22 26 28 44 65 68 75 75 77 76 84 85 96 92 96 94 90 93 95 96 96 96 97 98 98 97 97 99 99 99
43 36 30 26 19 18 29 56 52 41 34 28 24 19 20 19 25 50 63 72 72 75 73 78 73 77 73 72 87 97 98 98 99 98 96 94 91 93 95 95 96 97 97 94 95 96 95 98 99
76 35 26 23 26 41 57 88 58 37 28 29 23 24 42 61 66 66 70 73 74 74 68 68 76 84 75 74 81 90 85 90 88 90 92 95 92 94 95 96 96 97 97 97 97 95 95 95 98
55 54 31 24 28 55 53 94 66 30 25 27 44 64 67 69 70 71 72 71 72 73 75 70 71 78 89 87 79 82 80 77 95 93 95 92 94 94 95 96 97 97 98 97 97 96 96 95 94
40 56 47 70 83 84 61 78 47 45 44 53 68 68 69 70 70 70 67 66 70 72 74 74 76 76 82 90 93 90 88 90 95 93 93 93 93 96 97 97 97 97 97 97 97 93 95 95 95
58 74 90 82 92 77 48 70 52 60 71 74 78 76 73 71 71 72 74 74 72 75 76 73 78 82 81 84 87 89 84 92 92 91 88 93 94 95 97 96 97 98 96 96 95 94 95 96 95
53 56 72 71 88 74 39 56 43 82 76 73 74 76 74 74 74 74 74 75 76 74 75 77 75 78 82 88 87 86 81 90 85 90 89 91 91 90 96 96 95 96 95 94 94 94 95 97 97
66 68 51 80 88 86 56 79 79 74 83 83 81 83 85 83 83 82 78 78 78 76 76 76 76 76 78 84 92 81 85 90 86 87 90 89 90 91 96 95 96 97 95 93 95 95 95 97 97
74 49 76 91 88 96 76 96 96 96 97 93 86 86 81 79 79 79 78 78 77 76 75 74 77 80 80 85 92 80 85 84 88 88 92 92 91 90 97 96 96 96 94 94 94 93 93 97 98
68 67 84 74 94 99 96 97 100 100 100 100 96 88 83 78 78 79 78 76 75 76 75 78 80 83 84 85 93 94 86 86 89 88 88 90 92 91 95 96 96 96 91 95 96 94 93 97 96
84 75 70 86 91 93 98 99 100 100 100 98 97 91 84 78 79 80 81 79 80 82 81 82 84 87 87 86 91 97 98 96 92 90 89 90 90 89 92 95 94 94 94 96 95 97 96 96 98

GFSSGP_sfc_rhum_117.txt.gz
RH
73 60 51 35 28 42 48 32 27 19 13 14 14 15 20 37 40 42 76 72 80 86 92 92 94 93 93 93 93 93 93 91 91 92 93 93 93 93 93 93 92 89 85 82 84 84 84 85 88
50 43 40 43 34 34 31 28 22 19 15 14 14 16 23 42 57 76 76 80 75 87 92 92 94 93 93 94 94 93 91 91 92 92 92 93 93 93 94 94 94 90 87 82 83 84 84 89 92
44 38 42 50 57 30 23 21 17 15 13 13 12 16 26 43 67 69 74 79 81 88 90 92 95 95 94 94 95 95 94 94 94 93 92 92 92 92 94 95 95 91 87 83 81 82 88 93 92
33 43 50 62 50 45 25 19 15 14 14 13 14 12 24 45 61 63 77 83 86 90 89 95 95 95 94 94 94 95 95 95 95 95 92 92 92 92 93 92 92 91 88 85 82 87 92 93 92
47 54 54 72 61 45 28 19 19 17 15 14 14 13 33 57 60 72 82 80 89 95 94 94 95 94 93 94 95 96 96 96 95 95 94 93 93 93 92 91 90 90 90 90 93 93 93 93 92
41 53 70 48 23 29 27 22 20 19 15 15 12 17 41 53 68 70 76 81 86 95 96 94 95 95 94 95 96 97 97 96 96 96 95 94 94 94 92 91 91 91 92 94 95 93 93 92 92
46 57 59 51 38 35 25 21 21 18 17 15 11 16 40 76 63 72 75 86 90 94 96 97 96 96 97 98 98 94 94 97 97 96 96 95 95 94 93 92 91 91 92 94 94 93 93 92 93
50 55 70 42 27 28 22 20 18 16 15 15 14 17 51 56 71 86 94 97 97 97 96 98 98 98 98 98 98 96 95 98 97 97 97 96 95 95 94 94 92 91 92 93 94 94 94 93 97
45 61 45 40 40 32 25 28 21 17 16 16 14 19 34 61 82 90 97 98 99 97 98 98 98 99 99 95 98 98 97 97 98 98 97 98 97 96 95 96 93 91 93 94 95 95 95 98 97
43 65 43 39 30 31 32 29 27 22 23 19 21 33 60 75 80 91 92 94 95 97 98 98 98 99 99 94 93 94 93 97 97 97 98 98 98 98 96 96 94 92 93 95 96 96 97 98 99
52 42 36 34 36 39 39 35 29 28 28 25 22 21 70 71 78 84 84 86 85 87 94 98 97 98 98 98 94 94 92 98 99 97 98 99 99 99 99 99 99 98 95 99 98 99 100 98 99
21 22 29 32 28 30 36 36 34 31 28 24 20 20 42 73 74 75 80 81 88 92 87 92 94 96 97 98 96 94 90 93 96 98 99 99 99 100 99 99 99 99 99 99 99 97 99 97 96
24 17 15 16 16 16 17 22 32 30 25 25 22 22 20 37 67 65 65 72 87 90 85 89 92 92 93 97 98 99 96 94 93 95 98 98 97 98 99 99 99 99 99 96 96 97 99 98 97
32 22 21 20 24 29 23 19 21 19 22 24 24 24 20 30 33 54 71 79 89 84 88 90 94 92 92 94 96 96 98 98 99 99 98 98 98 99 99 99 99 99 98 99 97 99 99 98 98
24 26 22 20 23 32 26 29 24 17 21 25 23 20 22 18 23 32 47 73 78 80 83 94 91 90 92 90 94 93 94 96 97 98 98 97 98 98 98 98 98 98 98 98 99 99 99 99 99
28 29 33 23 25 26 36 41 27 22 21 21 24 20 21 20 19 21 31 51 67 78 83 89 85 92 92 89 94 92 94 95 93 97 97 97 97 97 98 98 98 98 99 98 99 99 99 99 99
37 37 33 27 20 26 32 39 28 26 22 21 20 22 19 21 22 20 19 23 44 64 73 85 88 92 94 89 92 92 95 95 94 97 97 96 96 96 98 98 98 98 98 98 98 98 95 98 98
48 38 32 34 26 32 35 37 29 27 25 24 22 19 18 19 20 19 20 19 18 48 66 73 84 87 90 87 94 98 99 98 98 97 97 96 94 96 97 98 98 98 99 98 99 98 97 96 96
41 44 44 34 26 28 26 28 27 24 36 30 23 21 23 20 19 20 19 20 26 27 40 74 84 84 89 92 98 98 98 98 98 97 95 96 94 96 98 98 98 98 97 97 98 98 98 99 98
35 53 51 39 31 32 27 24 23 23 28 32 38 30 26 21 20 40 67 73 87 85 62 67 77 79 84 82 84 87 88 96 96 98 97 95 96 96 97 97 98 98 96 98 98 98 99 99 98
34 34 45 58 42 29 27 27 19 18 29 33 36 34 30 24 62 70 70 79 81 84 86 85 86 76 80 78 85 99 98 99 100 99 95 94 94 96 95 96 97 98 97 97 97 97 97 99 99
57 37 35 60 62 57 49 59 52 44 40 34 30 78 81 78 71 72 75 79 81 81 80 80 80 92 90 88 90 94 90 95 91 88 88 93 92 94 95 95 96 97 97 97 96 95 96 96 98
62 36 39 56 73 50 33 77 54 49 41 67 81 78 78 78 76 76 75 74 76 79 82 81 81 84 84 88 91 95 95 94 96 96 94 96 96 93 95 96 97 97 97 95 95 92 97 96 95
40 58 61 67 67 74 37 60 69 92 92 84 81 79 77 77 76 74 71 70 75 76 78 78 80 82 83 88 90 94 94 95 98 99 98 96 97 97 96 96 97 96 98 98 98 97 96 96 96
54 67 90 86 93 82 50 68 62 93 90 91 91 85 83 82 81 83 84 81 77 79 79 76 77 80 82 85 90 87 93 94 92 94 95 97 97 97 96 96 98 97 97 97 97 96 97 97 97
50 65 84 70 75 69 55 85 98 94 90 78 79 80 77 80 78 79 78 79 81 78 79 81 80 77 76 80 84 87 86 93 89 79 87 92 93 93 92 93 94 96 97 95 94 96 96 97 98
64 68 46 72 68 92 67 98 93 92 94 99 91 90 89 84 80 78 77 78 78 79 81 81 79 78 79 81 82 86 95 91 94 92 92 90 91 91 96 93 96 97 97 94 95 96 97 98 96
58 69 83 87 78 86 90 85 96 94 100 100 99 98 94 87 85 83 81 79 78 78 79 81 78 81 81 81 81 85 91 89 92 94 95 94 93 92 96 94 95 98 96 94 94 96 95 96 96
79 88 79 64 76 96 96 98 100 100 100 100 100 95 96 95 88 86 84 83 80 77 78 82 82 84 85 84 87 90 92 93 93 94 94 92 95 96 96 93 93 96 97 96 96 95 95 96 96
86 71 67 80 79 93 95 99 100 100 100 100 100 100 97 95 84 82 83 84 87 85 83 83 86 87 87 84 87 91 91 92 95 96 94 96 96 95 95 95 97 96 94 95 96 96 94 95 95

GFSSGP_sfc_rhum_120.txt.gz
RH
68 60 50 33 28 39 42 23 31 21 20 16 17 15 16 28 47 52 77 76 86 89 92 93 95 94 93 91 92 91 91 91 92 91 92 92 92 92 93 93 91 88 85 82 83 82 80 82 88
49 44 40 44 26 24 20 31 25 20 15 16 14 18 28 31 52 75 81 80 80 88 92 93 95 94 93 92 92 91 90 90 92 92 92 93 93 93 94 94 92 89 86 82 83 82 82 87 91
44 38 36 44 50 22 14 18 22 16 14 16 13 16 19 40 64 72 71 83 82 91 92 93 95 94 94 94 93 92 91 91 92 92 92 93 93 93 94 95 93 90 87 82 78 82 88 92 93
38 42 49 52 48 43 19 18 17 16 15 16 16 14 13 40 61 65 81 82 86 93 93 96 96 95 94 94 94 94 93 93 93 92 93 92 93 94 95 96 92 90 87 79 79 86 92 92 93
50 53 37 71 62 46 32 23 24 20 19 18 16 15 17 49 69 82 87 82 86 95 96 96 96 95 93 93 94 94 94 94 93 93 93 93 93 94 94 94 94 92 89 87 90 93 92 92 93
30 55 62 44 32 36 28 25 25 25 22 19 16 17 30 66 74 89 88 87 89 95 97 95 96 95 94 94 95 96 95 94 94 94 94 94 94 94 92 92 92 94 92 94 94 93 92 92 92
37 60 60 64 44 38 26 24 23 21 19 19 14 18 20 58 73 82 90 95 97 98 97 97 96 95 96 98 98 98 96 96 95 95 95 95 95 94 92 92 92 93 94 95 93 92 93 92 94
53 54 73 51 36 33 24 23 20 20 18 18 16 19 20 51 85 90 96 98 98 99 97 98 99 98 98 98 98 98 98 97 97 96 96 96 96 95 94 93 92 92 93 94 93 93 93 94 95
57 64 62 48 40 37 26 31 27 24 20 21 18 23 26 57 90 94 98 99 99 99 99 98 95 92 92 92 97 96 97 98 98 97 97 98 97 96 95 95 93 93 94 94 93 94 94 97 95
49 74 51 38 35 39 35 35 34 31 31 28 24 25 54 89 88 88 90 92 95 98 98 96 94 90 91 86 90 95 94 98 97 97 98 99 98 98 97 96 94 93 94 96 95 95 97 97 98
59 50 43 42 41 42 46 38 37 36 39 29 29 25 69 79 90 86 79 77 81 86 95 94 94 90 90 86 85 88 87 98 99 99 99 99 99 99 99 99 98 98 96 99 98 99 98 99 99
24 24 28 28 22 24 23 34 30 24 28 29 29 27 37 67 75 86 83 78 85 92 92 96 97 97 95 88 85 84 89 92 97 99 99 98 99 99 100 99 99 99 99 99 100 96 99 98 98
48 33 26 24 22 22 25 30 23 21 19 18 25 26 26 29 58 69 72 82 89 92 90 95 96 97 97 97 87 85 85 92 87 98 98 96 98 96 99 99 99 99 99 99 99 98 99 98 98
32 25 25 22 22 21 21 22 32 26 22 20 24 29 26 26 29 57 69 79 91 90 85 93 95 95 96 97 95 89 86 88 87 87 91 92 94 96 98 99 99 99 99 97 96 95 99 99 97
27 30 24 22 24 25 31 35 30 20 24 23 20 19 24 24 25 37 58 67 76 86 80 93 93 95 96 95 96 98 96 91 91 91 89 90 90 94 97 98 99 99 99 99 98 99 99 99 98
31 33 34 24 22 21 28 23 21 29 30 29 24 20 22 21 25 25 44 55 74 80 89 91 83 93 95 93 95 95 98 98 98 99 96 92 92 95 99 98 99 99 99 99 99 98 98 99 99
43 42 35 28 23 22 29 29 24 23 27 27 27 25 26 22 26 24 23 38 48 76 82 94 90 92 93 92 96 96 97 98 98 98 98 97 97 97 98 98 99 99 99 98 98 97 96 98 98
62 47 52 43 38 35 37 35 24 19 19 28 25 26 26 21 18 19 23 22 37 60 72 81 90 90 91 92 96 98 99 98 98 98 97 97 97 97 98 99 99 98 98 99 99 97 98 97 95
41 46 50 40 34 40 43 38 30 25 23 22 32 37 35 28 21 34 65 74 49 47 35 84 91 93 94 93 97 94 93 96 97 97 95 97 96 97 98 98 98 98 97 97 94 98 98 99 97
40 43 44 35 34 36 43 48 33 26 23 19 21 20 28 34 44 68 73 75 81 85 87 81 86 94 96 90 89 90 91 93 94 95 97 96 96 97 97 97 98 97 97 98 97 98 99 99 98
52 53 48 41 31 31 48 58 40 26 22 17 15 37 67 74 82 74 75 78 84 86 88 84 89 94 94 88 91 99 98 99 99 99 98 97 95 96 96 97 97 98 95 97 98 97 97 98 98
74 46 44 46 49 76 60 86 51 32 30 82 81 83 82 82 78 76 75 76 83 84 81 83 83 88 91 93 93 93 92 92 90 91 94 95 95 96 95 96 96 96 94 97 96 95 96 95 97
61 53 54 56 58 60 68 86 45 42 88 86 81 85 83 83 86 86 82 78 74 79 81 81 76 83 88 92 94 96 95 95 97 97 95 95 98 96 96 96 97 97 95 94 96 97 96 95 95
51 60 61 64 71 84 60 60 69 97 97 92 89 86 84 81 79 79 76 77 77 75 77 78 74 75 83 89 91 95 96 97 98 98 98 97 98 98 97 96 97 97 96 96 94 94 95 96 95
64 74 89 90 95 80 47 53 95 98 95 95 94 92 87 80 80 81 82 80 78 78 78 76 78 82 77 82 87 88 92 96 96 95 97 98 98 98 98 97 97 96 95 95 94 94 94 94 94
66 70 79 75 73 89 63 86 99 99 96 95 95 92 87 88 84 85 83 80 80 79 79 78 78 80 78 80 81 81 87 94 93 90 96 95 96 95 94 94 93 92 95 97 97 98 96 97 97
55 72 46 64 67 76 85 99 80 80 91 100 99 95 97 93 88 89 86 81 80 79 81 82 80 79 79 79 80 83 88 92 93 91 95 92 91 83 82 92 92 92 95 96 98 97 98 97 97
54 61 84 85 92 87 93 95 94 92 97 98 98 99 98 98 93 88 85 85 81 79 78 79 79 80 80 79 81 84 87 85 92 94 94 96 94 95 95 94 92 93 94 96 97 97 96 96 97
88 86 86 77 78 96 96 97 100 99 100 98 98 99 100 97 98 96 87 82 81 77 78 80 81 84 83 82 85 88 87 88 91 94 86 95 97 96 96 93 92 96 96 98 98 96 96 96 97
88 76 74 89 74 94 95 99 100 100 100 98 98 100 99 100 98 99 91 83 82 82 80 82 83 85 86 83 86 88 88 88 91 92 94 97 97 96 96 96 94 95 98 97 97 97 95 95 97

GFSSGP_sfc_rhum_126.txt.gz
RH
36 16 14 12 9 7 6 3 4 5 7 8 8 7 5 7 10 17 28 34 44 36 49 69 92 91 91 91 92 94 94 92 89 89 90 90 91 91 92 92 90 88 85 80 79 78 76 79 86
14 16 13 9 8 7 5 4 5 4 5 7 6 6 9 8 11 15 20 38 39 36 48 53 94 92 91 91 92 94 93 92 91 90 90 91 92 92 92 92 91 89 86 81 78 77 79 84 89
18 17 12 10 10 10 8 5 4 6 7 6 6 6 7 8 11 18 30 40 38 38 44 53 93 92 91 91 92 93 94 93 92 91 90 92 92 92 92 92 92 90 87 82 79 80 86 89 91
15 13 11 13 12 9 7 6 6 6 7 8 8 7 6 7 20 29 35 42 39 40 40 82 95 93 92 92 91 92 93 94 93 92 92 92 92 92 92 93 92 90 87 85 82 86 90 91 93
12 12 16 16 14 11 11 8 9 10 9 10 9 11 10 11 18 25 43 45 43 44 45 71 96 94 92 91 91 92 92 93 93 93 93 92 92 93 93 93 92 91 88 83 88 91 91 92 93
14 14 17 16 13 12 11 10 10 12 11 12 11 11 10 12 18 27 43 47 47 53 55 63 90 94 94 92 93 93 92 93 94 94 94 94 94 94 93 92 92 91 86 85 92 92 92 93 93
16 14 16 15 17 16 14 11 12 13 13 13 11 12 11 11 25 36 42 54 57 58 65 67 70 78 97 96 95 94 93 94 94 95 96 96 96 95 94 92 90 91 90 92 93 92 92 93 93
16 16 16 15 16 14 13 14 12 14 14 14 10 12 15 20 27 28 43 53 62 64 66 67 66 68 70 73 96 94 94 94 95 96 96 97 97 96 95 94 93 93 92 92 92 92 93 93 93
20 18 15 13 16 13 14 19 13 15 16 15 17 16 15 15 14 22 31 46 55 62 63 65 62 61 64 63 72 93 95 94 96 92 97 92 62 70 76 76 94 94 94 92 92 93 94 95 94
16 13 10 14 15 18 20 20 18 16 15 15 15 17 15 13 13 14 16 27 42 57 59 56 60 59 60 51 61 67 64 61 63 66 71 64 59 59 56 71 94 95 95 93 92 93 95 91 52
12 13 12 16 18 18 17 16 14 15 15 12 15 15 13 12 12 12 12 14 24 43 49 54 60 60 59 53 54 59 54 56 59 64 65 64 60 61 58 58 64 63 86 60 70 73 58 54 52
11 10 13 10 12 13 12 9 10 9 10 10 9 9 9 10 11 11 11 12 16 29 46 48 54 60 63 48 51 60 57 72 68 59 67 64 61 66 64 58 57 59 56 56 55 53 55 63 61
14 13 15 14 12 11 10 10 8 8 8 7 8 10 10 9 9 9 9 10 12 18 37 48 52 59 59 62 51 54 55 63 72 75 78 74 58 64 61 61 58 58 58 56 54 53 60 60 57
13 14 12 11 11 10 12 10 11 8 8 10 11 10 10 10 11 12 12 11 12 16 29 46 50 62 63 62 59 57 58 55 68 72 76 83 61 64 59 63 69 60 60 56 55 53 59 55 54
17 17 11 10 11 11 11 10 8 7 11 10 12 12 12 12 11 11 12 15 14 12 18 37 55 61 67 67 59 57 52 54 60 67 78 84 72 72 78 74 67 76 63 65 61 60 61 58 58
18 17 15 14 11 11 14 13 10 10 12 13 13 12 11 12 12 10 10 12 13 13 14 20 41 56 63 62 57 50 50 58 55 65 63 79 78 68 80 77 73 64 82 79 79 78 74 58 60
21 16 15 14 13 15 16 16 12 11 12 15 15 12 11 12 12 11 9 10 12 12 15 17 37 54 60 59 56 56 58 70 57 59 53 69 77 75 73 76 77 77 84 90 84 83 72 68 62
15 16 15 16 14 15 16 16 12 12 13 15 13 13 13 13 14 13 12 9 14 22 21 18 28 53 59 54 56 52 54 63 59 65 63 62 71 76 80 75 79 86 79 87 87 87 86 72 64
20 20 19 15 16 20 20 17 14 13 14 16 17 18 19 20 17 13 14 18 39 39 37 23 28 48 54 54 53 52 55 55 56 52 58 62 74 77 80 74 85 86 80 82 86 90 89 88 72
23 23 20 17 18 21 19 18 15 13 19 35 40 38 41 42 39 35 37 42 49 50 49 45 37 37 50 50 46 45 47 48 49 51 53 56 61 76 80 78 80 81 71 81 85 87 92 89 85
26 27 25 25 23 19 21 21 11 16 32 50 48 47 50 60 60 52 47 48 52 54 57 52 48 46 53 60 50 47 48 51 53 56 53 54 58 63 80 70 70 71 69 76 85 86 91 95 93
32 25 29 30 28 27 21 33 21 33 32 39 52 61 67 71 71 69 64 60 62 63 63 60 54 56 75 80 67 63 58 62 58 59 54 56 63 61 62 67 64 66 76 72 77 78 82 83 92
31 34 34 32 33 32 21 26 20 39 49 56 55 60 69 91 91 83 76 72 70 72 69 70 69 66 67 85 95 91 69 56 54 65 69 80 77 70 60 64 68 77 78 79 85 87 90 73 76
31 36 35 34 35 42 26 34 45 83 99 82 65 67 68 82 94 92 80 76 79 83 81 73 73 73 76 76 87 96 89 70 70 76 78 81 90 90 85 74 82 82 87 89 89 87 86 81 74
39 42 46 44 56 33 22 28 86 81 94 96 95 92 89 78 95 96 90 85 83 89 89 84 78 79 78 81 82 85 87 88 89 91 91 87 90 88 90 89 90 90 88 89 86 86 86 82 78
40 39 38 46 33 34 27 60 91 98 91 91 99 96 90 90 95 96 95 88 86 86 90 83 82 82 79 81 80 81 82 85 84 87 85 90 93 89 86 90 92 92 90 86 83 81 83 83 80
51 50 30 48 44 53 48 100 96 58 78 100 97 92 100 100 98 97 96 93 86 87 86 87 83 82 82 81 79 80 81 82 80 82 80 88 86 88 90 89 91 94 94 88 88 90 90 91 87
43 44 66 57 69 67 62 86 79 82 95 99 97 99 98 99 98 96 95 98 85 82 84 82 80 80 82 81 78 76 76 76 80 80 83 87 86 87 88 90 92 91 94 91 93 91 89 88 90
76 61 52 47 52 70 68 92 96 100 99 99 98 98 98 100 100 98 97 96 96 76 78 82 80 80 79 78 83 83 80 79 81 82 86 88 88 89 86 87 86 90 92 90 89 89 86 87 90
48 57 45 65 58 53 90 97 93 100 99 96 98 98 98 100 100 99 99 98 95 83 80 80 81 81 79 75 80 85 84 82 84 86 86 87 87 86 89 89 87 88 86 82 87 86 82 90 96